[[{"header":{"parameterUnit":"m.s-1","parameterCategory":1,"la1":30.6,"la2":29.2853,"lo1":-89.7004,"lo2":-87.6739,"dy":0.0162,"dx":0.0183,"nx":112,"ny":82,"refTime":"2023-11-17T06:00:00:Z","depth":0,"parameterNumber":2,"parameterNumberName":"U-component_of_WINDS"},"data":[0.0,0.0,0.0,0.0,0.0,0.0,0.0,0.0,0.0,0.0,0.0,0.0,0.0,0.0,0.0,0.0,0.0,0.0,0.0,0.0,0.0,0.0,0.0,0.0,0.0,0.0,0.0,0.0,0.0,0.0,0.0,0.0,0.0,0.0,0.0,0.0,0.0,0.0,0.0,0.0,0.0,0.0,0.0,0.0,0.0,0.0,0.0,0.0,0.0,0.0,0.0,0.0,0.0,0.0,0.0,0.0,0.0,0.0,0.0,0.0,0.0,0.0,0.0,0.0,0.0,0.0,0.0,0.0,0.0,0.0,0.0,0.0,0.0,0.0,0.0,0.0,0.0,0.0,0.0,0.0,0.0,0.0,0.0,0.0,0.0,0.0,0.0,0.0,0.0,0.0,2.9665,3.3885,4.0193,4.4224,4.4474,4.4147,4.1841,3.7007,0.0,0.0,0.0,0.0,0.0,0.0,0.0,0.0,0.0,0.0,0.0,0.0,0.0,0.0,0.0,0.0,0.0,0.0,0.0,0.0,0.0,0.0,0.0,0.0,0.0,0.0,0.0,0.0,0.0,0.0,0.0,0.0,0.0,0.0,0.0,0.0,0.0,0.0,0.0,0.0,0.0,0.0,0.0,0.0,0.0,0.0,0.0,0.0,0.0,0.0,0.0,0.0,0.0,0.0,0.0,0.0,0.0,0.0,0.0,0.0,0.0,0.0,0.0,0.0,0.0,0.0,0.0,0.0,0.0,0.0,0.0,0.0,0.0,0.0,0.0,0.0,0.0,0.0,0.0,0.0,0.0,0.0,0.0,0.0,0.0,0.0,0.0,0.0,0.0,0.0,0.0,0.0,0.0,0.0,0.0,0.0,0.0,0.0,0.0,0.0,0.0,0.0,0.0,0.0,2.9475,3.6061,4.0668,4.3861,4.5278,4.3421,4.0869,3.7794,0.0,0.0,0.0,0.0,0.0,0.0,0.0,0.0,0.0,0.0,0.0,0.0,0.0,0.0,0.0,0.0,0.0,0.0,0.0,0.0,0.0,0.0,0.0,0.0,0.0,0.0,0.0,0.0,0.0,0.0,0.0,0.0,0.0,0.0,0.0,0.0,0.0,0.0,0.0,0.0,0.0,0.0,0.0,0.0,0.0,0.0,0.0,0.0,0.0,0.0,0.0,0.0,0.0,0.0,0.0,0.0,0.0,0.0,0.0,0.0,0.0,0.0,0.0,0.0,0.0,0.0,0.0,0.0,0.0,0.0,0.0,0.0,0.0,0.0,0.0,0.0,0.0,0.0,0.0,0.0,0.0,0.0,0.0,0.0,0.0,0.0,0.0,0.0,0.0,0.0,0.0,0.0,0.0,0.0,0.0,0.0,0.0,0.0,0.0,0.0,0.0,0.0,0.0,3.008,3.2994,3.7668,4.1522,4.388,4.4224,4.2731,4.0452,3.7287,3.4674,0.0,0.0,0.0,0.0,0.0,0.0,0.0,0.0,0.0,0.0,0.0,0.0,0.0,0.0,0.0,0.0,0.0,0.0,0.0,0.0,0.0,0.0,0.0,0.0,0.0,0.0,0.0,0.0,0.0,0.0,0.0,0.0,0.0,0.0,0.0,0.0,0.0,0.0,0.0,0.0,0.0,0.0,0.0,0.0,0.0,0.0,0.0,0.0,0.0,0.0,0.0,0.0,0.0,0.0,0.0,0.0,0.0,0.0,0.0,0.0,0.0,0.0,0.0,0.0,0.0,0.0,0.0,0.0,0.0,0.0,0.0,0.0,0.0,0.0,0.0,0.0,0.0,0.0,0.0,0.0,0.0,0.0,0.0,0.0,0.0,0.0,0.0,0.0,0.0,0.0,0.0,0.0,0.0,0.0,0.0,0.0,0.0,0.0,0.0,0.0,0.0,0.0,3.325,3.552,3.8479,4.1745,4.3532,4.3133,4.2098,4.0063,3.6707,3.4047,0.0,0.0,0.0,0.0,0.0,0.0,0.0,0.0,0.0,0.0,0.0,0.0,0.0,0.0,0.0,0.0,0.0,0.0,0.0,0.0,0.0,0.0,0.0,0.0,0.0,0.0,0.0,0.0,0.0,0.0,0.0,0.0,0.0,0.0,0.0,0.0,0.0,0.0,0.0,0.0,0.0,0.0,0.0,0.0,0.0,0.0,0.0,0.0,0.0,0.0,0.0,0.0,0.0,0.0,0.0,0.0,0.0,0.0,0.0,0.0,0.0,0.0,0.0,0.0,0.0,0.0,0.0,0.0,0.0,0.0,0.0,0.0,0.0,0.0,0.0,0.0,0.0,0.0,0.0,0.0,0.0,0.0,0.0,0.0,0.0,0.0,0.0,0.0,0.0,0.0,0.0,0.0,0.0,0.0,0.0,0.0,0.0,0.0,0.0,0.0,0.0,0.0,3.17,3.4091,3.8098,4.0604,4.2294,4.3037,4.1553,3.9411,3.6675,3.4056,0.0,0.0,0.0,0.0,0.0,0.0,0.0,0.0,0.0,0.0,0.0,0.0,0.0,0.0,0.0,0.0,0.0,0.0,0.0,0.0,0.0,0.0,0.0,0.0,0.0,0.0,0.0,0.0,0.0,0.0,0.0,0.0,0.0,0.0,0.0,0.0,0.0,0.0,0.0,0.0,0.0,0.0,0.0,0.0,0.0,0.0,0.0,0.0,0.0,0.0,0.0,0.0,0.0,0.0,0.0,0.0,0.0,0.0,0.0,0.0,0.0,0.0,0.0,0.0,0.0,0.0,0.0,0.0,0.0,0.0,0.0,0.0,0.0,0.0,0.0,0.0,0.0,0.0,0.0,0.0,0.0,0.0,0.0,0.0,0.0,0.0,0.0,0.0,0.0,0.0,0.0,0.0,0.0,0.0,0.0,0.0,0.0,0.0,0.0,0.0,0.0,0.0,3.1903,3.3788,3.7299,3.9665,4.112,4.1453,3.9919,3.8024,3.5837,0.0,0.0,0.0,0.0,0.0,0.0,0.0,0.0,0.0,0.0,0.0,0.0,0.0,0.0,0.0,0.0,0.0,0.0,0.0,0.0,0.0,0.0,0.0,0.0,0.0,0.0,0.0,0.0,0.0,0.0,0.0,0.0,0.0,0.0,0.0,0.0,0.0,0.0,0.0,0.0,0.0,0.0,0.0,0.0,0.0,0.0,0.0,0.0,0.0,0.0,0.0,0.0,0.0,0.0,0.0,0.0,0.0,0.0,0.0,0.0,0.0,0.0,0.0,0.0,0.0,0.0,0.0,0.0,0.0,0.0,0.0,0.0,0.0,0.0,0.0,0.0,0.0,0.0,0.0,0.0,0.0,0.0,0.0,0.0,0.0,0.0,0.0,0.0,0.0,0.0,0.0,0.0,0.0,0.0,0.0,0.0,0.0,0.0,0.0,0.0,0.0,0.0,3.0903,3.1639,3.3072,3.6093,3.8308,3.9608,3.9704,3.8159,3.6615,3.5315,0.0,0.0,0.0,0.0,0.0,0.0,0.0,0.0,0.0,0.0,0.0,0.0,0.0,0.0,0.0,0.0,0.0,0.0,0.0,0.0,0.0,0.0,0.0,0.0,0.0,0.0,0.0,0.0,0.0,0.0,0.0,0.0,0.0,0.0,0.0,0.0,0.0,0.0,0.0,0.0,0.0,0.0,0.0,0.0,0.0,0.0,0.0,0.0,0.0,0.0,0.0,0.0,0.0,0.0,0.0,0.0,0.0,0.0,0.0,0.0,0.0,0.0,0.0,0.0,0.0,0.0,0.0,0.0,0.0,0.0,0.0,0.0,0.0,0.0,0.0,0.0,0.0,0.0,0.0,0.0,0.0,0.0,0.0,0.0,0.0,0.0,0.0,0.0,0.0,0.0,0.0,0.0,0.0,0.0,0.0,0.0,0.0,0.0,0.0,0.0,0.0,0.0,3.0095,3.0581,3.1718,3.4438,3.6435,3.7702,3.797,3.6389,3.536,0.0,0.0,0.0,0.0,0.0,0.0,0.0,0.0,0.0,0.0,0.0,0.0,0.0,0.0,0.0,0.0,0.0,0.0,0.0,0.0,0.0,0.0,0.0,0.0,0.0,0.0,0.0,0.0,0.0,0.0,0.0,0.0,0.0,0.0,0.0,0.0,0.0,0.0,0.0,0.0,0.0,0.0,0.0,0.0,0.0,0.0,0.0,0.0,0.0,0.0,0.0,0.0,0.0,0.0,0.0,0.0,0.0,0.0,0.0,0.0,0.0,0.0,0.0,0.0,0.0,0.0,0.0,0.0,0.0,0.0,0.0,0.0,0.0,0.0,0.0,0.0,0.0,0.0,0.0,0.0,0.0,0.0,0.0,0.0,0.0,0.0,0.0,0.0,0.0,0.0,0.0,0.0,0.0,0.0,0.0,0.0,0.0,0.0,0.0,0.0,0.0,0.0,0.0,3.0865,3.0376,3.1273,3.5123,3.6231,3.7046,3.7921,3.5869,3.4743,3.521,0.0,0.0,0.0,0.0,0.0,0.0,0.0,0.0,0.0,0.0,0.0,0.0,0.0,0.0,0.0,0.0,0.0,0.0,0.0,0.0,0.0,0.0,0.0,0.0,0.0,0.0,0.0,0.0,0.0,0.0,0.0,0.0,0.0,0.0,0.0,0.0,0.0,0.0,0.0,0.0,0.0,0.0,0.0,0.0,0.0,0.0,0.0,0.0,0.0,0.0,0.0,0.0,0.0,0.0,0.0,0.0,0.0,0.0,0.0,0.0,0.0,0.0,0.0,0.0,0.0,0.0,0.0,0.0,0.0,0.0,0.0,0.0,0.0,0.0,0.0,0.0,0.0,0.0,0.0,0.0,0.0,0.0,0.0,0.0,0.0,0.0,0.0,0.0,0.0,0.0,0.0,0.0,0.0,0.0,0.0,0.0,0.0,0.0,0.0,0.0,0.0,0.0,3.1223,3.0483,3.1052,3.4539,3.5344,3.604,3.6934,3.496,3.3993,3.4716,0.0,0.0,0.0,0.0,0.0,0.0,0.0,0.0,0.0,0.0,0.0,0.0,0.0,0.0,0.0,0.0,0.0,0.0,0.0,0.0,0.0,0.0,0.0,0.0,0.0,0.0,0.0,0.0,0.0,0.0,0.0,0.0,0.0,0.0,0.0,0.0,0.0,0.0,0.0,0.0,0.0,0.0,0.0,0.0,0.0,0.0,0.0,0.0,0.0,0.0,0.0,0.0,0.0,0.0,0.0,0.0,0.0,0.0,0.0,0.0,0.0,0.0,0.0,0.0,0.0,0.0,0.0,0.0,0.0,0.0,0.0,0.0,0.0,0.0,0.0,0.0,0.0,0.0,0.0,0.0,0.0,0.0,0.0,0.0,0.0,0.0,0.0,0.0,0.0,0.0,0.0,0.0,0.0,0.0,0.0,0.0,0.0,0.0,0.0,0.0,0.0,0.0,3.1278,3.0783,3.1029,3.3158,3.4245,3.4999,3.5455,3.3972,3.3365,3.4164,0.0,0.0,0.0,0.0,0.0,0.0,0.0,0.0,0.0,0.0,0.0,0.0,0.0,0.0,0.0,0.0,0.0,0.0,0.0,0.0,0.0,0.0,0.0,0.0,0.0,0.0,0.0,0.0,0.0,0.0,0.0,0.0,0.0,0.0,0.0,0.0,0.0,0.0,0.0,0.0,0.0,0.0,0.0,0.0,0.0,0.0,0.0,0.0,0.0,0.0,0.0,0.0,0.0,0.0,0.0,0.0,0.0,0.0,0.0,0.0,2.8173,2.7782,0.0,0.0,0.0,0.0,0.0,0.0,0.0,0.0,0.0,0.0,0.0,0.0,0.0,0.0,0.0,0.0,0.0,0.0,0.0,0.0,0.0,0.0,0.0,0.0,0.0,0.0,0.0,0.0,0.0,0.0,0.0,0.0,0.0,0.0,0.0,0.0,0.0,0.0,0.0,0.0,3.1296,3.0778,3.1029,3.3158,3.4756,3.5603,3.5526,3.4524,3.4237,3.5005,3.2801,0.0,0.0,0.0,0.0,0.0,0.0,0.0,0.0,0.0,0.0,0.0,0.0,0.0,0.0,0.0,0.0,0.0,0.0,0.0,0.0,0.0,0.0,0.0,0.0,0.0,0.0,0.0,0.0,0.0,0.0,0.0,0.0,0.0,0.0,0.0,0.0,0.0,0.0,0.0,0.0,0.0,0.0,0.0,0.0,0.0,0.0,0.0,0.0,0.0,0.0,0.0,0.0,0.0,0.0,0.0,0.0,0.0,0.0,0.0,3.1211,2.9901,0.0,0.0,0.0,0.0,0.0,0.0,0.0,0.0,0.0,0.0,0.0,0.0,0.0,0.0,0.0,0.0,0.0,0.0,0.0,0.0,0.0,0.0,0.0,0.0,0.0,0.0,0.0,0.0,0.0,0.0,0.0,0.0,0.0,0.0,0.0,0.0,0.0,0.0,0.0,0.0,3.2976,3.1937,3.1737,3.3815,3.4927,3.5498,3.5494,3.4702,3.4353,3.4755,3.3506,0.0,0.0,0.0,0.0,0.0,0.0,0.0,0.0,0.0,0.0,0.0,0.0,0.0,0.0,0.0,0.0,0.0,0.0,0.0,0.0,0.0,0.0,0.0,0.0,0.0,0.0,0.0,0.0,0.0,0.0,0.0,0.0,0.0,0.0,0.0,0.0,0.0,0.0,0.0,0.0,0.0,0.0,0.0,0.0,0.0,0.0,0.0,0.0,0.0,0.0,0.0,0.0,0.0,3.5667,3.6742,3.7913,3.8066,3.8108,3.7923,3.5273,3.31,3.136,3.0931,0.0,0.0,0.0,0.0,0.0,0.0,0.0,0.0,0.0,0.0,0.0,0.0,0.0,0.0,0.0,0.0,0.0,0.0,0.0,0.0,0.0,0.0,3.3021,3.5119,3.5892,3.5662,3.3752,0.0,0.0,0.0,0.0,0.0,0.0,0.0,0.0,0.0,0.0,0.0,3.4433,3.3157,3.263,3.4303,3.4963,3.5369,3.5488,3.4841,3.443,3.4429,3.4237,3.3895,0.0,0.0,0.0,0.0,0.0,0.0,0.0,0.0,0.0,0.0,0.0,0.0,0.0,0.0,0.0,0.0,0.0,0.0,0.0,0.0,0.0,0.0,0.0,0.0,0.0,0.0,0.0,0.0,0.0,0.0,0.0,0.0,2.804,2.7649,0.0,0.0,0.0,0.0,0.0,0.0,0.0,0.0,0.0,0.0,0.0,0.0,0.0,3.3698,3.6781,3.6868,3.7098,3.7493,3.8358,3.8512,3.8012,3.8762,3.9108,3.9127,3.9384,0.0,3.5614,3.344,0.0,0.0,0.0,0.0,0.0,0.0,0.0,0.0,0.0,0.0,0.0,0.0,0.0,0.0,0.0,0.0,0.0,0.0,0.0,0.0,0.0,0.0,3.6297,3.7367,3.7869,3.8248,3.861,3.5848,3.3064,3.2273,3.277,3.3041,0.0,0.0,0.0,0.0,0.0,0.0,3.3017,3.2914,3.3022,3.3522,3.511,3.5968,3.5537,3.5397,3.5334,3.5328,3.4614,3.4787,3.6117,3.5608,0.0,0.0,0.0,0.0,0.0,0.0,0.0,0.0,0.0,0.0,0.0,0.0,0.0,0.0,0.0,0.0,0.0,0.0,0.0,0.0,0.0,0.0,0.0,0.0,0.0,0.0,0.0,0.0,0.0,2.8271,3.0448,2.9206,3.091,3.124,0.0,0.0,0.0,0.0,0.0,0.0,0.0,0.0,0.0,3.4966,3.5518,3.6724,3.87,3.8704,3.9415,4.0873,4.1258,4.172,4.2277,4.2662,4.2835,4.2854,4.3203,4.2187,4.0038,3.7482,3.5032,3.273,0.0,0.0,0.0,0.0,3.1016,3.1264,3.3099,3.4247,3.5051,3.6029,0.0,0.0,0.0,0.0,0.0,0.0,0.0,3.2739,3.4338,3.6128,3.7813,3.9062,4.0083,4.0726,4.0438,3.8665,3.6728,3.5315,3.5458,3.5541,3.4621,3.4747,0.0,0.0,0.0,3.3414,3.3924,3.3556,3.3459,3.4074,3.5166,3.5757,3.5526,3.5493,3.5493,3.5493,3.5147,3.5262,3.6001,3.6078,3.6248,0.0,0.0,0.0,0.0,0.0,0.0,0.0,0.0,0.0,0.0,0.0,0.0,0.0,0.0,0.0,0.0,0.0,0.0,0.0,0.0,0.0,0.0,0.0,0.0,0.0,0.0,0.0,0.0,2.941,3.1991,3.0388,3.2716,3.3508,0.0,0.0,0.0,0.0,0.0,0.0,3.3709,3.5235,3.6671,3.7959,3.8627,3.9488,4.0566,4.0585,4.1527,4.3412,4.3624,4.4393,4.5586,4.5586,4.5586,4.5586,4.5586,4.4759,4.322,4.0841,3.7853,3.4802,3.4982,3.4059,3.2726,3.3914,3.4381,3.473,3.6812,3.7548,3.789,3.9637,3.9045,3.7632,3.7475,0.0,0.0,0.0,0.0,3.471,3.6713,3.8035,3.9214,4.0765,4.2112,4.2769,4.1871,4.1253,4.024,3.8115,3.7909,3.7695,3.6492,3.6175,0.0,3.6278,3.498,3.4228,3.4833,3.4283,3.4088,3.4721,3.5224,3.5493,3.5493,3.5493,3.5493,3.5493,3.5493,3.5603,3.5795,3.6593,3.7118,3.7294,0.0,0.0,0.0,0.0,0.0,0.0,0.0,0.0,0.0,0.0,0.0,0.0,0.0,0.0,0.0,0.0,0.0,0.0,0.0,0.0,0.0,0.0,0.0,0.0,0.0,0.0,0.0,0.0,0.0,3.0387,3.5397,0.0,0.0,0.0,0.0,3.3892,3.4611,3.5542,3.6464,3.7377,3.9008,4.147,4.1604,4.2393,4.4028,4.4047,4.4105,4.4239,4.5066,4.5509,4.5586,4.5586,4.5586,4.5586,4.5586,4.5066,4.4105,4.2393,4.1058,3.9947,3.8331,3.8141,3.875,3.8846,3.8873,3.901,3.9977,4.0296,4.0585,4.2335,4.3333,4.3333,4.0492,3.9747,0.0,0.0,3.7691,3.82,3.9491,4.0277,4.1148,4.2769,4.3688,4.4128,4.3822,4.3345,4.2139,3.9355,3.8831,3.8343,3.6771,0.0,3.812,3.5311,3.5614,3.5789,3.4833,3.4897,3.5016,3.5081,3.532,3.5493,3.5493,3.5493,3.5493,3.5493,3.5493,3.5834,3.6612,3.7467,3.8309,3.9152,3.8243,0.0,0.0,0.0,0.0,0.0,0.0,0.0,0.0,0.0,0.0,0.0,0.0,0.0,0.0,0.0,0.0,0.0,0.0,0.0,0.0,0.0,0.0,0.0,0.0,0.0,0.0,0.0,0.0,3.5924,3.8869,0.0,3.7209,3.6791,3.6675,3.655,3.7882,3.93,4.0742,4.1604,4.272,4.4201,4.4239,4.4528,4.5124,4.5143,4.5143,4.5143,4.6028,4.6432,4.6451,4.6971,4.7201,4.7201,4.7201,4.7028,4.6663,4.5547,4.3605,4.1277,4.0658,4.0258,4.0095,4.0658,4.1231,4.1841,4.2665,4.2934,4.2951,4.3066,4.3278,4.3278,4.1978,4.1329,4.0941,4.0613,4.0232,4.0276,4.1736,4.2468,4.3113,4.4205,4.4818,4.5124,4.501,4.4397,4.3588,4.2576,4.0639,3.9131,3.9065,3.8729,3.8243,3.753,3.728,3.6938,3.6387,3.6539,3.6474,3.5935,3.6117,3.6059,3.5545,3.5493,3.5493,3.5493,3.5493,3.5641,3.5911,3.6709,3.7574,3.845,3.8136,3.8319,0.0,0.0,0.0,0.0,0.0,0.0,0.0,0.0,0.0,0.0,0.0,0.0,0.0,0.0,0.0,0.0,0.0,0.0,0.0,0.0,0.0,0.0,0.0,0.0,0.0,3.5551,3.9248,3.9883,4.2057,4.2967,4.1508,4.0623,4.0358,4.0902,4.2011,4.3278,4.472,4.4759,4.5259,4.6411,4.5892,4.5738,4.6046,4.5757,4.5586,4.5605,4.649,4.6913,4.6932,4.774,4.8105,4.8105,4.8105,4.8105,4.8067,4.7528,4.5972,4.3878,4.3302,4.2725,4.2283,4.2864,4.3628,4.4509,4.5299,4.5203,4.4701,4.4468,4.4179,4.3893,4.3553,4.3145,4.2827,4.2929,4.2625,4.2527,4.3484,4.4032,4.4435,4.4972,4.5355,4.5586,4.5586,4.4914,4.4299,4.4289,4.2059,4.0296,4.0793,3.9711,3.9028,3.9658,3.9028,3.8513,3.857,3.8306,3.7868,3.7276,3.6906,3.6593,3.6348,3.629,3.6175,3.5911,3.6136,3.629,3.6329,3.7089,3.8055,3.9189,3.9169,3.9253,3.9473,0.0,0.0,0.0,0.0,0.0,0.0,0.0,0.0,0.0,0.0,0.0,0.0,0.0,0.0,0.0,0.0,0.0,0.0,0.0,0.0,0.0,0.0,0.0,3.301,3.8005,4.178,4.1871,4.4953,4.6716,4.583,4.6504,4.6968,4.6951,4.6951,4.7278,4.8067,4.6547,4.6431,4.8065,4.6527,4.6084,4.6929,4.6103,4.5682,4.5682,4.6567,4.699,4.7009,4.7817,4.8182,4.8182,4.8182,4.8182,4.8182,4.8144,4.8144,4.7971,4.6297,4.5624,4.5624,4.5605,4.6124,4.6971,4.7759,4.6951,4.5738,4.6583,4.6294,4.5528,4.522,4.5336,4.5451,4.4818,4.4876,4.503,4.4722,4.4876,4.5124,4.5124,4.5355,4.5586,4.5586,4.4934,4.4339,4.4339,4.3025,4.1825,4.1651,4.0966,4.0646,4.1293,4.0704,0.0,4.1181,4.0034,3.9119,3.9039,3.77,3.7145,3.7982,3.791,3.753,3.6776,3.7415,3.7852,3.8001,3.8709,3.989,4.1524,4.1447,4.1032,4.0366,0.0,0.0,0.0,0.0,0.0,0.0,0.0,0.0,0.0,0.0,0.0,0.0,0.0,0.0,0.0,0.0,0.0,0.0,0.0,0.0,0.0,3.7196,4.0191,3.931,4.2717,4.6014,4.7972,4.9585,5.0201,4.9375,4.8932,4.8451,4.7818,4.7778,4.7875,4.8086,4.7663,4.7625,4.8086,4.7644,4.7528,4.7777,4.7528,4.7413,4.7413,4.8298,4.8702,4.874,4.9606,4.999,4.999,4.999,4.999,4.9933,4.9298,4.9048,4.8875,4.7201,4.6547,4.6471,4.5817,4.574,4.599,4.6201,4.599,4.5624,4.5873,4.5796,4.5566,4.549,4.5528,4.5547,4.5374,4.5393,4.5432,4.5355,4.5393,4.5451,4.5451,4.5528,4.5586,4.5586,4.5413,4.524,4.524,4.4374,4.3201,4.1963,4.1571,4.1263,4.0805,4.0556,4.049,4.0688,4.0377,4.0094,4.0021,3.9681,3.9268,3.8844,3.8845,3.8525,3.7686,3.7836,3.7963,3.8001,3.8806,3.9729,4.0767,4.0729,4.045,0.0,0.0,0.0,0.0,0.0,0.0,0.0,0.0,0.0,0.0,0.0,0.0,0.0,0.0,0.0,0.0,0.0,0.0,0.0,0.0,0.0,0.0,4.0881,4.4921,4.5841,4.7646,4.972,5.2026,5.2391,5.2391,5.2298,5.1183,5.024,4.9721,4.9029,4.8798,4.9163,4.8509,4.8432,4.9163,4.849,4.8452,4.9183,4.8471,4.8279,4.8644,4.9163,4.9586,4.9971,5.0818,5.1395,5.1741,5.1741,5.1529,5.1164,5.0664,5.024,4.9779,0.0,0.0,0.0,0.0,4.674,4.6297,4.7355,4.7259,4.6701,4.7066,4.6719,4.6142,4.6142,4.5892,4.5586,4.5586,4.5586,4.5586,4.5586,4.5586,4.5586,4.5586,4.5586,4.5586,4.5586,4.5586,4.5586,4.5586,4.5201,0.0,4.3082,4.2527,4.2311,4.2444,4.1882,4.1554,4.1869,4.1361,4.0952,4.0877,4.0344,3.9907,3.9704,3.9723,0.0,0.0,0.0,3.9013,3.9013,3.9811,0.0,0.0,0.0,4.1469,4.1698,4.0466,0.0,0.0,3.829,3.8047,0.0,0.0,0.0,0.0,0.0,0.0,0.0,0.0,0.0,0.0,0.0,0.0,0.0,0.0,0.0,0.0,4.4078,4.8491,5.1721,5.228,5.2877,5.4336,5.3893,5.374,5.4432,5.3007,5.2048,5.2049,5.0586,5.001,5.0779,4.9375,0.0,0.0,0.0,4.9317,5.0971,4.9452,4.9067,4.9837,4.9837,5.0221,5.101,5.1722,5.2472,5.3203,5.3203,5.2722,5.1914,5.1914,5.1433,5.0529,4.8894,4.8202,4.8202,4.8971,4.8317,4.7355,4.9625,0.0,0.0,4.899,4.8257,4.7045,4.7045,4.6448,4.5776,4.5853,4.5757,4.5605,4.5719,4.568,4.5586,4.5586,4.5586,4.5624,4.5738,4.568,4.5624,4.5738,4.568,4.5355,4.4587,4.366,4.3493,4.4774,4.3701,4.2992,4.3721,4.2533,4.1632,4.1671,4.0422,0.0,4.0553,4.0575,4.0239,3.9477,4.0142,4.06,4.0696,4.1386,4.2437,4.3856,4.3146,4.3169,4.4029,4.258,4.2162,4.2619,3.9688,3.9416,0.0,0.0,0.0,0.0,0.0,0.0,0.0,0.0,0.0,0.0,0.0,0.0,0.0,0.0,0.0,4.381,4.801,5.1625,5.3703,5.4549,5.4838,5.4549,5.4914,5.503,5.4566,5.3567,5.2933,5.2955,5.2011,5.1491,5.1665,5.1337,5.1318,5.1664,5.1356,5.1664,5.2702,5.2375,5.2299,5.2472,5.2472,0.0,5.2722,5.2876,5.3049,5.3203,5.3203,5.2722,5.1914,5.1914,5.1433,5.0587,4.9548,4.8721,4.8125,4.8298,4.8144,4.7952,4.8432,4.8375,4.8125,4.8317,4.8144,4.7875,4.7875,4.7296,0.0,4.7428,4.6641,4.5757,4.6467,4.6123,4.5586,4.5586,4.5586,4.5796,4.6506,4.6103,4.5815,4.6506,4.6084,4.5547,4.5374,4.4624,4.391,4.3551,4.3223,4.3069,4.3223,4.2379,4.1979,4.2572,4.1841,4.133,4.1373,4.1482,4.1174,4.0315,4.1058,4.1844,4.2553,4.2742,4.2954,4.3262,4.3104,4.2977,4.29,4.2604,4.2698,4.3137,4.1605,4.1586,0.0,0.0,0.0,0.0,0.0,0.0,0.0,0.0,0.0,0.0,0.0,3.6347,3.6483,0.0,4.4582,4.6453,5.0393,5.3645,5.4914,5.5453,5.5549,5.5145,5.5453,5.5549,5.5124,5.4336,5.3857,5.3839,5.3028,5.2546,5.2547,5.2549,5.2549,5.2549,5.2549,5.2972,5.3837,5.3414,5.3414,5.3857,5.3414,5.3433,5.3857,5.3857,5.4068,5.4453,5.4453,5.3972,5.3164,5.2741,5.2318,5.1914,5.1471,5.026,4.8798,4.924,4.9125,4.8817,4.924,4.9394,4.9394,4.9413,4.9106,4.876,4.876,4.8164,4.7586,4.7987,4.7489,4.6952,4.739,4.7178,4.6833,4.6833,4.6833,4.6966,4.7409,4.6836,4.6377,4.6814,4.62,4.5586,4.5586,4.524,4.4682,4.3833,4.3352,4.3102,4.3102,4.272,4.2601,4.2973,4.2283,4.1767,4.1709,4.1767,4.1805,4.1805,4.2217,4.2662,4.3066,4.3102,4.3294,4.3695,4.3703,4.3822,4.4109,4.3918,4.407,4.4435,4.353,4.3504,0.0,0.0,0.0,0.0,0.0,0.0,0.0,3.6325,3.779,3.8258,3.9294,4.0215,4.0485,4.4125,4.7514,4.8788,5.2103,5.478,5.5588,5.5703,5.5645,5.5491,5.5588,5.5703,5.5703,5.4972,5.4566,5.472,5.3949,5.3447,5.3447,5.3432,5.3454,5.3453,5.3453,5.3857,5.4722,5.4049,5.4049,5.4722,5.403,5.4049,5.4722,5.4722,5.5088,5.5684,5.553,5.5107,5.4434,5.3568,5.3203,5.3203,5.3203,5.1952,5.0202,5.0741,5.0394,4.9779,5.0644,5.0818,5.0721,5.0875,5.0356,4.9663,4.9663,4.9048,4.8395,4.8546,4.8355,4.8145,4.8315,4.8237,4.8102,4.8102,4.8102,4.816,4.8314,4.7722,4.7185,4.7353,4.6564,4.5853,4.5853,4.5719,4.5355,4.4664,4.4013,4.3592,4.3592,4.3457,4.3321,4.3327,4.256,4.2059,4.2056,4.204,4.2425,4.3285,4.3338,4.3401,4.3592,4.3592,4.388,4.4549,4.4549,4.4895,4.5586,4.5336,4.5336,4.5586,4.505,4.4937,3.3284,3.2249,3.2077,3.3449,3.4447,3.6319,0.0,4.1527,4.1793,4.4124,4.5323,4.5954,4.6027,4.8311,5.0715,5.2351,5.368,5.478,5.5588,5.5703,5.5434,5.4722,5.5261,5.5703,5.5703,5.4974,5.4801,5.5511,5.482,5.4337,5.4334,5.4355,5.4355,5.4357,5.4357,5.4741,5.5549,5.5472,5.5472,5.5549,5.5472,5.5472,5.5568,5.5568,5.5607,5.5665,5.4934,5.4587,5.4434,5.3568,5.3203,5.3203,5.3203,5.3029,5.2702,5.2029,5.126,5.0664,5.1491,5.1298,5.0818,5.1529,5.1221,5.0548,5.0548,4.9952,4.9413,5.0183,4.9298,4.8279,4.9048,4.8683,4.8107,4.8107,4.8107,4.8299,4.9087,4.8568,4.8183,4.8966,4.7831,4.6737,4.6737,4.6103,4.5566,4.547,4.5374,4.5316,4.5316,4.4645,4.4166,4.4165,4.3455,4.2953,4.2938,4.2951,4.3304,4.4107,4.4166,4.4493,4.5297,4.5316,4.5355,4.5451,4.5451,4.549,4.5586,4.5547,4.5547,4.5586,4.5512,4.5512,3.5772,3.4866,3.4743,3.5468,3.7777,4.0446,4.2614,4.3936,4.5032,4.6121,4.724,4.8222,4.8969,5.0591,5.2276,5.3716,5.4643,5.5318,5.5645,5.5299,5.4684,5.3837,5.4049,5.4453,5.4951,5.5126,5.534,5.5665,5.5397,5.5184,5.5203,5.5182,5.5203,5.5203,5.5203,5.5588,5.6434,5.5953,5.5953,5.6434,5.5934,5.5703,5.5703,5.5703,5.5703,5.5684,5.5338,5.5203,5.5164,5.4799,5.4645,5.4645,5.4645,5.4376,5.3799,5.2414,5.201,5.2125,5.1972,5.201,5.2202,5.2549,5.2087,5.1395,5.1395,5.0818,5.024,5.0587,5.0183,4.9702,5.0048,4.9894,4.9625,4.9625,4.9625,4.9721,5.0067,4.9471,4.8952,4.9336,4.8413,4.7451,4.6987,4.6602,4.618,4.568,4.5586,4.5586,4.5586,4.5278,4.4857,4.4339,4.4013,4.3801,4.3794,4.3799,4.4166,4.4991,4.5049,4.522,4.5566,4.5586,4.5586,4.5586,4.5586,4.5586,4.5586,4.5586,4.5586,4.5586,4.5586,4.5586,3.6785,3.651,3.6934,3.7863,4.1161,4.4276,4.4742,4.661,4.8268,4.8275,4.9009,4.9932,5.0855,5.1785,5.2866,5.4257,5.4991,5.5357,5.5357,5.4664,5.3741,5.2624,5.251,5.276,5.3393,5.4605,5.5472,5.5684,5.5703,5.5799,5.6049,5.6069,5.6049,5.6049,5.628,5.6588,5.6992,5.6607,5.6607,5.6973,5.6357,5.5934,5.5703,5.5703,5.5703,5.5703,5.5703,5.5703,5.5703,5.5703,5.5703,5.5703,5.5703,5.5338,5.4645,5.3164,5.2856,5.3145,5.276,5.2876,5.3241,5.3491,5.2972,5.2222,5.1972,5.1664,5.1337,5.1106,5.1202,5.1375,5.1395,5.1395,5.1395,5.1375,5.1395,5.1318,5.1087,5.0529,5.001,4.9798,4.9048,4.8279,4.7701,4.7218,4.6679,4.6046,4.5757,4.5586,4.5586,4.5586,4.5355,4.4741,4.4664,4.4664,4.4664,4.4664,4.4934,4.5547,4.5586,4.5586,4.5586,4.5586,4.5586,4.5586,4.5586,4.5586,4.5586,4.5586,4.5586,4.5586,4.5586,4.5586,3.5239,3.6067,3.7513,4.0819,4.423,4.7217,4.8846,5.0528,5.1742,5.1742,5.178,5.1837,5.1875,5.1894,5.249,5.422,5.4509,5.453,5.4551,5.378,5.2624,5.097,5.0779,5.0779,5.0798,5.3067,5.4855,5.5645,5.5703,5.6088,5.6909,5.695,5.6953,5.6953,5.778,5.7838,5.6992,5.7819,5.7819,5.6992,5.6953,5.6511,5.5703,5.5703,5.5703,5.5703,5.5703,5.5703,5.5703,5.5703,5.5703,5.5703,5.5703,5.5684,5.5549,5.4722,5.3895,5.3318,5.4145,5.3895,5.3337,5.4184,5.3876,5.301,5.2164,5.2472,5.2953,5.2106,5.2472,5.3126,5.3107,5.3107,5.3107,5.3126,5.3128,5.2897,5.205,5.1838,5.1588,5.0818,4.9952,4.9336,4.9317,4.7989,4.6889,4.6852,4.6142,4.5586,4.5586,4.5586,4.5586,4.5547,4.5547,4.5547,4.5547,4.5547,4.5566,4.5586,4.5586,4.5586,4.5586,4.5586,4.5586,4.5586,4.5586,4.5586,4.5586,4.5586,4.5586,4.5586,4.5586,4.5586,3.689,3.938,4.2154,4.3882,4.7304,5.0373,5.0932,5.1953,5.2451,5.1337,5.0144,4.9143,4.8567,4.7991,4.8508,5.139,5.2372,5.3182,5.4337,5.4241,5.301,5.0163,5.0817,5.1068,4.995,5.1625,5.3371,5.4797,5.5407,5.6099,5.695,5.7547,5.7854,5.7857,5.8146,5.8415,5.8665,5.7838,5.7838,5.8646,5.753,5.653,5.5703,5.5703,5.5703,5.5703,5.5703,5.5703,5.5703,5.5703,5.5703,5.5703,5.5703,5.5703,5.5665,5.5395,5.5107,5.4818,5.4587,5.4664,5.4914,5.5203,5.4741,5.401,5.3703,5.3433,5.3145,5.2856,5.2972,5.3203,5.3203,5.3203,5.3203,5.3201,5.3201,5.3124,5.2815,5.2761,5.2666,5.2416,5.1645,5.0895,5.0356,4.9317,4.8374,4.7775,4.6506,4.5586,4.5586,4.5586,4.5586,4.5586,4.5586,4.5586,4.5586,4.5586,4.5586,4.5586,4.5586,4.5586,4.5586,4.5586,4.5586,4.5586,4.5586,4.5586,4.5586,4.5586,4.5586,4.5586,4.5586,4.5586,3.9677,4.2672,4.5618,4.7409,5.0356,5.2838,5.2838,5.3009,5.2623,5.0625,4.8798,4.7108,4.5592,4.4883,4.563,4.9046,5.0102,5.1334,5.3703,5.351,5.2433,5.0509,5.0721,5.0817,5.0353,5.126,5.2604,5.4377,5.5525,5.6541,5.7409,5.8258,5.8742,5.8723,5.9031,5.93,5.9492,5.8742,5.8742,5.9473,5.78,5.6703,5.6145,5.5838,5.5703,5.5703,5.5703,5.5703,5.5703,5.5703,5.5703,5.5703,5.5703,5.5703,5.5703,5.5703,5.5703,5.5626,5.5107,5.5261,5.5703,5.5703,5.5338,5.4876,5.4587,5.4318,5.403,5.376,5.3876,5.4087,5.4087,5.4087,5.4086,5.4086,5.4105,5.4007,5.3716,5.3664,5.357,5.3242,5.2761,5.2087,5.1279,5.0183,4.9106,4.822,4.7182,4.649,4.6506,4.5969,4.5719,4.6026,4.5796,4.5586,4.5586,4.5586,4.5586,4.5586,4.5586,4.5586,4.5586,4.5586,4.5586,4.5586,4.5586,4.5586,4.5586,4.5586,4.5586,4.5586,4.5586,4.5586,4.3369,4.5783,4.7909,5.1214,5.3313,5.4566,5.4528,5.376,5.2318,4.97,4.7722,4.5649,4.3025,4.2604,4.3828,4.7299,4.8009,4.9316,5.278,5.1972,5.1241,5.1835,5.0625,5.0296,5.1761,5.2069,5.2839,5.4439,5.6074,5.7396,5.8308,5.9123,5.955,5.9569,6.0358,6.0396,5.9569,6.0396,6.0339,5.9415,5.7857,5.7069,5.6953,5.6126,5.5742,5.5703,5.5703,5.5703,5.5703,5.5703,5.5703,5.5703,5.5703,5.5703,5.5703,5.5703,5.5703,5.5703,5.5703,5.5703,5.5703,5.5703,5.5703,5.5549,5.478,5.5088,5.553,5.478,5.5107,5.5703,5.5742,5.5722,5.5703,5.5761,5.5722,5.5491,5.4739,5.4566,5.4314,5.3486,5.3294,5.2988,5.2127,5.0606,4.924,4.8433,4.8222,4.8145,4.812,4.6679,4.5988,4.6795,4.6123,4.5586,4.5586,4.5586,4.5586,4.5586,4.5586,4.5586,4.5586,4.5586,4.5586,4.5586,4.5586,4.5586,4.5586,4.5586,4.5586,4.5586,4.5586,4.5586,4.6493,4.9298,5.1926,5.3467,5.4624,5.5241,5.4645,5.2777,5.0449,4.7895,4.4403,4.1227,3.928,3.9471,4.1246,4.5341,4.8202,5.0933,5.3781,5.4878,5.4531,5.2181,5.3201,5.3528,5.2045,5.4199,5.5605,5.5412,5.6393,5.7643,5.9127,5.9992,6.0473,6.0473,6.0685,6.0685,6.0473,6.0685,6.005,5.8607,5.8781,5.8204,5.6973,5.6761,5.6299,5.5703,5.5703,5.5703,5.5703,5.5703,5.5703,5.5703,5.5703,5.5703,5.5703,5.5703,5.5703,5.5703,5.5703,5.5703,5.5703,5.5703,5.5703,5.5665,5.5453,5.553,5.5665,5.5453,5.553,5.5838,5.6492,5.6184,5.5857,5.6511,5.6165,5.5645,5.5453,5.5395,5.5338,5.5105,5.4586,5.3893,5.3013,5.1973,5.1183,5.0972,4.9875,4.8817,4.8178,4.7202,4.6646,4.6872,4.6123,4.5586,4.5586,4.5586,4.5586,4.5586,4.5586,4.5586,4.5586,4.5586,4.5586,4.5586,4.5586,4.5586,4.5586,4.5586,4.5586,4.5586,4.5586,4.5586,4.9683,5.2009,5.3968,5.4816,5.5107,5.4741,5.3164,5.0739,4.7894,4.4576,4.0998,3.808,3.6748,3.7222,3.9203,4.3541,4.6858,5.0066,5.3453,5.4743,5.4876,5.3701,5.4833,5.5292,5.4252,5.6214,5.7505,5.7367,5.7831,5.8504,5.9454,6.0339,6.08,6.08,6.08,6.08,6.08,6.08,6.0319,5.9396,5.9473,5.9011,5.8069,5.7338,5.6934,5.6799,5.603,5.5915,5.6242,5.5857,5.5703,5.5742,5.6107,5.6261,5.6319,5.6703,5.6838,5.6838,5.6838,5.6838,5.678,5.6376,5.6261,5.6338,5.6722,5.6838,5.6838,5.6838,5.6838,5.6953,5.7434,5.7203,5.6953,5.7453,5.6896,5.6261,5.6261,5.5972,5.5703,5.5703,5.5047,5.4336,5.3839,5.2722,5.1914,5.1896,5.0818,4.9798,4.9297,4.7876,4.7031,4.739,4.6333,4.5586,4.5586,4.5586,4.5586,4.5586,4.5586,4.5586,4.5586,4.5586,4.5586,4.5586,4.5586,4.5586,4.5586,4.5586,4.5586,4.5586,4.5586,4.5586,5.2568,5.4087,5.4972,5.5549,5.5011,5.3645,5.1028,4.8144,4.4863,4.0768,3.779,3.5697,3.5057,3.5717,3.7861,4.2353,4.5112,4.8257,5.274,5.3376,5.3991,5.5665,5.5967,5.6348,5.7101,5.8066,5.8873,5.9469,5.9623,5.9681,5.9681,6.0396,6.08,6.08,6.08,6.08,6.08,6.08,6.08,6.0781,6.0031,5.9608,5.9454,5.7992,5.7684,5.8223,5.6703,5.6472,5.7107,5.6357,5.6049,5.6126,5.6876,5.7165,5.7261,5.803,5.83,5.83,5.83,5.83,5.8184,5.7415,5.7165,5.73,5.8069,5.83,5.83,5.83,5.83,5.8319,5.8434,5.8377,5.8338,5.8434,5.78,5.7165,5.7165,5.6472,5.5857,5.5857,5.5201,5.4662,5.4662,5.3332,5.2256,5.2261,5.1549,5.0991,5.0875,4.8741,4.7492,4.8197,4.6756,4.5815,4.593,4.5834,4.5776,4.5776,4.5776,4.5719,4.5586,4.5586,4.5586,4.5586,4.5586,4.5586,4.5586,4.5586,4.5586,4.5586,4.5586,4.5586,5.4107,5.5395,5.6415,5.5838,5.4549,5.274,5.0123,4.586,4.1627,3.867,3.5455,3.3351,3.3921,3.5337,3.8043,4.3138,4.5495,4.8452,5.3567,5.4262,5.4898,5.6588,5.7393,5.7912,5.8046,5.9473,6.0127,5.955,6.0165,6.0569,6.0569,6.0723,6.08,6.08,6.08,6.08,6.08,6.08,6.08,6.08,6.0646,6.0204,5.9492,5.9204,5.88,5.828,5.7992,5.7934,5.8069,5.7915,5.7857,5.7857,5.803,5.8069,5.8088,5.8242,5.83,5.83,5.83,5.83,5.828,5.8127,5.8069,5.8107,5.8261,5.83,5.83,5.83,5.83,5.8454,5.9127,5.88,5.8473,5.9127,5.8665,5.8069,5.8069,5.7398,5.6785,5.6785,5.609,5.5491,5.5491,5.4701,5.4047,5.4034,5.3321,5.2512,5.178,5.0086,4.9029,4.9159,4.7677,4.6947,4.7619,4.7062,4.666,4.666,4.666,4.6352,4.5624,4.5586,4.5586,4.5586,4.5586,4.5586,4.5586,4.5586,4.5586,4.5586,4.5586,4.5586,5.3953,5.5376,5.6684,5.5395,5.3799,5.1375,4.6973,4.3349,3.9811,3.5812,3.3311,3.2234,3.3593,3.4875,3.7137,4.1475,4.3252,4.5892,5.1025,5.1798,5.2954,5.5972,5.7492,5.8473,5.8877,6.005,6.0627,6.0204,6.055,6.08,6.08,6.08,6.08,6.08,6.08,6.08,6.08,6.08,6.08,6.08,6.08,6.0569,6.0165,5.9704,5.9531,5.955,5.8684,5.855,5.8896,5.8473,5.83,5.8338,5.8761,5.8915,5.8973,5.9435,5.9608,5.9608,5.9608,5.9608,5.9608,5.9608,5.93,5.9011,5.9454,5.9608,5.9608,5.9608,5.9608,5.9685,6.0089,5.9896,5.9704,6.0089,5.9531,5.88,5.8396,5.7956,5.7538,5.7093,5.7035,5.6766,5.5857,5.5395,5.4972,5.4571,5.3762,5.3049,5.2624,5.1491,5.0375,4.9489,4.8259,4.7681,4.8062,4.7739,4.751,4.751,4.7526,4.7159,4.6313,4.6294,4.6065,4.5605,4.5586,4.5586,4.5586,4.5586,4.5836,4.626,4.5817,4.6067,5.4107,5.5607,5.6857,5.5184,5.3183,5.0086,4.4211,4.1263,3.8341,3.3339,3.1583,3.1433,3.3035,3.3993,3.5732,3.9425,4.0463,4.2713,4.8161,4.9028,5.074,5.5164,5.7242,5.8684,5.9685,6.0396,6.08,6.08,6.08,6.08,6.08,6.08,6.08,6.08,6.08,6.08,6.08,6.08,6.08,6.08,6.08,6.08,6.0781,6.0089,6.0146,6.0723,5.9415,5.9184,5.9723,5.9108,5.8838,5.8896,5.9531,5.9781,5.9858,6.055,6.08,6.08,6.08,6.08,6.08,6.08,6.0339,5.9915,6.0589,6.08,6.08,6.08,6.08,6.08,6.08,6.08,6.08,6.08,6.0281,5.9608,5.8973,5.8688,5.8344,5.7668,5.7961,5.7807,5.6261,5.5992,5.5703,5.4874,5.418,5.3659,5.3505,5.2874,5.1876,5.0375,4.9106,4.8433,4.8641,4.8491,4.8395,4.8395,4.8393,4.8025,4.7181,4.716,4.6737,4.5911,4.6046,4.6046,4.5873,4.6046,4.6488,4.7125,4.6453,4.6836,5.6242,5.7396,5.7761,5.6011,5.3183,4.9394,4.402,4.0325,3.6752,3.2248,3.0674,3.0402,3.1352,3.2142,3.4074,3.84,3.8435,4.0264,4.7144,4.8065,4.9928,5.5107,5.7242,5.8934,6.0531,6.0742,6.08,6.08,6.08,6.08,6.08,6.08,6.08,6.08,6.08,6.08,6.08,6.08,6.08,6.08,6.08,6.08,6.08,6.0723,6.0723,6.0781,6.0627,6.0608,6.0666,6.0589,6.0569,6.0569,6.0646,6.0685,6.0685,6.0762,6.08,6.08,6.08,6.08,6.08,6.08,6.0742,6.0704,6.0781,6.08,6.08,6.08,6.08,6.08,6.08,6.08,6.08,6.08,6.0742,6.0646,6.0589,5.9931,5.9373,5.9296,5.8726,5.7998,5.7036,5.6874,5.659,5.5722,5.553,5.5201,5.4468,5.4316,5.3895,5.2955,5.0702,4.9606,5.0394,4.974,4.9279,4.9279,4.9279,4.8894,4.803,4.7988,4.7619,4.6795,4.7503,4.7523,4.6775,4.7523,4.7908,4.7985,4.7914,4.7953,5.3586,5.5684,5.7107,5.5395,5.2433,4.8395,4.2603,3.9045,3.5709,3.1303,3.0184,3.0235,3.1089,3.1552,3.2842,3.6027,3.5373,3.6566,4.2546,4.3331,4.5841,5.2605,5.4953,5.7261,6.0492,6.08,6.08,6.08,6.08,6.08,6.08,6.08,6.08,6.08,6.08,6.08,6.08,6.08,6.08,6.08,6.08,6.08,6.08,6.08,6.08,6.08,6.08,6.08,6.08,6.08,6.08,6.08,6.08,6.08,6.08,6.08,6.08,6.08,6.08,6.08,6.08,6.08,6.08,6.08,6.08,6.08,6.08,6.08,6.08,6.08,6.08,6.08,6.08,6.08,6.08,6.08,6.08,6.0531,6.0123,5.9604,5.9665,5.9358,5.802,5.778,5.7499,5.6609,5.6051,5.5588,5.5261,5.4797,5.4374,5.401,5.2607,5.1838,5.2184,5.1395,5.0914,5.0914,5.0452,4.9798,4.8933,4.8894,4.849,4.7645,4.793,4.7948,4.7625,4.7933,4.8375,4.8874,4.8356,4.8664,5.1297,5.3836,5.5645,5.4722,5.1528,4.7146,4.1531,3.7691,3.4189,3.0335,2.9596,2.9801,3.0418,3.0972,3.2041,3.4207,3.3559,3.4444,3.9166,4.0291,4.3025,4.9525,5.2083,5.5009,5.9196,6.0315,6.08,6.08,6.08,6.08,6.08,6.08,6.08,6.08,6.08,6.08,6.08,6.08,6.08,6.08,6.08,6.08,6.08,6.08,6.08,6.08,6.08,6.08,6.08,6.08,6.08,6.08,6.08,6.08,6.08,6.08,6.08,6.08,6.08,6.08,6.08,6.08,6.08,6.08,6.08,6.08,6.08,6.08,6.08,6.08,6.08,6.08,6.08,6.08,6.08,6.08,6.08,6.08,6.0627,5.9988,6.0396,6.0358,5.8908,5.8646,5.8286,5.717,5.6475,5.5994,5.5722,5.5201,5.4855,5.4855,5.43,5.3744,5.3243,5.2646,5.2165,5.1915,5.1356,5.0664,4.9817,4.9779,4.9356,4.851,4.874,4.874,4.8491,4.8741,4.9183,4.9779,4.9144,4.9548,5.0488,5.2506,5.3373,5.428,5.0586,4.5573,4.1189,3.6283,3.1889,2.9266,2.8707,2.8761,2.8898,3.0167,3.1758,3.345,3.3581,3.4695,3.8226,4.0269,4.2676,4.6135,4.8964,5.2274,5.6433,5.9254,6.08,6.08,6.08,6.08,6.08,6.08,6.08,6.08,6.08,6.08,6.08,6.08,6.08,6.08,6.08,6.08,6.08,6.08,6.08,6.08,6.08,6.08,6.08,6.08,6.08,6.08,6.08,6.08,6.08,6.08,6.08,6.08,6.08,6.08,6.08,6.08,6.08,6.08,6.08,6.08,6.08,6.08,6.08,6.08,6.08,6.08,6.08,6.08,6.08,6.08,6.08,6.08,6.08,6.0781,6.0781,6.0531,5.9642,5.9508,5.8912,5.7266,5.6997,5.6689,5.5799,5.5684,5.5684,5.5684,5.5684,5.4989,5.3351,5.3198,5.2815,5.1953,5.1896,5.153,5.0721,5.0683,5.0279,4.9394,5.024,5.026,4.9375,5.026,5.0683,5.0683,5.0683,5.0683,4.4997,4.6359,4.6935,4.6589,4.3962,4.0613,3.7449,3.4556,3.1958,2.9943,2.9561,2.9592,2.9573,3.0098,3.1215,3.3352,3.3658,3.4433,3.6746,4.0078,4.3577,4.7104,5.3464,5.8085,5.9407,6.0296,6.08,6.08,6.08,6.08,6.08,6.08,6.08,6.08,6.08,6.08,6.08,6.08,6.08,6.08,6.08,6.08,6.08,6.08,6.08,6.08,6.08,6.08,6.08,6.08,6.08,6.08,6.08,6.08,6.08,6.08,6.08,6.08,6.08,6.08,6.08,6.08,6.08,6.08,6.08,6.08,6.08,6.08,6.08,6.08,6.08,6.08,6.08,6.08,6.08,6.08,6.08,6.08,6.08,6.08,6.08,6.0704,6.0454,5.9892,5.9335,5.8777,5.7726,5.69,5.6609,5.6071,5.5703,5.5703,5.5703,5.5491,5.4951,5.4391,5.3968,5.3703,5.3128,5.2666,5.2416,5.2416,5.1992,5.1126,5.1376,5.1106,5.0298,5.0567,5.0702,5.0702,5.0702,5.0702,4.0708,4.1818,4.224,4.2297,4.0137,3.7467,3.5474,3.295,3.0734,2.9702,2.9523,2.9551,2.9547,2.9918,3.0767,3.2492,3.3014,3.3791,3.5512,3.8877,4.2887,4.7412,5.4674,5.9292,5.9335,6.0223,6.08,6.08,6.08,6.08,6.08,6.08,6.08,6.08,6.08,6.08,6.08,6.08,6.08,6.08,6.08,6.08,6.08,6.08,6.08,6.08,6.08,6.08,0.0,6.08,6.08,6.08,6.08,6.08,6.08,6.08,6.08,6.08,6.08,6.08,6.08,6.08,6.08,6.08,6.0858,6.0839,6.08,6.08,6.08,6.08,6.08,6.08,6.08,6.08,6.08,6.08,6.08,6.08,6.08,6.08,6.08,6.08,6.08,6.0358,5.9873,5.9565,5.8627,5.7822,5.7516,5.7016,5.6689,5.6689,5.6689,5.6552,5.6225,5.5434,5.4816,5.4507,5.3993,5.3551,5.3204,5.3204,5.2954,5.2395,5.2396,5.2146,5.1645,5.1645,5.1645,5.1645,5.1645,5.1472,0.0,3.8438,3.8802,4.0291,3.8232,3.5607,3.4737,3.15,0.0,2.8847,2.8897,2.8939,2.9063,2.9699,3.0426,3.1181,3.2026,3.3128,3.4678,3.7522,4.1658,4.7656,5.351,5.7071,5.7078,5.9335,6.08,6.08,6.08,6.08,6.08,6.08,6.08,6.08,6.08,6.08,6.08,6.08,6.08,6.08,6.08,6.08,6.08,6.08,6.08,6.08,6.08,6.08,6.08,6.08,6.08,6.08,6.08,6.08,6.08,6.08,6.08,6.08,6.08,6.08,6.08,6.08,6.08,6.0839,6.0954,6.0896,6.08,6.08,6.08,6.08,6.08,6.08,6.08,6.08,6.08,6.08,6.08,6.08,6.08,6.08,6.08,6.08,6.08,6.08,6.0531,5.9719,5.9523,5.9242,5.8481,5.8327,5.8289,5.8289,5.8289,5.7981,5.717,5.6302,5.5453,5.4643,5.4605,5.4218,5.3409,5.339,5.3351,5.3294,5.3223,5.3186,5.3186,5.3186,5.3186,5.3186,5.3186,5.2781,3.2667,0.0,3.2968,3.2686,3.197,3.1276,0.0,3.0256,2.9593,2.9631,2.9728,2.9813,2.983,3.0046,3.0663,3.2048,3.3519,3.4788,3.5723,4.2103,4.8168,5.2321,5.6979,5.9604,5.895,6.005,6.08,6.08,6.08,6.08,6.08,6.08,6.08,6.08,6.08,6.08,6.08,6.08,6.08,6.08,6.08,6.08,6.08,6.08,6.08,6.08,6.08,6.08,6.08,6.08,6.08,6.08,6.08,6.08,6.08,6.08,6.08,6.08,6.08,6.08,6.08,6.08,6.0858,6.0954,6.0973,6.0896,6.0819,6.0916,6.0877,6.08,6.08,6.08,6.08,6.08,6.08,6.08,6.08,6.08,6.08,6.08,6.08,6.08,6.08,6.08,6.0723,6.0531,5.9931,5.9431,5.9242,5.8681,5.8293,5.8293,5.8293,5.8216,5.8004,5.7203,5.6321,5.5472,5.5434,5.5338,5.5105,5.5105,5.4816,5.4218,5.3546,5.32,5.32,5.32,5.32,5.32,5.32,5.3084,3.0003,3.0354,3.0478,2.9973,2.9789,2.9754,2.9754,2.9808,2.9863,2.9937,3.0064,3.0152,3.0158,3.0235,3.0682,3.1895,3.3846,3.6264,3.9338,4.5529,5.0881,5.3935,5.777,6.0185,6.0108,6.0512,6.08,6.08,6.08,6.08,6.08,6.08,6.08,6.08,6.08,6.08,6.08,6.08,6.08,6.08,6.08,6.08,6.08,6.08,6.08,6.08,6.08,6.08,6.08,6.08,6.08,6.08,6.08,6.08,6.08,6.08,6.08,6.08,6.08,6.08,6.08,6.08,6.0839,6.0935,6.1093,6.0982,6.0823,6.0957,6.0896,6.08,6.08,6.08,6.08,6.08,6.08,6.08,6.08,6.08,6.08,6.08,6.08,6.08,6.08,6.08,6.08,6.08,6.0416,6.0104,6.0104,5.9719,5.9446,5.9446,5.9446,5.9138,5.8366,5.7851,5.7396,5.692,5.6148,5.5876,5.6282,5.5895,5.5511,5.5047,5.4605,5.4353,5.4353,5.4353,5.4353,5.4353,5.4353,5.4161,2.8726,2.938,3.0011,2.9827,2.9754,2.9699,2.9699,2.9755,2.9829,2.9976,3.0098,3.0232,3.0393,3.0725,3.1219,3.1985,3.4657,3.8586,4.4188,4.8618,5.2077,5.4223,5.7578,5.9935,6.0531,6.0723,6.08,6.08,6.08,6.08,6.08,6.08,6.08,6.08,6.08,6.08,6.08,6.08,6.08,6.08,6.08,6.08,6.08,6.08,6.08,6.08,6.08,6.08,6.08,6.08,6.08,6.08,6.08,6.08,6.08,6.08,6.08,6.08,6.08,6.08,6.08,6.08,6.08,6.0877,6.1208,6.1078,6.0861,6.1002,6.0916,6.08,6.08,6.08,6.08,6.08,6.08,6.08,6.08,6.08,6.08,6.08,6.08,6.08,6.08,6.08,6.08,6.08,6.08,6.08,6.08,6.08,6.08,6.08,6.08,6.0219,5.8788,5.8562,5.855,5.8676,5.6823,5.6032,5.6785,5.6225,5.5838,5.5703,5.5703,5.5703,5.5703,5.5703,5.5703,5.5703,5.5703,5.5338,2.8711,2.9744,3.0638,2.9905,2.9719,2.9701,2.9699,2.9717,2.9771,2.995,3.0048,3.0376,3.122,3.2564,3.3799,3.4663,3.9265,4.4307,4.8807,5.2532,5.4956,5.5359,5.8485,6.0358,5.9762,6.0358,6.08,6.08,6.08,6.08,6.08,6.08,6.08,6.08,6.08,6.08,6.08,6.08,6.08,6.08,6.08,6.08,6.08,6.08,6.08,6.08,6.08,6.08,6.08,6.08,6.08,6.08,6.08,6.08,6.08,6.08,6.08,6.08,6.08,6.08,6.08,6.08,6.0877,6.0993,6.1228,6.1136,6.1017,6.1196,6.1012,6.08,6.08,6.08,6.08,6.08,6.08,6.08,6.08,6.08,6.08,6.08,6.08,6.08,6.08,6.08,6.08,6.08,6.08,6.08,6.08,6.08,6.08,6.08,6.08,6.0704,6.0454,5.973,5.9642,6.0357,5.7461,5.5761,5.5876,5.6475,5.6436,5.5703,5.5703,5.5703,5.5703,5.5703,5.5703,5.5703,5.5703,5.5626,2.8534,2.9448,3.045,3.0996,3.0753,3.0246,2.9812,2.97,2.9756,2.9899,3.0032,3.0528,3.1941,3.3632,3.6315,4.0861,4.5013,4.8817,5.2137,5.437,5.5983,5.6944,5.8854,6.0127,6.0204,6.055,6.08,6.08,6.08,6.08,6.08,6.08,6.08,6.08,6.08,6.08,6.08,6.08,6.08,6.08,6.08,6.08,6.08,6.08,6.08,6.08,6.08,6.08,6.08,6.08,6.08,6.08,6.08,6.08,6.08,6.08,6.08,6.08,6.08,6.08,6.08,6.08,6.0877,6.1031,6.1247,6.1156,6.1037,6.1234,6.105,6.08,6.08,6.08,6.08,6.08,6.08,6.08,6.08,6.08,6.08,6.08,6.08,6.08,6.08,6.08,6.08,6.08,6.08,6.08,6.08,6.08,6.08,6.08,6.08,6.0608,6.0142,5.9746,5.9477,5.9438,5.8377,5.7566,5.712,5.7492,5.7514,5.7107,5.6648,5.6398,5.6398,5.6415,5.6393,5.6393,5.6395,5.6398,2.8428,2.9283,3.0282,3.1449,3.1186,3.0772,3.1183,3.1109,3.1109,3.1653,3.1979,3.2558,3.3705,3.5867,3.9679,4.6376,4.9952,5.276,5.5299,5.6376,5.7396,5.8723,5.9435,5.9992,6.0454,6.0685,6.0723,6.0512,6.0685,6.08,6.08,6.08,6.08,6.08,6.08,6.08,6.08,6.08,6.08,6.08,6.08,6.08,6.08,6.08,6.08,6.08,6.08,6.08,6.08,6.08,6.08,6.08,6.08,6.08,6.08,6.08,6.08,6.08,6.08,6.08,6.08,6.08,6.0877,6.1042,6.1234,6.115,6.1037,6.1234,6.105,6.08,6.08,6.08,6.08,6.08,6.08,6.08,6.08,6.08,6.08,6.08,6.08,6.08,6.08,6.08,6.08,6.08,6.08,6.08,6.08,6.08,6.08,6.08,6.08,6.0531,5.9854,5.9796,5.9523,5.8927,5.9446,5.9331,5.835,5.8489,5.8492,5.83,5.7627,5.7302,5.7283,5.7297,5.7293,5.7313,5.73,5.7302,2.8582,2.9735,3.0735,2.9983,2.9888,3.1008,3.4997,3.528,3.5185,3.6879,3.7885,3.8259,3.7648,4.0888,4.4861,4.8529,5.2624,5.6222,5.8781,5.9896,6.0473,6.0608,6.0666,6.0416,5.9665,6.0319,6.0454,5.9646,6.0339,6.08,6.08,6.08,6.08,6.08,6.08,6.08,6.08,6.08,6.08,6.08,6.08,6.08,6.08,6.08,6.08,6.08,6.08,6.08,6.08,6.08,6.08,6.08,6.08,6.08,6.08,6.08,6.08,6.08,6.08,6.08,6.08,6.08,6.0877,6.1058,6.1244,6.1151,6.1037,6.1234,6.105,6.08,6.08,6.08,6.08,6.08,6.08,6.08,6.08,6.08,6.08,6.08,6.08,6.08,6.08,6.08,6.08,6.08,6.08,6.08,6.08,6.08,6.08,6.08,6.08,6.0762,6.0704,6.0704,6.0685,6.0627,6.0666,5.9973,5.8377,5.9027,5.9065,5.8316,5.8235,5.8216,5.8204,5.8223,5.8219,5.8212,5.8212,5.8197,2.9151,3.0921,3.2562,3.2294,3.2651,3.3466,3.5059,3.5932,3.6824,3.8252,3.9679,4.0916,4.1726,4.4934,4.8395,5.1259,5.4434,5.7203,5.9223,5.9358,5.9435,5.9935,5.9992,5.9665,5.8838,5.9992,6.0223,5.8858,6.0012,6.0339,5.93,6.0223,6.055,6.0012,6.0512,6.08,6.08,6.08,6.0531,5.9988,5.9992,6.0281,6.0781,6.0238,6.0277,6.08,6.08,6.08,6.08,6.08,6.08,6.08,6.08,6.08,6.08,6.08,6.08,6.08,6.08,6.08,6.08,6.0896,6.1031,6.1213,6.1388,6.1308,6.1193,6.1273,6.105,6.08,6.08,6.08,6.08,6.08,6.08,6.08,6.08,6.08,6.08,6.08,6.08,6.08,6.08,6.08,6.08,6.08,6.08,6.08,6.08,6.08,6.08,6.08,6.08,6.08,6.08,6.08,6.08,6.08,6.08,6.0512,5.9877,6.0165,6.0185,5.9858,5.9315,5.9046,5.905,5.905,5.9046,5.9065,5.9065,5.9046,2.9189,3.0862,3.2578,3.3196,3.4146,3.542,3.7141,3.7593,3.8378,4.0882,4.2603,4.394,4.4913,4.7451,5.0048,5.2048,5.4991,5.7492,5.8915,5.8646,5.8511,5.9069,5.9127,5.88,5.7973,5.9184,5.9415,5.7992,5.9204,5.9511,5.8357,5.9396,5.9742,5.9146,5.9954,6.0262,6.0012,6.0262,5.9973,5.9123,5.8838,5.9184,5.9988,5.9392,5.945,6.0012,6.0281,6.0238,6.0046,6.0589,6.08,6.08,6.08,6.08,6.08,6.08,6.08,6.08,6.08,6.08,6.0819,6.0954,6.1137,6.1322,6.1408,6.1367,6.1291,6.1215,6.0993,6.08,6.08,6.08,6.08,6.08,6.08,6.08,6.08,6.08,6.08,6.08,6.08,6.08,6.08,6.08,6.08,6.08,6.08,6.08,6.08,6.08,6.08,6.08,6.08,6.08,6.08,6.08,6.08,6.08,6.08,6.08,6.08,6.08,6.08,6.08,6.0204,5.9915,5.9915,5.9915,5.9915,5.9915,5.9915,5.9915,2.8612,2.9269,3.0324,3.1919,3.3658,3.6424,4.2096,4.0994,4.0231,4.5491,4.7415,4.7874,4.6972,4.8241,4.9681,5.0489,5.4201,5.728,5.8165,5.828,5.828,5.83,5.83,5.7953,5.7069,5.778,5.7934,5.7049,5.78,5.83,5.828,5.83,5.83,5.83,5.9069,5.9108,5.8319,5.9088,5.9088,5.828,5.7415,5.745,5.8308,5.8274,5.8277,5.8338,5.9142,5.9042,5.8423,6.0104,6.0781,6.08,6.08,6.08,6.08,6.08,6.08,6.08,6.08,6.08,6.0819,6.0954,6.1143,6.1308,6.1308,6.1308,6.1268,6.106,6.0896,6.08,6.08,6.08,6.08,6.08,6.08,6.08,6.08,6.08,6.08,6.08,6.08,6.08,6.08,6.08,6.08,6.08,6.08,6.08,6.08,6.08,6.08,6.08,6.08,6.08,6.08,6.08,6.08,6.08,6.08,6.08,6.08,6.08,6.08,6.08,6.08,6.08,6.08,6.08,6.08,6.08,6.08,6.08,2.9288,3.0827,3.2766,3.3864,3.6292,3.9218,4.2292,4.2117,4.2131,4.5077,4.8386,5.0162,4.8107,4.9606,5.1452,5.2278,5.401,5.5742,5.7165,5.6857,5.6703,5.73,5.7376,5.703,5.6165,5.7434,5.7684,5.6203,5.7453,5.7761,5.653,5.7627,5.803,5.7396,5.8204,5.855,5.83,5.855,5.8242,5.7396,5.7126,5.7453,5.828,5.7668,5.7728,5.8327,5.8537,5.8511,5.8385,5.9446,6.0238,6.08,6.08,6.08,6.08,6.08,6.08,6.08,6.08,6.08,6.0819,6.0954,6.1143,6.1308,6.1308,6.1307,6.1266,6.1068,6.0896,6.08,6.08,6.08,6.08,6.08,6.08,6.08,6.08,6.08,6.08,6.08,6.08,6.08,6.08,6.08,6.08,6.08,6.08,6.08,6.08,6.08,6.08,6.08,6.08,6.08,6.08,6.08,6.08,6.08,6.08,6.08,6.08,6.08,6.08,6.08,6.08,6.08,6.08,6.08,6.08,6.08,6.08,6.08,2.9529,3.16,3.4073,3.6061,3.8766,4.1527,4.3847,4.522,4.6374,4.7594,5.055,5.2468,5.0931,5.1625,5.2587,5.3106,5.4203,5.5222,5.5895,5.5818,5.5876,5.6415,5.6472,5.628,5.5742,5.6646,5.6838,5.578,5.6665,5.6799,5.5761,5.6703,5.703,5.6492,5.7319,5.7627,5.7261,5.7607,5.7357,5.6492,5.6492,5.6761,5.7244,5.6725,5.6785,5.7266,5.7266,5.7649,5.8296,5.8446,5.9215,6.0277,6.0277,6.0512,6.08,6.08,6.08,6.08,6.08,6.08,6.0819,6.0954,6.109,6.1175,6.1186,6.1187,6.1151,6.0954,6.0858,6.08,6.08,6.08,6.08,6.08,6.08,6.08,6.08,6.08,6.08,6.08,6.08,6.08,6.08,6.08,6.08,6.08,6.08,6.08,6.08,6.08,6.08,6.08,6.08,6.08,6.08,6.08,6.08,6.08,6.08,6.08,6.08,6.08,6.08,6.08,6.08,6.08,6.08,6.08,6.08,6.08,6.08,6.08,2.9512,3.1727,3.4527,3.8322,4.1285,4.3939,4.6568,4.9616,5.1737,5.1319,5.3111,5.4607,5.4218,5.3682,5.3299,5.3222,5.4472,5.5241,5.4587,5.5049,5.5491,5.5568,5.5511,5.5472,5.5472,5.553,5.5549,5.5472,5.5607,5.5626,5.5472,5.5607,5.5665,5.5588,5.6415,5.6492,5.5703,5.6492,5.6472,5.5703,5.5703,5.5665,5.5588,5.5665,5.5703,5.5703,5.5703,5.6629,5.8115,5.7332,5.7943,5.9392,5.9388,5.9873,6.0589,6.0646,6.0646,6.0589,6.0742,6.0742,6.0704,6.0916,6.0973,6.0999,6.0984,6.0986,6.0954,6.0839,6.08,6.08,6.08,6.08,6.08,6.08,6.08,6.08,6.08,6.08,6.08,6.08,6.08,6.08,6.08,6.0858,6.0916,6.0916,6.0858,6.0819,6.0819,6.0819,6.08,6.08,6.08,6.08,6.08,6.08,6.08,6.08,6.08,6.08,6.08,6.08,6.08,6.08,6.08,6.08,6.08,6.08,6.08,6.08,6.08,6.08,3.0015,3.1995,3.4774,3.9425,4.4801,4.9259,5.0509,5.2392,5.2696,4.8551,5.2365,5.5415,5.2064,5.297,5.3991,5.3318,5.351,5.3914,5.4434,5.4068,5.3991,5.4684,5.4145,5.3741,5.3741,5.4357,5.4472,5.3799,5.4953,5.5126,5.3818,5.4991,5.5415,5.478,5.5549,5.5876,5.5703,5.5876,5.5876,5.5703,5.5703,5.5357,5.4782,5.5395,5.5703,5.5703,5.5703,5.6302,5.7266,5.7071,5.761,5.8556,5.8566,5.8654,5.8927,5.9565,5.9369,5.9042,6.0358,6.0358,5.9892,6.0608,6.0896,6.0962,6.0867,6.0922,6.0954,6.0839,6.08,6.08,6.08,6.08,6.08,6.08,6.08,6.08,6.08,6.08,6.08,6.08,6.08,6.08,6.08,6.1381,6.1843,6.1963,6.1401,6.0954,6.0954,6.0954,6.0916,6.08,6.08,6.08,6.08,6.08,6.08,6.08,6.08,6.08,6.08,6.08,6.08,6.08,6.08,6.08,6.08,6.08,6.08,6.08,6.08,6.08,3.019,3.277,3.635,4.2595,4.7463,5.0894,5.1722,5.3242,5.3586,5.0423,5.3272,5.559,5.2951,5.3568,5.409,5.2799,5.2933,5.3222,5.326,5.3222,5.3376,5.3818,5.3491,5.3203,5.3203,5.3606,5.3683,5.3241,5.401,5.4126,5.326,5.403,5.4318,5.3895,5.428,5.4491,5.4491,5.4491,5.4491,5.4491,5.4491,5.4491,5.4491,5.4934,5.5124,5.5143,5.553,5.5974,5.6379,5.6379,5.69,5.7692,5.7684,5.7934,5.8338,5.8784,5.8662,5.8481,5.9727,5.9881,5.9642,6.0531,6.0839,6.0877,6.0819,6.0839,6.0877,6.0819,6.08,6.08,6.08,6.08,6.08,6.08,6.08,6.08,6.08,6.08,6.08,6.08,6.08,6.08,6.08,6.1238,6.1603,6.167,6.1361,6.111,6.1012,6.1002,6.0935,6.08,6.08,6.08,6.08,6.08,6.08,6.08,6.08,6.08,6.08,6.08,6.08,6.08,6.08,6.08,6.08,6.08,6.08,6.08,6.08,6.08,2.9695,3.3564,3.8378,4.5258,4.8733,5.0664,5.1318,5.282,5.3858,5.3121,5.4314,5.5203,5.4243,5.4051,5.3512,5.1952,5.2299,5.2568,5.1991,5.2414,5.2818,5.2972,5.2856,5.2779,5.2779,5.2895,5.2914,5.2779,5.3049,5.3068,5.2779,5.3049,5.3126,5.2991,5.3126,5.3203,5.3203,5.3203,5.3203,5.3203,5.3049,5.3337,5.4049,5.4047,5.4297,5.4739,5.5415,5.5703,5.5703,5.5703,5.6128,5.6785,5.6785,5.7208,5.7865,5.8019,5.7976,5.7985,5.8963,5.9287,5.9427,6.0319,6.0685,6.08,6.08,6.08,6.08,6.08,6.08,6.08,6.08,6.08,6.08,6.08,6.08,6.08,6.08,6.08,6.08,6.08,6.08,6.0839,6.0993,6.0998,6.1046,6.1234,6.1311,6.1269,6.1074,6.1045,6.0973,6.0819,6.08,6.08,6.08,6.0935,6.1012,6.1012,6.1012,6.1012,6.1012,6.0877,6.08,6.08,6.08,6.08,6.08,6.08,6.08,6.08,6.08,6.08,2.7857,3.3698,4.0125,4.3554,4.6991,4.9606,4.9702,5.1049,5.2222,5.2101,5.3447,5.4161,5.2546,5.2241,5.1934,5.101,5.0952,5.1241,5.1818,5.1395,5.1279,5.1991,5.1452,5.1029,5.1029,5.1664,5.1779,5.1087,5.2375,5.2568,5.1106,5.2414,5.2856,5.2106,5.2818,5.3203,5.3203,5.3203,5.3203,5.3184,5.2435,5.2127,5.2261,5.2241,5.3453,5.5549,5.5645,5.5703,5.5703,5.5703,5.5761,5.5857,5.5857,5.5955,5.6148,5.69,5.6706,5.628,5.7904,5.8457,5.8577,5.9407,6.0181,6.08,6.08,6.08,6.08,6.08,6.08,6.08,6.08,6.08,6.08,6.08,6.08,6.08,6.08,6.08,6.08,6.08,6.08,6.1031,6.1786,6.1396,6.1311,6.2159,6.1832,6.1426,6.1289,6.1258,6.1151,6.0819,6.08,6.08,6.08,6.1493,6.1916,6.1916,6.1916,6.1916,6.1916,6.1204,6.08,6.08,6.08,6.08,6.08,6.08,6.08,6.08,6.08,6.08,2.9908,3.426,3.8753,4.3217,4.5337,4.6799,4.8683,5.0221,5.1241,5.122,5.1855,5.2279,5.1972,5.1895,5.1645,5.0837,5.0702,5.0818,5.1183,5.0914,5.0818,5.1183,5.0914,5.0702,5.0702,5.101,5.0875,5.0029,5.1106,5.1048,4.9336,5.0875,5.1395,5.0529,5.1337,5.1798,5.1798,5.1798,5.1798,5.1799,5.1414,5.1453,5.1914,5.1895,5.2778,5.4334,5.4816,5.528,5.5703,5.5703,5.5703,5.5703,5.5703,5.5703,5.5742,5.6128,5.6032,5.5876,5.7131,5.7901,5.8415,5.9238,6.0084,6.08,6.08,6.08,6.08,6.08,6.08,6.08,6.08,6.08,6.08,6.08,6.08,6.08,6.08,6.08,6.08,6.08,6.08,6.1089,6.1944,6.1589,6.1483,6.2373,6.1939,6.1452,6.1326,6.12,6.1031,6.0819,6.08,6.08,6.08,6.1146,6.1358,6.1358,6.1358,6.1358,6.1358,6.1454,6.13,6.08,6.08,6.08,6.08,6.08,6.08,6.08,6.08,6.08,3.0658,3.3356,3.596,4.1136,4.2829,4.4001,4.6954,4.8664,4.9683,4.999,5.0048,5.0221,5.0818,5.0933,5.0818,5.0433,5.0183,5.0048,5.0029,5.0221,5.0279,5.0067,5.0221,5.0279,5.0048,5.0029,4.976,4.9125,4.9663,4.9471,4.8182,4.9336,4.974,4.9086,4.9913,5.0356,5.0356,5.0587,5.0587,5.0356,5.0587,5.101,5.1606,5.1606,5.2067,5.2929,5.4026,5.4836,5.5415,5.5626,5.5703,5.5703,5.5703,5.5703,5.5703,5.5703,5.5703,5.578,5.6436,5.7382,5.8404,5.8989,5.9911,6.08,6.08,6.08,6.08,6.08,6.08,6.08,6.08,6.08,6.08,6.08,6.08,6.08,6.08,6.08,6.08,6.08,6.0993,6.1329,6.1991,6.2021,6.2064,6.2432,6.2121,6.1698,6.1354,6.112,6.0935,6.08,6.08,6.08,6.08,6.1185,6.1358,6.1127,6.132,6.1435,6.1435,6.1858,6.1781,6.1127,6.1127,6.1127,6.1127,6.1127,6.1127,6.1127,6.1127,6.1012,2.7555,2.9736,3.2051,3.5335,3.8775,4.1827,4.3729,4.5438,4.6935,4.801,4.8241,4.8241,4.8275,4.8298,4.8548,4.9336,4.8779,4.8241,4.824,4.8952,4.9163,4.8336,4.8952,4.9144,4.8317,4.824,4.8221,4.8182,4.8221,4.8202,4.8105,4.8202,4.8221,4.8182,4.9009,4.9471,4.9471,5.0279,5.0279,4.9471,5.0298,5.0721,5.076,5.076,5.1202,5.2048,5.3759,5.4507,5.4624,5.5395,5.5703,5.5703,5.5703,5.5703,5.5703,5.5703,5.5703,5.5703,5.5742,5.6881,5.8308,5.835,5.9465,6.08,6.08,6.08,6.08,6.08,6.08,6.08,6.08,6.08,6.08,6.08,6.08,6.08,6.08,6.08,6.08,6.08,6.1483,6.2068,6.2081,6.2977,6.34,6.2625,6.2627,6.239,6.1434,6.1116,6.0935,6.08,6.08,6.08,6.08,6.2262,6.2839,6.207,6.2743,6.3166,6.3166,6.2474,6.207,6.2031,6.2031,6.2031,6.2031,6.2031,6.2031,6.2031,6.2031,6.1589,2.835,2.9709,3.1336,3.4567,3.6876,3.8936,4.1148,4.3683,4.5839,4.6818,4.7182,4.7489,4.8004,4.8105,4.8203,4.8508,4.8296,4.8105,4.8105,4.8355,4.8452,4.8144,4.8375,4.8432,4.8125,4.8105,4.7894,4.7375,4.7817,4.7625,4.6547,4.7528,4.7855,4.7355,4.8125,4.8567,4.8567,4.8875,4.8875,4.8586,4.9452,4.9875,4.9875,5.0433,5.0856,5.1183,5.2336,5.347,5.4568,5.5376,5.5703,5.5703,5.5703,5.5703,5.5703,5.5703,5.5703,5.5703,5.5703,5.6475,5.7555,5.8127,5.9065,6.0065,6.0627,6.08,6.08,6.08,6.08,6.08,6.08,6.08,6.08,6.08,6.08,6.08,6.08,6.08,6.0954,6.1535,6.1877,6.243,6.352,6.3284,6.3044,6.3292,6.2491,6.1713,6.135,6.1031,6.0839,6.08,6.08,6.08,6.08,6.1858,6.2397,6.2108,6.2858,6.3301,6.3301,6.3551,6.3435,6.2878,6.3974,6.3724,6.2089,6.2089,6.2358,6.2878,6.2878,6.2704,2.7867,2.889,3.0283,3.2995,3.4581,3.6218,3.901,4.1268,4.3254,4.4806,4.5378,4.5873,4.6679,4.7067,4.7356,4.764,4.7449,4.7258,4.7258,4.7508,4.7604,4.7298,4.7528,4.7586,4.7298,4.7259,4.7048,4.6509,4.6951,4.6759,4.5663,4.6663,4.7144,4.6913,4.7432,4.7702,4.7702,4.7971,4.7971,4.7721,4.8567,4.9125,4.9413,4.999,5.0414,5.0741,5.1548,5.2568,5.3703,5.4838,5.5299,5.5318,5.5588,5.5703,5.5703,5.5703,5.5703,5.5703,5.5703,5.6263,5.7151,5.8014,5.8838,5.9661,6.055,6.08,6.08,6.08,6.08,6.08,6.08,6.08,6.08,6.08,6.08,6.08,6.08,6.08,6.0954,6.1555,6.1901,6.2531,6.393,6.3444,6.3084,6.3705,6.2624,6.1632,6.1337,6.1031,6.0839,6.08,6.08,6.0916,6.1204,6.2012,6.2493,6.2493,6.3281,6.3743,6.3743,6.4301,6.4339,6.3762,6.4878,6.4628,6.2935,6.2935,6.3205,6.3743,6.3743,6.3743,0.0,0.0,0.0,3.0154,3.1718,3.3777,3.7169,3.8131,3.9078,4.1888,4.2738,4.3248,4.4032,4.4895,4.5757,4.6602,4.6084,4.5586,4.5586,4.6333,4.6544,4.5699,4.6355,4.6528,4.5682,4.5586,4.5586,4.5586,4.5586,4.5586,4.5586,4.5586,4.599,4.6836,4.6855,4.6855,4.6855,4.7644,4.7625,4.6874,4.7682,4.8509,4.9336,4.9375,4.9856,5.0702,5.151,5.1875,5.201,5.3741,5.4472,5.4587,5.5357,5.5684,5.5703,5.5703,5.5703,5.5703,5.5703,5.6244,5.7112,5.8,5.8822,5.9642,6.0531,6.08,6.08,6.08,6.08,6.08,6.08,6.08,6.08,6.08,6.08,6.08,6.08,6.08,6.08,6.0819,6.1527,6.2392,6.3185,6.3463,6.363,6.3745,6.3086,6.2251,6.1425,6.1135,6.0935,6.0819,6.08,6.1146,6.2031,6.2839,6.332,6.3339,6.4166,6.4647,6.4647,6.4647,6.4647,6.4647,6.4647,6.4647,6.4647,6.4609,6.4609,6.4647,6.4647,6.4647,2.5794,0.0,0.0,0.0,0.0,0.0,3.3924,3.6136,3.8247,3.9094,3.997,4.0711,4.1184,4.1984,4.2708,4.3137,4.4545,4.5586,4.5586,4.5815,4.5873,4.5624,4.5797,4.5855,4.5605,4.5586,4.5586,4.5586,4.5586,4.5586,4.5586,4.5586,4.5701,4.5951,4.5951,4.5951,4.5951,4.6182,4.6182,4.597,4.6817,4.7355,4.7625,4.8856,4.9529,4.9798,5.0664,5.1029,5.1164,5.2856,5.3933,5.4511,5.4739,5.5182,5.5703,5.5703,5.5703,5.5703,5.5703,5.5857,5.6302,5.7807,5.8457,5.8908,6.0377,6.08,6.08,6.08,6.08,6.08,6.08,6.08,6.08,6.08,6.08,6.08,6.08,6.08,6.0973,6.1612,6.2406,6.3041,6.3253,6.3474,6.3418,6.2913,6.216,6.1617,6.1465,6.1181,6.0973,6.0935,6.0858,6.1146,6.2031,6.2839,6.357,6.4205,6.5051,6.5532,6.5532,6.5532,6.5532,6.5532,6.5532,6.5532,6.5532,6.4916,6.4916,6.5532,6.5532,6.5532,2.5475,2.6674,2.8125,2.8025,0.0,0.0,3.2974,3.4814,3.6428,3.6883,3.8384,3.9558,3.9452,4.0668,4.1668,4.1597,4.3137,4.4523,4.4987,4.5372,4.5586,4.5586,4.5586,4.5586,4.5586,4.5586,4.5586,4.5586,4.5586,4.5586,4.5586,4.5586,4.5586,4.5586,4.5586,4.5586,4.5586,4.5586,4.5586,4.5605,4.6105,4.6547,4.6932,4.7913,4.8548,4.8913,4.9779,5.0164,5.026,5.1606,5.2876,5.3991,5.4355,5.4991,5.5703,5.5703,5.5703,5.5703,5.5703,5.5703,5.5915,5.7305,5.7992,5.8539,5.9854,6.0512,6.08,6.08,6.08,6.08,6.08,6.08,6.08,6.08,6.08,6.08,6.08,6.08,6.0935,6.1458,6.1944,6.2367,6.2756,6.2589,6.2425,6.2406,6.1781,6.1328,6.1406,6.1245,6.1099,6.102,6.1204,6.1685,6.2531,6.3358,6.4205,6.5089,6.5609,6.5897,6.5897,6.5897,6.5897,6.5897,6.5897,6.5897,6.5897,6.5397,6.5397,6.5897,6.5897,6.5897,2.5005,2.6244,2.8035,2.7916,2.9049,0.0,3.3068,3.3704,3.408,3.5179,3.7146,3.8568,3.8206,3.9814,4.108,4.0729,4.1505,4.2591,4.3849,4.4776,4.5316,4.5316,4.5316,4.5316,4.5316,4.5393,4.5451,4.5451,4.5547,4.5586,4.5586,4.5586,4.5586,4.5586,4.5586,4.5586,4.5586,4.5586,4.5586,4.5586,4.5586,4.6009,4.6759,4.6855,4.7298,4.8009,4.8875,4.9317,4.9452,5.024,5.1529,5.3145,5.401,5.4857,5.5568,5.5665,5.5703,5.5703,5.5703,5.5703,5.5857,5.6843,5.7665,5.8485,5.9369,6.0181,6.08,6.08,6.08,6.08,6.08,6.08,6.08,6.08,6.08,6.08,6.08,6.08,6.08,6.08,6.0877,6.117,6.1824,6.1401,6.1228,6.204,6.167,6.134,6.1445,6.1361,6.1313,6.1312,6.1762,6.2454,6.3378,6.4147,6.4974,6.584,6.5897,6.5897,6.5897,6.5897,6.5897,6.5897,6.5897,6.5897,6.5897,6.5897,6.5897,6.5897,6.5897,6.5897,2.5107,2.5957,2.727,2.7138,2.8264,0.0,3.0775,3.1458,3.2265,3.376,3.3419,3.3445,3.5468,3.5697,3.5845,3.6597,3.8204,4.0063,4.2017,4.3044,4.3585,4.3585,4.359,4.3592,4.3592,4.4166,4.4549,4.4549,4.5201,4.5586,4.5586,4.5586,4.5586,4.5586,4.5586,4.5586,4.5586,4.5586,4.5586,4.5586,4.5586,4.5682,4.5874,4.6586,4.699,4.7182,4.8009,4.8759,4.9413,4.9586,5.0644,5.2241,5.3106,5.3972,5.4799,5.5453,5.5703,5.5703,5.5703,5.5703,5.5974,5.7538,5.8154,5.8575,6.0089,6.0666,6.08,6.08,6.08,6.08,6.08,6.08,6.08,6.08,6.08,6.08,6.08,6.08,6.08,6.08,6.1381,6.167,6.1151,6.1497,6.1709,6.1324,6.1269,6.1594,6.2398,6.1797,6.1803,6.3103,6.2551,6.2704,6.4224,6.4493,6.4974,6.584,6.5897,6.5897,6.5897,6.5897,6.5897,6.5897,6.5897,6.5897,6.5897,6.5897,6.5897,6.5897,6.5897,6.5897,2.5709,2.5879,2.6505,2.6804,2.7747,0.0,0.0,3.093,3.1641,3.2525,3.2588,3.2818,3.3768,3.4237,3.459,3.4844,3.6143,3.752,3.8693,4.055,4.1805,4.1807,4.1805,4.1956,4.2415,4.2816,4.3412,4.4243,4.4338,4.472,4.5547,4.5182,4.5143,4.5586,4.5586,4.5586,4.5586,4.5586,4.5586,4.5586,4.5586,4.5586,4.5605,4.6047,4.624,4.6317,4.7567,4.8355,4.8817,4.9683,5.0529,5.1433,5.2702,5.3722,5.4607,5.5395,5.5703,5.5703,5.5703,5.5703,5.5838,5.6727,5.7591,5.8454,5.9296,6.0142,6.08,6.08,6.08,6.08,6.08,6.08,6.08,6.08,6.08,6.08,6.08,6.08,6.08,6.08,6.1151,6.1324,6.0877,6.117,6.1343,6.0954,6.1131,6.1444,6.1856,6.19,6.2191,6.2968,6.3224,6.3685,6.4532,6.4993,6.5436,6.5859,6.5897,6.5897,6.5897,6.5897,6.5897,6.5897,6.5897,6.5897,6.5897,6.5897,6.5897,6.5897,6.5897,6.5897,2.6563,2.6301,2.6429,2.6823,2.749,2.8396,0.0,0.0,0.0,3.1565,3.2318,3.2849,3.2687,3.3405,3.3935,3.3677,3.4322,3.4916,3.5028,3.7302,3.9176,3.9766,4.0284,4.0673,4.0958,4.1174,4.2005,4.3684,4.3205,4.3511,4.5028,4.4605,4.4624,4.5336,4.5509,4.5586,4.5586,4.5586,4.5586,4.5586,4.5586,4.5586,4.5586,4.5586,4.5586,4.5682,4.7028,4.7798,4.8221,4.9625,5.0394,5.0837,5.2356,5.3491,5.4357,5.5164,5.5568,5.5703,5.5703,5.5703,5.5722,5.5895,5.7124,5.8558,5.8711,5.9738,6.08,6.08,6.08,6.08,6.08,6.08,6.08,6.08,6.08,6.08,6.08,6.08,6.08,6.08,6.08,6.08,6.08,6.08,6.08,6.08,6.1031,6.1238,6.1235,6.1801,6.2349,6.2752,6.3724,6.4493,6.482,6.5493,6.5897,6.5897,6.5897,6.5897,6.5897,6.5897,6.5897,6.5897,6.5897,6.5897,6.5897,6.5897,6.5897,6.5897,6.5897,6.5897,2.7664,2.7749,2.8062,2.7213,2.7606,2.82,2.8266,0.0,2.9839,3.1243,0.0,3.0173,3.2228,0.0,0.0,3.1428,3.1884,3.2096,3.2013,3.2777,3.4358,3.7143,3.9475,4.0105,3.818,3.8965,4.0277,4.1963,4.1997,4.2364,4.3335,4.3972,4.4339,4.4435,4.5201,4.5586,4.5586,4.5586,4.5586,4.5586,4.5586,4.5586,4.5586,4.5586,4.5586,4.5605,4.5797,4.6721,4.8125,4.8317,4.9317,5.0779,5.1702,5.2587,5.3453,5.4318,5.5088,5.5703,5.5703,5.5703,5.5818,5.659,5.7992,5.9504,6.0277,6.0646,6.08,6.08,6.08,6.08,6.08,6.08,6.08,6.08,6.08,6.08,6.08,6.08,6.08,6.08,6.08,6.08,6.08,6.08,6.08,6.08,6.0916,6.131,6.2056,6.1575,6.2024,6.4276,6.3872,6.4064,6.5609,6.584,6.5897,6.5897,6.5897,6.5897,6.5897,6.5897,6.5897,6.5897,6.5897,6.5897,6.5897,6.5897,6.5897,6.5897,6.5897,6.5897,2.9654,2.9585,2.9412,2.9374,2.9624,2.9702,2.9022,2.907,2.9431,3.0083,0.0,0.0,0.0,0.0,0.0,0.0,3.0155,3.0563,3.1418,3.1811,3.286,3.5248,3.656,3.7294,3.743,3.9119,4.0577,4.1454,4.1033,4.1549,4.3409,4.2603,4.2761,4.4243,4.4645,4.5086,4.5586,4.5586,4.5586,4.5586,4.5586,4.5586,4.5586,4.5586,4.5586,4.5624,4.6124,4.7028,4.8144,4.8644,4.9586,5.0721,5.1068,5.2029,5.3318,5.4184,5.5011,5.5703,5.5703,5.5703,5.5915,5.7305,5.8223,5.9062,6.0396,6.08,6.08,6.08,6.08,6.08,6.08,6.08,6.08,6.08,6.08,6.08,6.08,6.08,6.08,6.08,6.08,6.08,6.08,6.08,6.08,6.08,6.0896,6.1094,6.1386,6.1621,6.2305,6.3767,6.4012,6.4564,6.5782,6.5897,6.5897,6.5897,6.5897,6.5897,6.5897,6.5897,6.5897,6.5897,6.5897,6.5897,6.5897,6.5897,6.5897,6.5897,6.5897,6.5897,3.21,3.1611,3.0921,3.1678,3.1326,3.0653,3.0077,2.9682,2.9414,2.9368,2.8656,0.0,0.0,0.0,2.7782,2.8433,0.0,2.8931,3.0095,3.0532,3.1463,3.3378,3.3731,3.4632,3.6653,3.8284,3.9547,4.0412,4.008,4.0699,4.2652,4.1664,4.1835,4.3551,4.4049,4.472,4.5586,4.5586,4.5586,4.5586,4.5586,4.5586,4.5586,4.5586,4.5586,4.5624,4.6278,4.7144,4.8144,4.8779,4.9702,5.0702,5.0702,5.1722,5.328,5.3914,5.4799,5.5703,5.5703,5.5703,5.5994,5.773,5.8303,5.8596,6.0277,6.08,6.08,6.08,6.08,6.08,6.08,6.08,6.08,6.08,6.08,6.08,6.08,6.08,6.08,6.08,6.08,6.08,6.08,6.08,6.08,6.08,6.0877,6.0896,6.08,6.1651,6.2521,6.3218,6.407,6.4949,6.582,6.5897,6.5897,6.5897,6.5897,6.5897,6.5897,6.5897,6.5897,6.5897,6.5897,6.5897,6.5897,6.5897,6.5897,6.5897,6.5897,6.5897,3.5085,3.3869,3.2821,3.3614,3.1914,3.0219,3.0892,3.0389,2.9718,2.9531,2.88,2.8163,2.8118,2.7358,2.6763,2.6859,2.6884,0.0,0.0,2.7714,2.9124,3.132,3.1779,3.2813,3.5239,3.5116,3.5839,3.8132,3.9059,3.9677,4.0092,4.1585,4.2271,4.1899,4.3453,4.472,4.5586,4.5586,4.5586,4.5586,4.5586,4.5586,4.5586,4.5586,4.5586,4.5586,4.5624,4.6586,4.8105,4.8125,4.9144,5.0702,5.0702,5.1722,5.3203,5.3241,5.428,5.5703,5.5703,5.5703,5.5994,5.773,5.8303,5.8596,6.0277,6.08,6.08,6.08,6.08,6.08,6.08,6.08,6.08,6.08,6.08,6.08,6.08,6.08,6.08,6.08,6.08,6.08,6.08,6.08,6.08,6.08,6.08,6.08,6.08,6.1555,6.2406,6.3199,6.407,6.4949,6.582,6.5897,6.5897,6.5897,6.5897,6.5897,6.5897,6.5897,6.5897,6.5897,6.5897,6.5897,6.5897,6.5897,6.5897,6.5897,6.5897,6.5897,3.6539,3.6577,3.6197,3.6473,3.5005,3.3242,3.2191,3.0873,2.9485,2.8184,2.811,2.7737,2.6023,2.5856,2.6024,2.6117,2.6095,2.6276,0.0,2.7231,2.7721,2.8376,3.1242,3.3351,3.3697,3.5448,3.6745,3.7163,3.8946,3.9921,3.969,4.0413,4.1135,4.178,4.2912,4.4182,4.5586,4.5586,4.5586,4.5586,4.5586,4.5586,4.5586,4.5586,4.5586,4.5586,4.5586,4.624,4.7355,4.7875,4.8798,4.9894,5.0471,5.1722,5.3203,5.3203,5.426,5.5703,5.5703,5.609,5.6766,5.7923,5.8668,5.9311,6.0454,6.08,6.08,6.08,6.08,6.08,6.08,6.08,6.08,6.08,6.08,6.08,6.08,6.08,6.08,6.08,6.08,6.08,6.08,6.08,6.08,6.08,6.08,6.08,6.08,6.1555,6.2401,6.3199,6.4084,6.4949,6.582,6.5897,6.5897,6.5897,6.5897,6.5897,6.5897,6.5897,6.5897,6.5897,6.5897,6.5897,6.5897,6.5897,6.5897,6.5897,6.5897,6.5897,3.7943,3.8155,3.8043,3.8658,3.7068,3.5085,3.4127,3.2594,3.1026,2.975,2.9172,2.8444,2.7023,2.6169,2.5706,2.5777,2.5508,2.5606,0.0,2.6669,2.6767,2.6916,2.9872,3.1937,3.2046,3.3828,3.5597,3.7017,3.823,3.897,3.9169,3.9871,4.06,4.1319,4.2489,4.3893,4.5566,4.5586,4.5586,4.5586,4.5586,4.5586,4.5586,4.5586,4.5586,4.5605,4.5932,4.6547,4.7394,4.8221,4.9086,4.9913,5.0471,5.1722,5.3203,5.3203,5.426,5.5703,5.5703,5.6263,5.7151,5.8014,5.8838,5.9661,6.055,6.08,6.08,6.08,6.08,6.08,6.08,6.08,6.08,6.08,6.08,6.08,6.08,6.08,6.08,6.08,6.08,6.08,6.08,6.08,6.08,6.08,6.08,6.08,6.08,6.1824,6.2724,6.3226,6.4347,6.5276,6.584,6.5897,6.5897,6.5897,6.5897,6.5897,6.5897,6.5897,6.6032,6.632,6.6051,6.6032,6.632,6.6032,6.5897,6.5897,6.5897,6.5897]},{"header":{"parameterUnit":"m.s-1","parameterCategory":1,"la1":30.6,"la2":29.2853,"lo1":-89.7004,"lo2":-87.6739,"dy":0.0162,"dx":0.0183,"nx":112,"ny":82,"refTime":"2023-11-17T06:00:00:Z","depth":0,"parameterNumber":3,"parameterNumberName":"V-component_of_WINDS"},"data":[0.0,0.0,0.0,0.0,0.0,0.0,0.0,0.0,0.0,0.0,0.0,0.0,0.0,0.0,0.0,0.0,0.0,0.0,0.0,0.0,0.0,0.0,0.0,0.0,0.0,0.0,0.0,0.0,0.0,0.0,0.0,0.0,0.0,0.0,0.0,0.0,0.0,0.0,0.0,0.0,0.0,0.0,0.0,0.0,0.0,0.0,0.0,0.0,0.0,0.0,0.0,0.0,0.0,0.0,0.0,0.0,0.0,0.0,0.0,0.0,0.0,0.0,0.0,0.0,0.0,0.0,0.0,0.0,0.0,0.0,0.0,0.0,0.0,0.0,0.0,0.0,0.0,0.0,0.0,0.0,0.0,0.0,0.0,0.0,0.0,0.0,0.0,0.0,0.0,0.0,-0.7122,-0.8527,-0.8269,-0.7997,-0.8042,-0.7983,-0.7566,-0.6525,0.0,0.0,0.0,0.0,0.0,0.0,0.0,0.0,0.0,0.0,0.0,0.0,0.0,0.0,0.0,0.0,0.0,0.0,0.0,0.0,0.0,0.0,0.0,0.0,0.0,0.0,0.0,0.0,0.0,0.0,0.0,0.0,0.0,0.0,0.0,0.0,0.0,0.0,0.0,0.0,0.0,0.0,0.0,0.0,0.0,0.0,0.0,0.0,0.0,0.0,0.0,0.0,0.0,0.0,0.0,0.0,0.0,0.0,0.0,0.0,0.0,0.0,0.0,0.0,0.0,0.0,0.0,0.0,0.0,0.0,0.0,0.0,0.0,0.0,0.0,0.0,0.0,0.0,0.0,0.0,0.0,0.0,0.0,0.0,0.0,0.0,0.0,0.0,0.0,0.0,0.0,0.0,0.0,0.0,0.0,0.0,0.0,0.0,0.0,0.0,0.0,0.0,0.0,0.0,-0.8313,-0.816,-0.8089,-0.803,-0.7984,-0.8048,-0.7667,-0.7005,0.0,0.0,0.0,0.0,0.0,0.0,0.0,0.0,0.0,0.0,0.0,0.0,0.0,0.0,0.0,0.0,0.0,0.0,0.0,0.0,0.0,0.0,0.0,0.0,0.0,0.0,0.0,0.0,0.0,0.0,0.0,0.0,0.0,0.0,0.0,0.0,0.0,0.0,0.0,0.0,0.0,0.0,0.0,0.0,0.0,0.0,0.0,0.0,0.0,0.0,0.0,0.0,0.0,0.0,0.0,0.0,0.0,0.0,0.0,0.0,0.0,0.0,0.0,0.0,0.0,0.0,0.0,0.0,0.0,0.0,0.0,0.0,0.0,0.0,0.0,0.0,0.0,0.0,0.0,0.0,0.0,0.0,0.0,0.0,0.0,0.0,0.0,0.0,0.0,0.0,0.0,0.0,0.0,0.0,0.0,0.0,0.0,0.0,0.0,0.0,0.0,0.0,0.0,-1.0064,-0.9852,-0.7749,-0.7789,-0.8034,-0.7997,-0.8016,-0.7771,-0.7163,-0.737,0.0,0.0,0.0,0.0,0.0,0.0,0.0,0.0,0.0,0.0,0.0,0.0,0.0,0.0,0.0,0.0,0.0,0.0,0.0,0.0,0.0,0.0,0.0,0.0,0.0,0.0,0.0,0.0,0.0,0.0,0.0,0.0,0.0,0.0,0.0,0.0,0.0,0.0,0.0,0.0,0.0,0.0,0.0,0.0,0.0,0.0,0.0,0.0,0.0,0.0,0.0,0.0,0.0,0.0,0.0,0.0,0.0,0.0,0.0,0.0,0.0,0.0,0.0,0.0,0.0,0.0,0.0,0.0,0.0,0.0,0.0,0.0,0.0,0.0,0.0,0.0,0.0,0.0,0.0,0.0,0.0,0.0,0.0,0.0,0.0,0.0,0.0,0.0,0.0,0.0,0.0,0.0,0.0,0.0,0.0,0.0,0.0,0.0,0.0,0.0,0.0,0.0,-1.0803,-1.0944,-0.748,-0.7549,-0.7872,-0.7994,-0.7897,-0.7516,-0.6969,-0.7315,0.0,0.0,0.0,0.0,0.0,0.0,0.0,0.0,0.0,0.0,0.0,0.0,0.0,0.0,0.0,0.0,0.0,0.0,0.0,0.0,0.0,0.0,0.0,0.0,0.0,0.0,0.0,0.0,0.0,0.0,0.0,0.0,0.0,0.0,0.0,0.0,0.0,0.0,0.0,0.0,0.0,0.0,0.0,0.0,0.0,0.0,0.0,0.0,0.0,0.0,0.0,0.0,0.0,0.0,0.0,0.0,0.0,0.0,0.0,0.0,0.0,0.0,0.0,0.0,0.0,0.0,0.0,0.0,0.0,0.0,0.0,0.0,0.0,0.0,0.0,0.0,0.0,0.0,0.0,0.0,0.0,0.0,0.0,0.0,0.0,0.0,0.0,0.0,0.0,0.0,0.0,0.0,0.0,0.0,0.0,0.0,0.0,0.0,0.0,0.0,0.0,0.0,-1.0761,-1.0995,-0.7492,-0.716,-0.7362,-0.7976,-0.7514,-0.6949,-0.6384,-0.7084,0.0,0.0,0.0,0.0,0.0,0.0,0.0,0.0,0.0,0.0,0.0,0.0,0.0,0.0,0.0,0.0,0.0,0.0,0.0,0.0,0.0,0.0,0.0,0.0,0.0,0.0,0.0,0.0,0.0,0.0,0.0,0.0,0.0,0.0,0.0,0.0,0.0,0.0,0.0,0.0,0.0,0.0,0.0,0.0,0.0,0.0,0.0,0.0,0.0,0.0,0.0,0.0,0.0,0.0,0.0,0.0,0.0,0.0,0.0,0.0,0.0,0.0,0.0,0.0,0.0,0.0,0.0,0.0,0.0,0.0,0.0,0.0,0.0,0.0,0.0,0.0,0.0,0.0,0.0,0.0,0.0,0.0,0.0,0.0,0.0,0.0,0.0,0.0,0.0,0.0,0.0,0.0,0.0,0.0,0.0,0.0,0.0,0.0,0.0,0.0,0.0,0.0,-1.083,-1.0979,-0.7504,-0.7083,-0.7158,-0.7403,-0.7219,-0.7047,-0.7047,0.0,0.0,0.0,0.0,0.0,0.0,0.0,0.0,0.0,0.0,0.0,0.0,0.0,0.0,0.0,0.0,0.0,0.0,0.0,0.0,0.0,0.0,0.0,0.0,0.0,0.0,0.0,0.0,0.0,0.0,0.0,0.0,0.0,0.0,0.0,0.0,0.0,0.0,0.0,0.0,0.0,0.0,0.0,0.0,0.0,0.0,0.0,0.0,0.0,0.0,0.0,0.0,0.0,0.0,0.0,0.0,0.0,0.0,0.0,0.0,0.0,0.0,0.0,0.0,0.0,0.0,0.0,0.0,0.0,0.0,0.0,0.0,0.0,0.0,0.0,0.0,0.0,0.0,0.0,0.0,0.0,0.0,0.0,0.0,0.0,0.0,0.0,0.0,0.0,0.0,0.0,0.0,0.0,0.0,0.0,0.0,0.0,0.0,0.0,0.0,0.0,0.0,-0.8861,-1.0817,-1.0906,-0.7261,-0.7014,-0.7073,-0.709,-0.7072,-0.7034,-0.6865,0.0,0.0,0.0,0.0,0.0,0.0,0.0,0.0,0.0,0.0,0.0,0.0,0.0,0.0,0.0,0.0,0.0,0.0,0.0,0.0,0.0,0.0,0.0,0.0,0.0,0.0,0.0,0.0,0.0,0.0,0.0,0.0,0.0,0.0,0.0,0.0,0.0,0.0,0.0,0.0,0.0,0.0,0.0,0.0,0.0,0.0,0.0,0.0,0.0,0.0,0.0,0.0,0.0,0.0,0.0,0.0,0.0,0.0,0.0,0.0,0.0,0.0,0.0,0.0,0.0,0.0,0.0,0.0,0.0,0.0,0.0,0.0,0.0,0.0,0.0,0.0,0.0,0.0,0.0,0.0,0.0,0.0,0.0,0.0,0.0,0.0,0.0,0.0,0.0,0.0,0.0,0.0,0.0,0.0,0.0,0.0,0.0,0.0,0.0,0.0,0.0,0.0,-0.8843,-1.0829,-1.0767,-0.6772,-0.6835,-0.7073,-0.7123,-0.7073,-0.6633,0.0,0.0,0.0,0.0,0.0,0.0,0.0,0.0,0.0,0.0,0.0,0.0,0.0,0.0,0.0,0.0,0.0,0.0,0.0,0.0,0.0,0.0,0.0,0.0,0.0,0.0,0.0,0.0,0.0,0.0,0.0,0.0,0.0,0.0,0.0,0.0,0.0,0.0,0.0,0.0,0.0,0.0,0.0,0.0,0.0,0.0,0.0,0.0,0.0,0.0,0.0,0.0,0.0,0.0,0.0,0.0,0.0,0.0,0.0,0.0,0.0,0.0,0.0,0.0,0.0,0.0,0.0,0.0,0.0,0.0,0.0,0.0,0.0,0.0,0.0,0.0,0.0,0.0,0.0,0.0,0.0,0.0,0.0,0.0,0.0,0.0,0.0,0.0,0.0,0.0,0.0,0.0,0.0,0.0,0.0,0.0,0.0,0.0,0.0,0.0,0.0,0.0,0.0,-0.8851,-1.0164,-1.0921,-1.0571,-0.8115,-0.6532,-0.6516,-0.6567,-0.6204,-0.5419,0.0,0.0,0.0,0.0,0.0,0.0,0.0,0.0,0.0,0.0,0.0,0.0,0.0,0.0,0.0,0.0,0.0,0.0,0.0,0.0,0.0,0.0,0.0,0.0,0.0,0.0,0.0,0.0,0.0,0.0,0.0,0.0,0.0,0.0,0.0,0.0,0.0,0.0,0.0,0.0,0.0,0.0,0.0,0.0,0.0,0.0,0.0,0.0,0.0,0.0,0.0,0.0,0.0,0.0,0.0,0.0,0.0,0.0,0.0,0.0,0.0,0.0,0.0,0.0,0.0,0.0,0.0,0.0,0.0,0.0,0.0,0.0,0.0,0.0,0.0,0.0,0.0,0.0,0.0,0.0,0.0,0.0,0.0,0.0,0.0,0.0,0.0,0.0,0.0,0.0,0.0,0.0,0.0,0.0,0.0,0.0,0.0,0.0,0.0,0.0,0.0,0.0,-0.8879,-1.0274,-1.1533,-1.2231,-0.873,-0.6274,-0.6263,-0.6322,-0.607,-0.5421,0.0,0.0,0.0,0.0,0.0,0.0,0.0,0.0,0.0,0.0,0.0,0.0,0.0,0.0,0.0,0.0,0.0,0.0,0.0,0.0,0.0,0.0,0.0,0.0,0.0,0.0,0.0,0.0,0.0,0.0,0.0,0.0,0.0,0.0,0.0,0.0,0.0,0.0,0.0,0.0,0.0,0.0,0.0,0.0,0.0,0.0,0.0,0.0,0.0,0.0,0.0,0.0,0.0,0.0,0.0,0.0,0.0,0.0,0.0,0.0,0.0,0.0,0.0,0.0,0.0,0.0,0.0,0.0,0.0,0.0,0.0,0.0,0.0,0.0,0.0,0.0,0.0,0.0,0.0,0.0,0.0,0.0,0.0,0.0,0.0,0.0,0.0,0.0,0.0,0.0,0.0,0.0,0.0,0.0,0.0,0.0,0.0,0.0,0.0,0.0,0.0,0.0,-0.9043,-1.0901,-1.2301,-1.2315,-0.8697,-0.6329,-0.6331,-0.6296,-0.6033,-0.5411,0.0,0.0,0.0,0.0,0.0,0.0,0.0,0.0,0.0,0.0,0.0,0.0,0.0,0.0,0.0,0.0,0.0,0.0,0.0,0.0,0.0,0.0,0.0,0.0,0.0,0.0,0.0,0.0,0.0,0.0,0.0,0.0,0.0,0.0,0.0,0.0,0.0,0.0,0.0,0.0,0.0,0.0,0.0,0.0,0.0,0.0,0.0,0.0,0.0,0.0,0.0,0.0,0.0,0.0,0.0,0.0,0.0,0.0,0.0,0.0,-0.5924,-0.6159,0.0,0.0,0.0,0.0,0.0,0.0,0.0,0.0,0.0,0.0,0.0,0.0,0.0,0.0,0.0,0.0,0.0,0.0,0.0,0.0,0.0,0.0,0.0,0.0,0.0,0.0,0.0,0.0,0.0,0.0,0.0,0.0,0.0,0.0,0.0,0.0,0.0,0.0,0.0,0.0,-1.0244,-1.1431,-1.2301,-1.2315,-0.8666,-0.6278,-0.6264,-0.6321,-0.6037,-0.5466,-0.5858,0.0,0.0,0.0,0.0,0.0,0.0,0.0,0.0,0.0,0.0,0.0,0.0,0.0,0.0,0.0,0.0,0.0,0.0,0.0,0.0,0.0,0.0,0.0,0.0,0.0,0.0,0.0,0.0,0.0,0.0,0.0,0.0,0.0,0.0,0.0,0.0,0.0,0.0,0.0,0.0,0.0,0.0,0.0,0.0,0.0,0.0,0.0,0.0,0.0,0.0,0.0,0.0,0.0,0.0,0.0,0.0,0.0,0.0,0.0,-0.6279,-0.6151,0.0,0.0,0.0,0.0,0.0,0.0,0.0,0.0,0.0,0.0,0.0,0.0,0.0,0.0,0.0,0.0,0.0,0.0,0.0,0.0,0.0,0.0,0.0,0.0,0.0,0.0,0.0,0.0,0.0,0.0,0.0,0.0,0.0,0.0,0.0,0.0,0.0,0.0,0.0,0.0,-1.0635,-1.1153,-1.1708,-1.2224,-0.8708,-0.6419,-0.6659,-0.6432,-0.6057,-0.5427,-0.5682,0.0,0.0,0.0,0.0,0.0,0.0,0.0,0.0,0.0,0.0,0.0,0.0,0.0,0.0,0.0,0.0,0.0,0.0,0.0,0.0,0.0,0.0,0.0,0.0,0.0,0.0,0.0,0.0,0.0,0.0,0.0,0.0,0.0,0.0,0.0,0.0,0.0,0.0,0.0,0.0,0.0,0.0,0.0,0.0,0.0,0.0,0.0,0.0,0.0,0.0,0.0,0.0,0.0,-0.6691,-0.6893,-0.7112,-0.7141,-0.7235,-0.7371,-0.6777,-0.6284,-0.6025,-0.6082,0.0,0.0,0.0,0.0,0.0,0.0,0.0,0.0,0.0,0.0,0.0,0.0,0.0,0.0,0.0,0.0,0.0,0.0,0.0,0.0,0.0,0.0,-1.2346,-1.2523,-1.2622,-1.1846,-0.8886,0.0,0.0,0.0,0.0,0.0,0.0,0.0,0.0,0.0,0.0,0.0,-1.0692,-1.0773,-1.0997,-1.1228,-0.8313,-0.6475,-0.6898,-0.6536,-0.6071,-0.5607,-0.6037,-0.6282,0.0,0.0,0.0,0.0,0.0,0.0,0.0,0.0,0.0,0.0,0.0,0.0,0.0,0.0,0.0,0.0,0.0,0.0,0.0,0.0,0.0,0.0,0.0,0.0,0.0,0.0,0.0,0.0,0.0,0.0,0.0,0.0,-0.6861,-0.613,0.0,0.0,0.0,0.0,0.0,0.0,0.0,0.0,0.0,0.0,0.0,0.0,0.0,-0.6169,-0.6568,-0.675,-0.6792,-0.6695,-0.685,-0.6877,-0.6788,-0.6922,-0.6984,-0.6987,-0.7211,0.0,-0.6761,-0.6273,0.0,0.0,0.0,0.0,0.0,0.0,0.0,0.0,0.0,0.0,0.0,0.0,0.0,0.0,0.0,0.0,0.0,0.0,0.0,0.0,0.0,0.0,-1.2587,-1.3601,-1.3877,-1.2612,-0.8207,-0.7293,-0.733,-0.7377,-0.8551,-0.9553,0.0,0.0,0.0,0.0,0.0,0.0,-1.0887,-1.1494,-1.0809,-0.7432,-0.6587,-0.6342,-0.6426,-0.6321,-0.623,-0.615,-0.6259,-0.6291,-0.6287,-0.6359,0.0,0.0,0.0,0.0,0.0,0.0,0.0,0.0,0.0,0.0,0.0,0.0,0.0,0.0,0.0,0.0,0.0,0.0,0.0,0.0,0.0,0.0,0.0,0.0,0.0,0.0,0.0,0.0,0.0,-0.6983,-0.668,-0.5942,-0.6289,-0.6427,0.0,0.0,0.0,0.0,0.0,0.0,0.0,0.0,0.0,-0.6402,-0.6423,-0.6558,-0.6824,-0.6912,-0.7039,-0.7207,-0.7275,-0.7356,-0.7455,-0.7522,-0.7553,-0.7556,-0.7715,-0.7629,-0.733,-0.6862,-0.6256,-0.5698,0.0,0.0,0.0,0.0,-0.6734,-0.6788,-0.7262,-0.7123,-0.6893,-0.7085,0.0,0.0,0.0,0.0,0.0,0.0,0.0,-1.048,-1.0992,-1.2176,-1.2744,-1.065,-1.046,-1.0154,-0.8044,-0.9372,-1.0792,-1.0126,-0.8758,-0.7798,-0.8232,-0.9473,0.0,0.0,0.0,-1.2743,-1.1681,-1.1965,-1.0791,-0.67,-0.628,-0.6305,-0.6264,-0.6338,-0.6338,-0.6338,-0.6276,-0.6297,-0.6267,-0.628,-0.6555,0.0,0.0,0.0,0.0,0.0,0.0,0.0,0.0,0.0,0.0,0.0,0.0,0.0,0.0,0.0,0.0,0.0,0.0,0.0,0.0,0.0,0.0,0.0,0.0,0.0,0.0,0.0,0.0,-0.6925,-0.6654,-0.5907,-0.6211,-0.6438,0.0,0.0,0.0,0.0,0.0,0.0,-0.6324,-0.6451,-0.6631,-0.6864,-0.6898,-0.6963,-0.7153,-0.7156,-0.7322,-0.7655,-0.7692,-0.7828,-0.8038,-0.8038,-0.8038,-0.8038,-0.8038,-0.7892,-0.7621,-0.7385,-0.6675,-0.5746,-0.609,-0.6466,-0.6956,-0.7286,-0.7151,-0.6908,-0.7741,-0.7554,-0.7022,-0.7346,-0.7325,-0.723,-0.7115,0.0,0.0,0.0,0.0,-1.2037,-1.2641,-1.2634,-1.1616,-0.8201,-0.771,-0.8023,-0.8044,-1.0381,-1.2207,-1.12,-0.8578,-0.6562,-0.6846,-0.8186,0.0,-0.7134,-0.9948,-1.2289,-1.2335,-1.2309,-1.0748,-0.6749,-0.629,-0.6338,-0.6338,-0.6338,-0.6338,-0.6338,-0.6338,-0.6278,-0.6312,-0.6288,-0.6461,-0.6912,0.0,0.0,0.0,0.0,0.0,0.0,0.0,0.0,0.0,0.0,0.0,0.0,0.0,0.0,0.0,0.0,0.0,0.0,0.0,0.0,0.0,0.0,0.0,0.0,0.0,0.0,0.0,0.0,0.0,-0.6113,-0.6321,0.0,0.0,0.0,0.0,-0.6511,-0.6493,-0.6507,-0.6676,-0.6675,-0.6878,-0.7312,-0.7336,-0.7475,-0.7763,-0.7767,-0.7777,-0.7801,-0.7946,-0.8024,-0.8038,-0.8038,-0.8038,-0.8038,-0.8038,-0.7946,-0.7777,-0.7475,-0.7055,-0.6595,-0.6071,-0.6383,-0.7095,-0.7112,-0.7292,-0.7406,-0.7229,-0.7105,-0.7156,-0.7465,-0.7543,-0.7543,-0.7231,-1.0279,0.0,0.0,-1.2978,-1.3998,-1.3985,-1.117,-0.8278,-0.8023,-0.7999,-0.798,-0.8023,-0.8131,-0.8096,-0.7472,-0.7197,-0.6934,-0.6401,0.0,-0.7065,-0.6465,-0.971,-1.2323,-1.2335,-1.2272,-1.0789,-0.674,-0.6307,-0.6338,-0.6338,-0.6338,-0.6338,-0.6338,-0.6338,-0.6318,-0.6291,-0.627,-0.6325,-0.6376,-0.6829,0.0,0.0,0.0,0.0,0.0,0.0,0.0,0.0,0.0,0.0,0.0,0.0,0.0,0.0,0.0,0.0,0.0,0.0,0.0,0.0,0.0,0.0,0.0,0.0,0.0,0.0,0.0,0.0,-0.7309,-0.7204,0.0,-0.6728,-0.6736,-0.6715,-0.6857,-0.685,-0.7018,-0.7276,-0.7336,-0.7533,-0.7794,-0.7801,-0.7851,-0.7957,-0.796,-0.796,-0.796,-0.8116,-0.8187,-0.8191,-0.8282,-0.8323,-0.8323,-0.8323,-0.8292,-0.8228,-0.8031,-0.7689,-0.7278,-0.7078,-0.7099,-0.7341,-0.7627,-0.7642,-0.7566,-0.7619,-0.7667,-0.7573,-0.7594,-0.7631,-0.7631,-0.7685,-1.1171,-1.4397,-1.0598,-1.23,-1.446,-1.1086,-0.9124,-0.7991,-0.7994,-0.8004,-0.7957,-0.8038,-0.8028,-0.7784,-0.722,-0.7074,-0.7076,-0.6888,-0.6655,-0.6485,-0.6365,-0.75,-0.8443,-0.84,-0.8436,-0.7919,-0.6417,-0.6287,-0.6277,-0.6268,-0.6338,-0.6338,-0.6338,-0.6338,-0.6285,-0.6332,-0.6638,-0.6795,-0.678,-0.6982,-0.6843,0.0,0.0,0.0,0.0,0.0,0.0,0.0,0.0,0.0,0.0,0.0,0.0,0.0,0.0,0.0,0.0,0.0,0.0,0.0,0.0,0.0,0.0,0.0,0.0,0.0,-0.7475,-0.7718,-0.7933,-0.7795,-0.748,-0.7319,-0.7163,-0.7207,-0.7488,-0.7502,-0.7631,-0.7885,-0.7892,-0.798,-0.8079,-0.7989,-0.7962,-0.8016,-0.7965,-0.8038,-0.8041,-0.8197,-0.8272,-0.8275,-0.8418,-0.8482,-0.8482,-0.8482,-0.8482,-0.8476,-0.8381,-0.821,-0.7934,-0.783,-0.7726,-0.7646,-0.7944,-0.7889,-0.7848,-0.8089,-0.8072,-0.7882,-0.7741,-0.7691,-0.774,-0.7974,-1.0458,-1.2483,-0.8929,-1.0529,-1.2396,-0.8946,-0.7962,-0.8035,-0.8031,-0.7997,-0.8038,-0.8038,-0.8021,-0.7911,-0.7511,-0.7227,-0.7105,-0.7101,-0.6824,-0.6531,-0.6548,-0.6531,-0.6531,-0.6541,-0.6582,-0.6592,-0.6573,-0.6425,-0.6288,-0.6327,-0.6317,-0.6297,-0.6332,-0.6291,-0.6317,-0.6324,-0.6623,-0.6881,-0.7086,-0.7083,-0.7275,-0.7584,0.0,0.0,0.0,0.0,0.0,0.0,0.0,0.0,0.0,0.0,0.0,0.0,0.0,0.0,0.0,0.0,0.0,0.0,0.0,0.0,0.0,0.0,0.0,-0.6342,-0.756,-0.8405,-0.8044,-0.8028,-0.7922,-0.7772,-0.7886,-0.8071,-0.8279,-0.8279,-0.8336,-0.8476,-0.8208,-0.8083,-0.8259,-0.8099,-0.8022,-0.8064,-0.8026,-0.8055,-0.8055,-0.8211,-0.8286,-0.8289,-0.8431,-0.8496,-0.8496,-0.8496,-0.8496,-0.8496,-0.8489,-0.8489,-0.8459,-0.8163,-0.8045,-0.8045,-0.8041,-0.8133,-0.8282,-0.8421,-0.8279,-0.7962,-0.8004,-0.7955,-0.8028,-0.7974,-0.7994,-0.8014,-0.8004,-0.8014,-0.8041,-0.7986,-0.8014,-0.7957,-0.7957,-0.7997,-0.8038,-0.8038,-0.8024,-0.8018,-0.8018,-0.749,-0.7093,-0.7063,-0.7131,-0.7258,-0.7188,-0.7269,0.0,-0.7261,-0.7239,-0.725,-0.7147,-0.6647,-0.6299,-0.6271,-0.6344,-0.6365,-0.6485,-0.6345,-0.6334,-0.6274,-0.6304,-0.6586,-0.7228,-0.7215,-0.8162,-1.0064,0.0,0.0,0.0,0.0,0.0,0.0,0.0,0.0,0.0,0.0,0.0,0.0,0.0,0.0,0.0,0.0,0.0,0.0,0.0,0.0,0.0,-0.7906,-0.8086,-0.7908,-0.84,-0.884,-0.8999,-0.919,-0.9078,-0.8595,-0.8518,-0.8434,-0.8539,-0.8425,-0.8442,-0.8479,-0.8404,-0.8397,-0.8479,-0.8401,-0.8381,-0.8317,-0.8381,-0.836,-0.836,-0.8516,-0.8587,-0.8594,-0.8747,-0.8815,-0.8815,-0.8815,-0.8815,-0.8804,-0.8693,-0.8648,-0.8618,-0.8323,-0.8208,-0.8194,-0.8079,-0.8065,-0.8109,-0.8147,-0.8109,-0.8045,-0.7985,-0.7972,-0.8035,-0.8021,-0.8028,-0.8031,-0.8001,-0.8004,-0.8011,-0.7997,-0.8004,-0.8014,-0.8014,-0.8028,-0.8038,-0.8038,-0.8007,-0.7977,-0.7977,-0.7824,-0.7617,-0.7211,-0.8741,-1.0097,-1.0079,-1.0583,-1.0755,-1.0145,-1.0725,-1.0183,-0.7418,-0.6997,-0.6748,-0.6326,-0.6675,-0.775,-0.9746,-0.7612,-0.6268,-0.6274,-0.6668,-0.7903,-1.007,-1.0061,-1.0367,0.0,0.0,0.0,0.0,0.0,0.0,0.0,0.0,0.0,0.0,0.0,0.0,0.0,0.0,0.0,0.0,0.0,0.0,0.0,0.0,0.0,0.0,-0.8317,-0.863,-0.8807,-0.8831,-0.9103,-0.9525,-0.9592,-0.9592,-0.9339,-0.9025,-0.8859,-0.8879,-0.8755,-0.8714,-0.8669,-0.8554,-0.854,-0.8669,-0.855,-0.8543,-0.8672,-0.8547,-0.8513,-0.8577,-0.8669,-0.8743,-0.8811,-0.896,-0.9062,-0.9123,-0.9123,-0.9086,-0.9022,-0.8933,-0.8859,-0.8777,0.0,0.0,0.0,0.0,-0.8241,-0.8163,-0.835,-0.8333,-0.8235,-0.8193,-0.8133,-0.8032,-0.8032,-0.7989,-0.8038,-0.8038,-0.8038,-0.8038,-0.8038,-0.8038,-0.8038,-0.8038,-0.8038,-0.8038,-0.8038,-0.8038,-0.8038,-0.8038,-0.797,0.0,-0.75,-0.8556,-0.9477,-0.9507,-0.9862,-0.9976,-0.957,-1.0025,-0.9549,-0.73,-0.8116,-0.8301,-0.709,-0.7094,0.0,0.0,0.0,-0.6616,-0.6616,-0.693,0.0,0.0,0.0,-0.9479,-0.9531,-0.9902,0.0,0.0,-1.1433,-1.073,0.0,0.0,0.0,0.0,0.0,0.0,0.0,0.0,0.0,0.0,0.0,0.0,0.0,0.0,0.0,0.0,-0.8668,-0.8769,-0.9236,-0.9101,-0.9205,-0.9703,-0.9624,-0.9597,-0.972,-0.9585,-0.9295,-0.9178,-0.9034,-0.8931,-0.8954,-0.8706,0.0,0.0,0.0,-0.8696,-0.8988,-0.872,-0.8652,-0.8788,-0.8788,-0.8855,-0.8994,-0.912,-0.9252,-0.9381,-0.9381,-0.9296,-0.9154,-0.9154,-0.9069,-0.891,-0.8621,-0.8499,-0.8499,-0.8635,-0.852,-0.835,-0.875,0.0,0.0,-0.8528,-0.8292,-0.8084,-0.8084,-0.7981,-0.7969,-0.7982,-0.7965,-0.8041,-0.7959,-0.7952,-0.8038,-0.8038,-0.8038,-0.8045,-0.7962,-0.7952,-0.8045,-0.7962,-0.7952,-0.7997,-0.7962,-0.76,-0.7181,-0.7091,-0.7117,-0.7098,-0.712,-0.7118,-0.706,-0.7067,-0.9239,0.0,-0.8067,-0.7429,-0.7095,-0.7139,-0.7078,-0.7068,-0.7084,-0.7111,-0.7102,-0.7142,-0.7123,-0.7224,-0.7171,-1.1409,-1.3395,-1.3438,-1.5037,-1.2997,0.0,0.0,0.0,0.0,0.0,0.0,0.0,0.0,0.0,0.0,0.0,0.0,0.0,0.0,0.0,-0.8714,-0.8898,-0.9219,-0.9469,-0.9618,-0.9669,-0.9618,-0.9683,-0.9703,-0.9744,-0.9566,-0.9334,-0.898,-0.9054,-0.9079,-0.8878,-0.9052,-0.9049,-0.911,-0.9055,-0.911,-0.9293,-0.9235,-0.9222,-0.9252,-0.9252,0.0,-0.9296,-0.9323,-0.9354,-0.9381,-0.9381,-0.9296,-0.9154,-0.9154,-0.9069,-0.892,-0.8737,-0.8591,-0.8486,-0.8516,-0.8489,-0.8455,-0.854,-0.853,-0.8486,-0.852,-0.8489,-0.8442,-0.8442,-0.8233,0.0,-0.8043,-0.8014,-0.7965,-0.7985,-0.8029,-0.8038,-0.8038,-0.8038,-0.7972,-0.7991,-0.8026,-0.7975,-0.7991,-0.8022,-0.8031,-0.8001,-0.7868,-0.7644,-0.719,-0.7136,-0.7111,-0.7136,-0.7092,-0.7119,-0.7124,-0.7566,-0.7753,-0.7295,-0.7128,-0.7075,-0.7109,-0.7055,-0.7096,-0.7121,-0.7057,-0.7092,-0.7143,-0.76,-0.7868,-0.7854,-0.8765,-0.9173,-0.9267,-1.3719,-1.3012,0.0,0.0,0.0,0.0,0.0,0.0,0.0,0.0,0.0,0.0,0.0,-1.1635,-0.8759,0.0,-0.9883,-0.924,-0.9226,-0.9459,-0.9683,-0.9778,-0.9795,-0.9724,-0.9778,-0.9795,-0.9844,-0.9703,-0.9496,-0.9372,-0.947,-0.9502,-0.9384,-0.9266,-0.9266,-0.9266,-0.9266,-0.934,-0.9493,-0.9418,-0.9418,-0.9496,-0.9418,-0.9422,-0.9496,-0.9496,-0.9534,-0.9602,-0.9602,-0.9517,-0.9374,-0.93,-0.9225,-0.9154,-0.9076,-0.8862,-0.8604,-0.8682,-0.8662,-0.8608,-0.8682,-0.871,-0.871,-0.8713,-0.8769,-0.8707,-0.8707,-0.8601,-0.8391,-0.8138,-0.8267,-0.8385,-0.8037,-0.8001,-0.8047,-0.8047,-0.8047,-0.7965,-0.804,-0.8258,-0.8386,-0.8044,-0.8042,-0.8038,-0.8038,-0.7977,-0.7879,-0.763,-0.7547,-0.7503,-0.7503,-0.7533,-0.7416,-0.7095,-0.7076,-0.7083,-0.7073,-0.7083,-0.709,-0.709,-0.7349,-0.7522,-0.7594,-0.7503,-0.7537,-0.7508,-0.7804,-0.8023,-0.7976,-0.8041,-0.7969,-0.8035,-1.1562,-1.1352,0.0,0.0,0.0,0.0,0.0,0.0,0.0,-0.6569,-0.6919,-0.7177,-1.1826,-1.434,-0.9907,-1.039,-1.1079,-0.9815,-0.9539,-0.9659,-0.9802,-0.9822,-0.9812,-0.9785,-0.9802,-0.9822,-0.9822,-0.9693,-0.9744,-0.9772,-0.9756,-0.9785,-0.9785,-0.9542,-0.9305,-0.9425,-0.9425,-0.9496,-0.9649,-0.953,-0.953,-0.9649,-0.9527,-0.953,-0.9649,-0.9649,-0.9713,-0.9819,-0.9791,-0.9717,-0.9598,-0.9445,-0.9381,-0.9381,-0.9381,-0.9161,-0.8852,-0.8947,-0.8886,-0.8777,-0.893,-0.896,-0.8944,-0.8971,-0.8879,-0.8869,-0.8869,-0.8869,-0.8751,-0.8342,-0.8526,-0.8815,-0.8302,-0.818,-0.8157,-0.8157,-0.8157,-0.8167,-0.8193,-0.8522,-0.8745,-0.8137,-0.8001,-0.7982,-0.7982,-0.7959,-0.7997,-0.7976,-0.7959,-0.7981,-0.7981,-0.7956,-0.7834,-0.7348,-0.7313,-0.7227,-0.7132,-0.7224,-0.729,-0.7243,-0.7739,-0.8044,-0.7981,-0.7981,-0.8034,-0.7955,-0.7955,-0.8017,-0.8038,-0.7994,-0.7994,-0.8038,-0.9473,-0.9347,-0.5346,-0.5614,-0.5801,-0.5898,-0.6307,-0.6813,0.0,-0.7322,-0.7275,-0.778,-0.8502,-0.9245,-0.9574,-0.961,-0.9629,-0.9703,-0.9707,-0.9659,-0.9802,-0.9822,-0.9774,-0.9649,-0.9744,-0.9822,-0.9822,-0.957,-0.954,-0.9788,-0.9543,-0.9581,-0.9825,-0.9707,-0.9707,-0.9585,-0.9585,-0.9652,-0.9795,-0.9781,-0.9781,-0.9795,-0.9781,-0.9781,-0.9798,-0.9798,-0.9805,-0.9815,-0.9686,-0.9625,-0.9598,-0.9445,-0.9381,-0.9381,-0.9381,-0.9351,-0.9293,-0.9174,-0.9039,-0.8933,-0.9079,-0.9045,-0.896,-0.9086,-0.9032,-0.8913,-0.8913,-0.892,-0.8935,-0.8849,-0.8804,-0.8839,-0.8869,-0.8803,-0.8808,-0.8808,-0.8808,-0.8843,-0.8766,-0.8892,-0.8713,-0.8084,-0.8004,-0.8031,-0.8031,-0.8026,-0.8035,-0.8018,-0.8001,-0.7991,-0.7991,-0.7973,-0.7987,-0.7887,-0.7858,-0.767,-0.7185,-0.7573,-0.7928,-0.7876,-0.7987,-0.8046,-0.7987,-0.7991,-0.7997,-0.8014,-0.8014,-0.8021,-0.8038,-0.8031,-0.8031,-0.8038,-0.823,-0.823,-0.5986,-0.6069,-0.6204,-0.6254,-0.6661,-0.7041,-0.7227,-0.7254,-0.7334,-0.7925,-0.833,-0.872,-0.9297,-1.0063,-1.0398,-0.9835,-0.9758,-0.9754,-0.9812,-0.9751,-0.9642,-0.9493,-0.953,-0.9602,-0.9813,-0.972,-0.9633,-0.9815,-0.9643,-0.973,-0.9734,-0.9854,-0.9734,-0.9734,-0.9734,-0.9802,-0.9951,-0.9866,-0.9866,-0.9951,-0.9863,-0.9822,-0.9822,-0.9822,-0.9822,-0.9819,-0.9758,-0.9734,-0.9727,-0.9663,-0.9635,-0.9635,-0.9635,-0.9588,-0.9486,-0.9242,-0.9171,-0.9191,-0.9164,-0.9171,-0.9205,-0.9266,-0.9184,-0.9062,-0.9062,-0.896,-0.8859,-0.892,-0.8849,-0.8876,-0.8937,-0.891,-0.8862,-0.8862,-0.8862,-0.8879,-0.8941,-0.8946,-0.8852,-0.8588,-0.8537,-0.8367,-0.8074,-0.8008,-0.8039,-0.7952,-0.8038,-0.8038,-0.8038,-0.7984,-0.801,-0.8018,-0.7959,-0.7921,-0.7624,-0.7822,-0.7987,-0.8034,-0.8045,-0.7974,-0.8035,-0.8038,-0.8038,-0.8038,-0.8038,-0.8038,-0.8038,-0.8038,-0.8038,-0.8038,-0.8038,-0.8038,-0.6321,-0.6192,-0.6263,-0.6506,-0.6796,-0.7112,-0.7287,-0.7486,-0.7753,-0.8187,-0.8642,-0.9029,-0.9196,-1.0066,-1.0636,-0.9811,-0.9696,-0.9761,-0.9761,-0.9639,-0.9476,-0.9398,-0.9259,-0.9303,-0.9535,-0.9751,-0.9781,-0.9819,-0.9822,-0.9839,-0.9883,-0.9886,-0.9883,-0.9883,-0.9924,-0.9978,-1.0049,-0.9981,-0.9981,-1.0046,-0.9937,-0.9863,-0.9822,-0.9822,-0.9822,-0.9822,-0.9822,-0.9822,-0.9822,-0.9822,-0.9822,-0.9822,-0.9822,-0.9758,-0.9635,-0.9374,-0.932,-0.9371,-0.9303,-0.9323,-0.9388,-0.9432,-0.934,-0.9208,-0.9164,-0.911,-0.9052,-0.9011,-0.9028,-0.9059,-0.8947,-0.8947,-0.8947,-0.9059,-0.8947,-0.8933,-0.8893,-0.891,-0.8931,-0.8893,-0.8869,-0.873,-0.8304,-0.8114,-0.8021,-0.8016,-0.7965,-0.8038,-0.8038,-0.8038,-0.7997,-0.799,-0.7976,-0.7976,-0.7976,-0.7976,-0.8024,-0.8031,-0.8038,-0.8038,-0.8038,-0.8038,-0.8038,-0.8038,-0.8038,-0.8038,-0.8038,-0.8038,-0.8038,-0.8038,-0.8038,-0.8038,-0.5976,-0.5632,-0.5606,-0.6465,-0.6906,-0.7267,-0.7846,-0.8455,-0.8891,-0.8891,-0.9014,-0.914,-0.9147,-0.9267,-0.9373,-0.9683,-0.9734,-0.9615,-0.9496,-0.9483,-0.9398,-0.9217,-0.9068,-0.8954,-0.8957,-0.9476,-0.9796,-0.9812,-0.9822,-0.989,-1.0291,-1.017,-1.0042,-1.0042,-1.0188,-1.0198,-1.0049,-1.0195,-1.0195,-1.0049,-1.0042,-0.9964,-0.9822,-0.9822,-0.9822,-0.9822,-0.9822,-0.9822,-0.9822,-0.9822,-0.9822,-0.9822,-0.9822,-0.9819,-0.9795,-0.9649,-0.9503,-0.9401,-0.9547,-0.9503,-0.9405,-0.9554,-0.95,-0.9347,-0.9198,-0.9252,-0.9337,-0.9188,-0.9252,-0.9367,-0.9245,-0.9245,-0.9245,-0.9367,-0.9129,-0.8852,-0.8944,-0.8907,-0.8864,-0.8846,-0.892,-0.8921,-0.8918,-0.8354,-0.7952,-0.8051,-0.8032,-0.8038,-0.8038,-0.8038,-0.8038,-0.8031,-0.8031,-0.8031,-0.8031,-0.8031,-0.8035,-0.8038,-0.8038,-0.8038,-0.8038,-0.8038,-0.8038,-0.8038,-0.8038,-0.8038,-0.8038,-0.8038,-0.8038,-0.8038,-0.8038,-0.8038,-0.5925,-0.6061,-0.6394,-0.6852,-0.7598,-0.8317,-0.8523,-0.9044,-0.9367,-0.8937,-0.9067,-0.9108,-0.9001,-0.9003,-0.921,-0.9525,-0.9588,-0.9497,-0.9581,-0.9564,-0.9347,-0.9071,-0.9075,-0.889,-0.8359,-0.9219,-0.9771,-0.9786,-1.0144,-1.0271,-1.017,-1.0277,-1.0331,-1.0202,-1.0253,-1.03,-1.0344,-1.0198,-1.0198,-1.0341,-1.0144,-0.9968,-0.9822,-0.9822,-0.9822,-0.9822,-0.9822,-0.9822,-0.9822,-0.9822,-0.9822,-0.9822,-0.9822,-0.9822,-0.9815,-0.9768,-0.9717,-0.9666,-0.9625,-0.9639,-0.9683,-0.9734,-0.9652,-0.9523,-0.9469,-0.9422,-0.9371,-0.932,-0.934,-0.9381,-0.9381,-0.9381,-0.9381,-0.9501,-0.9501,-0.9487,-0.9551,-0.9185,-0.8931,-0.8889,-0.8874,-0.886,-0.8879,-0.8696,-0.8421,-0.8102,-0.7991,-0.8038,-0.8038,-0.8038,-0.8038,-0.8038,-0.8038,-0.8038,-0.8038,-0.8038,-0.8038,-0.8038,-0.8038,-0.8038,-0.8038,-0.8038,-0.8038,-0.8038,-0.8038,-0.8038,-0.8038,-0.8038,-0.8038,-0.8038,-0.8038,-0.8038,-0.6907,-0.7237,-0.7736,-0.804,-0.8653,-0.9198,-0.9198,-0.9466,-0.9516,-0.904,-0.9044,-0.8944,-0.8862,-0.8826,-0.8973,-0.9312,-0.9399,-0.9398,-0.9469,-0.9435,-0.9245,-0.9133,-0.8944,-0.8618,-0.8313,-0.9039,-0.9512,-0.9466,-1.0041,-1.0352,-1.0381,-1.0404,-1.0358,-1.0354,-1.0409,-1.0456,-1.049,-1.0358,-1.0358,-1.0487,-1.0192,-0.9998,-0.99,-0.9846,-0.9822,-0.9822,-0.9822,-0.9822,-0.9822,-0.9822,-0.9822,-0.9822,-0.9822,-0.9822,-0.9822,-0.9822,-0.9822,-0.9808,-0.9717,-0.9744,-0.9822,-0.9822,-0.9758,-0.9676,-0.9625,-0.9578,-0.9527,-0.9479,-0.95,-0.9537,-0.9537,-0.9537,-0.9658,-0.9658,-0.9662,-0.9766,-0.9835,-0.9462,-0.9205,-0.9268,-0.9185,-0.9184,-0.8927,-0.8849,-0.8769,-0.8394,-0.8319,-0.8197,-0.7991,-0.8002,-0.7959,-0.8012,-0.7972,-0.8038,-0.8038,-0.8038,-0.8038,-0.8038,-0.8038,-0.8038,-0.8038,-0.8038,-0.8038,-0.8038,-0.8038,-0.8038,-0.8038,-0.8038,-0.8038,-0.8038,-0.8038,-0.8038,-0.8627,-0.9107,-0.953,-0.9723,-0.9761,-0.9744,-0.9737,-0.9479,-0.9225,-0.9211,-0.8845,-0.8667,-0.8753,-0.8668,-0.8619,-0.9087,-0.9115,-0.914,-0.9188,-0.9047,-0.9035,-0.9373,-0.8585,-0.8304,-0.8894,-0.8947,-0.8961,-0.8988,-0.9509,-1.012,-1.0675,-1.0558,-1.05,-1.0504,-1.0643,-1.0649,-1.0504,-1.0649,-1.0639,-1.0477,-1.0202,-1.0063,-1.0042,-0.9897,-0.9829,-0.9822,-0.9822,-0.9822,-0.9822,-0.9822,-0.9822,-0.9822,-0.9822,-0.9822,-0.9822,-0.9822,-0.9822,-0.9822,-0.9822,-0.9822,-0.9822,-0.9822,-0.9822,-0.9795,-0.9659,-0.9713,-0.9791,-0.9659,-0.9717,-0.9822,-0.9829,-0.9825,-0.9822,-0.9832,-0.9825,-0.9785,-0.9775,-0.9744,-0.9822,-0.9792,-0.9757,-0.9582,-0.8957,-0.8923,-0.8904,-0.8867,-0.8937,-0.8706,-0.8052,-0.8021,-0.8006,-0.8041,-0.8029,-0.8038,-0.8038,-0.8038,-0.8038,-0.8038,-0.8038,-0.8038,-0.8038,-0.8038,-0.8038,-0.8038,-0.8038,-0.8038,-0.8038,-0.8038,-0.8038,-0.8038,-0.8038,-0.8038,-0.8512,-0.9026,-0.9741,-0.9789,-0.9755,-0.9741,-0.9635,-0.9544,-0.935,-0.8985,-0.8933,-0.8857,-0.8618,-0.857,-0.8673,-0.9122,-0.9043,-0.8981,-0.9362,-0.9553,-0.9493,-0.9436,-0.9501,-0.9559,-0.9529,-0.9801,-0.993,-0.9895,-1.007,-1.0294,-1.0426,-1.0578,-1.0663,-1.0663,-1.07,-1.07,-1.0663,-1.07,-1.0588,-1.0334,-1.0365,-1.0263,-1.0046,-1.0008,-0.9927,-0.9822,-0.9822,-0.9822,-0.9822,-0.9822,-0.9822,-0.9822,-0.9822,-0.9822,-0.9822,-0.9822,-0.9822,-0.9822,-0.9822,-0.9822,-0.9822,-0.9822,-0.9822,-0.9815,-0.9778,-0.9791,-0.9815,-0.9778,-0.9791,-0.9846,-0.9961,-0.9907,-0.9849,-0.9964,-0.9903,-0.9812,-0.9778,-0.9768,-0.9758,-0.984,-0.9748,-0.9624,-0.899,-0.8931,-0.891,-0.8873,-0.8907,-0.8718,-0.8062,-0.8429,-0.854,-0.8054,-0.8029,-0.8038,-0.8038,-0.8038,-0.8038,-0.8038,-0.8038,-0.8038,-0.8038,-0.8038,-0.8038,-0.8038,-0.8038,-0.8038,-0.8038,-0.8038,-0.8038,-0.8038,-0.8038,-0.8038,-0.876,-0.9288,-0.9759,-0.9789,-0.9717,-0.9652,-0.9374,-0.9289,-0.9093,-0.8766,-0.8621,-0.8529,-0.8399,-0.8337,-0.8422,-0.8859,-0.9002,-0.9166,-0.9425,-0.953,-0.9676,-0.959,-0.9915,-1.0123,-1.0055,-1.0292,-1.0399,-1.0503,-1.0458,-1.0579,-1.0483,-1.0639,-1.0721,-1.0721,-1.0721,-1.0721,-1.0721,-1.0721,-1.0636,-1.0473,-1.0487,-1.0405,-1.0239,-1.011,-1.0039,-1.0015,-0.988,-0.9859,-0.9917,-0.9849,-0.9822,-0.9829,-0.9893,-0.992,-0.993,-0.9998,-1.0022,-1.0022,-1.0022,-1.0022,-1.0012,-0.9941,-0.992,-0.9934,-1.0002,-1.0022,-1.0022,-1.0022,-1.0022,-1.0042,-1.0127,-1.0086,-1.0042,-1.0131,-1.0032,-0.992,-0.992,-0.9869,-0.9822,-0.9822,-0.983,-0.9703,-0.9372,-0.9296,-0.9154,-0.8917,-0.8846,-0.8781,-0.8471,-0.8657,-0.8717,-0.8037,-0.7961,-0.8038,-0.8038,-0.8038,-0.8038,-0.8038,-0.8038,-0.8038,-0.8038,-0.8038,-0.8038,-0.8038,-0.8038,-0.8038,-0.8038,-0.8038,-0.8038,-0.8038,-0.8038,-0.8038,-0.9269,-0.9537,-0.9693,-0.9795,-0.97,-0.9459,-0.9227,-0.9032,-0.8721,-0.848,-0.8119,-0.7996,-0.8255,-0.8,-0.7875,-0.8328,-0.8871,-0.938,-0.9418,-0.9412,-0.952,-0.9815,-1.0121,-1.0316,-1.0326,-1.0369,-1.0513,-1.062,-1.0647,-1.0658,-1.0658,-1.0649,-1.0721,-1.0721,-1.0721,-1.0721,-1.0721,-1.0721,-1.0721,-1.0717,-1.0585,-1.051,-1.0483,-1.0226,-1.0171,-1.0266,-0.9998,-0.9958,-1.007,-0.9937,-0.9883,-0.9897,-1.0029,-1.008,-1.0097,-1.0232,-1.028,-1.028,-1.028,-1.028,-1.0259,-1.0124,-1.008,-1.0103,-1.0239,-1.028,-1.028,-1.028,-1.028,-1.0283,-1.0304,-1.0293,-1.0287,-1.0304,-1.0192,-1.008,-1.008,-0.9958,-0.9849,-0.9849,-0.9858,-0.9761,-0.9761,-0.9764,-0.9567,-0.898,-0.8858,-0.8876,-0.8856,-0.8924,-0.8695,-0.8065,-0.8034,-0.7975,-0.7995,-0.7979,-0.7969,-0.7969,-0.7969,-0.7959,-0.8038,-0.8038,-0.8038,-0.8038,-0.8038,-0.8038,-0.8038,-0.8038,-0.8038,-0.8038,-0.8038,-0.8038,-0.954,-0.9768,-0.9947,-0.9846,-0.9618,-0.9418,-0.929,-0.8811,-0.8375,-0.8484,-0.8267,-0.8084,-0.83,-0.735,-0.7051,-0.8385,-0.8432,-0.8652,-0.9566,-0.9446,-0.9433,-0.9978,-1.0249,-1.0342,-1.0366,-1.0487,-1.0602,-1.05,-1.0609,-1.068,-1.068,-1.0707,-1.0721,-1.0721,-1.0721,-1.0721,-1.0721,-1.0721,-1.0721,-1.0721,-1.0694,-1.0616,-1.049,-1.0439,-1.0368,-1.0276,-1.0226,-1.0215,-1.0239,-1.0212,-1.0202,-1.0202,-1.0232,-1.0239,-1.0243,-1.027,-1.028,-1.028,-1.028,-1.028,-1.0276,-1.0249,-1.0239,-1.0246,-1.0273,-1.028,-1.028,-1.028,-1.028,-1.0307,-1.0426,-1.0368,-1.031,-1.0426,-1.0344,-1.0239,-1.0239,-0.9992,-0.9757,-0.9757,-0.9764,-0.9785,-0.9785,-0.9768,-0.9652,-0.9042,-0.8923,-0.8905,-0.8897,-0.8944,-0.8645,-0.8116,-0.7978,-0.7962,-0.7969,-0.7981,-0.8018,-0.8018,-0.8018,-0.7965,-0.8045,-0.8038,-0.8038,-0.8038,-0.8038,-0.8038,-0.8038,-0.8038,-0.8038,-0.8038,-0.8038,-0.8038,-0.9513,-0.9764,-0.9995,-0.9768,-0.9486,-0.9174,-0.8918,-0.8524,-0.819,-0.8021,-0.7997,-0.7962,-0.791,-0.7175,-0.7219,-0.9005,-0.8309,-0.7989,-0.9457,-0.925,-0.9218,-0.9869,-1.0137,-1.031,-1.0382,-1.0588,-1.069,-1.0616,-1.0677,-1.0721,-1.0721,-1.0721,-1.0721,-1.0721,-1.0721,-1.0721,-1.0721,-1.0721,-1.0721,-1.0721,-1.0721,-1.068,-1.0609,-1.0527,-1.0497,-1.05,-1.0348,-1.0324,-1.0385,-1.031,-1.028,-1.0287,-1.0361,-1.0388,-1.0399,-1.048,-1.051,-1.051,-1.051,-1.051,-1.051,-1.051,-1.0456,-1.0405,-1.0483,-1.051,-1.051,-1.051,-1.051,-1.0524,-1.0595,-1.0561,-1.0527,-1.0595,-1.0497,-1.0368,-1.0297,-1.0089,-0.9758,-0.981,-0.98,-0.9754,-0.9849,-0.9768,-0.9693,-0.9377,-0.9359,-0.9354,-0.9398,-0.9079,-0.8769,-0.8504,-0.8509,-0.83,-0.8043,-0.831,-0.8484,-0.8484,-0.8166,-0.7997,-0.7958,-0.7955,-0.8019,-0.8041,-0.8038,-0.8038,-0.8038,-0.8038,-0.8082,-0.8261,-0.8079,-0.8123,-0.954,-0.9805,-1.0025,-0.973,-0.9378,-0.9057,-0.8594,-0.8301,-0.8062,-0.762,-0.7582,-0.7619,-0.7551,-0.7381,-0.784,-0.9556,-0.8601,-0.8109,-0.9362,-0.9087,-0.9061,-0.9727,-1.0093,-1.0348,-1.0524,-1.0649,-1.0721,-1.0721,-1.0721,-1.0721,-1.0721,-1.0721,-1.0721,-1.0721,-1.0721,-1.0721,-1.0721,-1.0721,-1.0721,-1.0721,-1.0721,-1.0721,-1.0717,-1.0595,-1.0605,-1.0707,-1.0477,-1.0436,-1.0531,-1.0422,-1.0375,-1.0385,-1.0497,-1.0541,-1.0555,-1.0677,-1.0721,-1.0721,-1.0721,-1.0721,-1.0721,-1.0721,-1.0639,-1.0565,-1.0683,-1.0721,-1.0721,-1.0721,-1.0721,-1.0721,-1.0721,-1.0721,-1.0721,-1.0721,-1.0629,-1.051,-1.0399,-1.0216,-1.0025,-1.0039,-0.9829,-0.9803,-0.992,-0.9873,-0.9822,-0.9799,-0.9797,-0.9824,-0.9796,-0.9442,-0.903,-0.8882,-0.888,-0.8758,-0.8249,-0.8659,-0.886,-0.886,-0.8424,-0.8144,-0.8213,-0.8104,-0.8031,-0.7992,-0.8016,-0.8016,-0.7985,-0.8016,-0.8093,-0.8416,-0.8295,-0.8258,-0.9917,-1.012,-1.0185,-0.9876,-0.9378,-0.8932,-0.8756,-0.8113,-0.7645,-0.7742,-0.7435,-0.7229,-0.7455,-0.8089,-0.8733,-0.9308,-0.9494,-0.9574,-0.9271,-0.9343,-0.9479,-0.9717,-1.0093,-1.0392,-1.0673,-1.0711,-1.0721,-1.0721,-1.0721,-1.0721,-1.0721,-1.0721,-1.0721,-1.0721,-1.0721,-1.0721,-1.0721,-1.0721,-1.0721,-1.0721,-1.0721,-1.0721,-1.0721,-1.0707,-1.0707,-1.0717,-1.069,-1.0687,-1.0697,-1.0683,-1.068,-1.068,-1.0694,-1.07,-1.07,-1.0714,-1.0721,-1.0721,-1.0721,-1.0721,-1.0721,-1.0721,-1.0711,-1.0704,-1.0717,-1.0721,-1.0721,-1.0721,-1.0721,-1.0721,-1.0721,-1.0721,-1.0721,-1.0721,-1.0711,-1.0694,-1.0683,-1.0702,-1.0603,-1.0589,-1.0223,-0.9966,-1.0571,-1.0156,-0.9851,-0.9825,-0.9791,-0.9858,-0.9849,-0.97,-0.9503,-0.898,-0.894,-0.8858,-0.8773,-0.8882,-0.8911,-0.8911,-0.88,-0.8842,-0.8793,-0.8246,-0.7969,-0.8041,-0.7949,-0.7953,-0.8037,-0.7953,-0.8017,-0.803,-0.8556,-0.8671,-0.9569,-0.9819,-1.007,-0.9768,-0.9245,-0.8751,-0.8474,-0.8033,-0.7672,-0.766,-0.7386,-0.7259,-0.7464,-0.7794,-0.8188,-0.8816,-0.9478,-0.9627,-0.885,-0.8717,-0.8807,-0.9394,-0.969,-1.0097,-1.0666,-1.0721,-1.0721,-1.0721,-1.0721,-1.0721,-1.0721,-1.0721,-1.0721,-1.0721,-1.0721,-1.0721,-1.0721,-1.0721,-1.0721,-1.0721,-1.0721,-1.0721,-1.0721,-1.0721,-1.0721,-1.0721,-1.0721,-1.0721,-1.0721,-1.0721,-1.0721,-1.0721,-1.0721,-1.0721,-1.0721,-1.0721,-1.0721,-1.0721,-1.0721,-1.0721,-1.0721,-1.0721,-1.0721,-1.0721,-1.0721,-1.0721,-1.0721,-1.0721,-1.0721,-1.0721,-1.0721,-1.0721,-1.0721,-1.0721,-1.0721,-1.0721,-1.0721,-1.0673,-1.0737,-1.0644,-1.0521,-1.0466,-1.0622,-1.0188,-0.9751,-0.9854,-0.9757,-0.9802,-0.9744,-0.9786,-0.971,-0.9523,-0.9158,-0.8907,-0.885,-0.8947,-0.8863,-0.8863,-0.8896,-0.8893,-0.8849,-0.8621,-0.855,-0.8508,-0.8236,-0.8131,-0.8505,-0.856,-0.853,-0.8508,-0.8744,-0.88,-0.9276,-0.9614,-0.9812,-0.9649,-0.9202,-0.8632,-0.8355,-0.7926,-0.758,-0.7423,-0.7242,-0.7223,-0.7162,-0.7364,-0.7766,-0.8608,-0.9228,-0.9471,-0.8862,-0.8564,-0.8656,-0.9403,-0.9536,-0.9823,-1.0704,-1.0771,-1.0721,-1.0721,-1.0721,-1.0721,-1.0721,-1.0721,-1.0721,-1.0721,-1.0721,-1.0721,-1.0721,-1.0721,-1.0721,-1.0721,-1.0721,-1.0721,-1.0721,-1.0721,-1.0721,-1.0721,-1.0721,-1.0721,-1.0721,-1.0721,-1.0721,-1.0721,-1.0721,-1.0721,-1.0721,-1.0721,-1.0721,-1.0721,-1.0721,-1.0721,-1.0721,-1.0721,-1.0721,-1.0721,-1.0721,-1.0721,-1.0721,-1.0721,-1.0721,-1.0721,-1.0721,-1.0721,-1.0721,-1.0721,-1.0721,-1.0721,-1.0721,-1.0721,-1.069,-1.0713,-1.0649,-1.0643,-1.0652,-1.0341,-1.0015,-0.9824,-0.9831,-0.9747,-0.9825,-0.9858,-0.9796,-0.9796,-0.9453,-0.9114,-0.9149,-0.9164,-0.9081,-0.8921,-0.894,-0.8933,-0.8896,-0.8889,-0.8925,-0.8881,-0.8485,-0.8485,-0.8878,-0.8924,-0.8894,-0.8889,-0.8887,-0.8848,-0.9357,-0.9613,-0.9651,-0.9571,-0.9147,-0.8755,-0.8567,-0.7878,-0.7216,-0.7026,-0.7091,-0.7038,-0.6539,-0.7034,-0.7771,-0.8651,-0.8998,-0.9216,-0.9442,-0.9297,-0.9363,-0.9911,-0.9629,-0.9688,-1.0714,-1.0715,-1.0721,-1.0721,-1.0721,-1.0721,-1.0721,-1.0721,-1.0721,-1.0721,-1.0721,-1.0721,-1.0721,-1.0721,-1.0721,-1.0721,-1.0721,-1.0721,-1.0721,-1.0721,-1.0721,-1.0721,-1.0721,-1.0721,-1.0721,-1.0721,-1.0721,-1.0721,-1.0721,-1.0721,-1.0721,-1.0721,-1.0721,-1.0721,-1.0721,-1.0721,-1.0721,-1.0721,-1.0721,-1.0721,-1.0721,-1.0721,-1.0721,-1.0721,-1.0721,-1.0721,-1.0721,-1.0721,-1.0721,-1.0721,-1.0721,-1.0721,-1.0721,-1.0721,-1.0721,-1.0717,-1.0717,-1.0673,-1.0651,-1.0627,-1.052,-0.984,-0.9794,-0.9741,-0.9839,-0.9819,-0.9819,-0.9819,-0.9819,-0.982,-0.9768,-0.974,-0.9551,-0.8927,-0.8917,-0.8854,-0.8944,-0.8937,-0.8866,-0.8932,-0.8859,-0.8862,-0.8928,-0.8862,-0.8937,-0.8937,-0.8937,-0.8937,-0.8645,-0.8906,-0.9017,-0.8951,-0.8545,-0.8263,-0.8217,-0.7819,-0.7525,-0.7466,-0.7302,-0.7173,-0.7168,-0.6811,-0.692,-0.8161,-0.8626,-0.8985,-0.9162,-0.9253,-0.9263,-0.937,-0.9909,-1.0373,-1.0743,-1.0767,-1.0721,-1.0721,-1.0721,-1.0721,-1.0721,-1.0721,-1.0721,-1.0721,-1.0721,-1.0721,-1.0721,-1.0721,-1.0721,-1.0721,-1.0721,-1.0721,-1.0721,-1.0721,-1.0721,-1.0721,-1.0721,-1.0721,-1.0721,-1.0721,-1.0721,-1.0721,-1.0721,-1.0721,-1.0721,-1.0721,-1.0721,-1.0721,-1.0721,-1.0721,-1.0721,-1.0721,-1.0721,-1.0721,-1.0721,-1.0721,-1.0721,-1.0721,-1.0721,-1.0721,-1.0721,-1.0721,-1.0721,-1.0721,-1.0721,-1.0721,-1.0721,-1.0721,-1.0721,-1.0721,-1.0721,-1.0704,-1.066,-1.0695,-1.0596,-1.0496,-1.0049,-0.9777,-0.9854,-0.9761,-0.9822,-0.9822,-0.9822,-0.9785,-0.9813,-0.9836,-0.9759,-0.9469,-0.9129,-0.8931,-0.8889,-0.8889,-0.8934,-0.89,-0.8943,-0.8897,-0.8869,-0.8916,-0.894,-0.894,-0.894,-0.894,-0.819,-0.8413,-0.8594,-0.8606,-0.8348,-0.8135,-0.8271,-0.7911,-0.7521,-0.7543,-0.7292,-0.7095,-0.7026,-0.6633,-0.668,-0.7726,-0.8308,-0.8739,-0.9101,-0.9244,-0.9312,-0.9323,-1.0133,-1.0722,-1.0596,-1.0619,-1.0721,-1.0721,-1.0721,-1.0721,-1.0721,-1.0721,-1.0721,-1.0721,-1.0721,-1.0721,-1.0721,-1.0721,-1.0721,-1.0721,-1.0721,-1.0721,-1.0721,-1.0721,-1.0721,-1.0721,-1.0721,-1.0721,0.0,-1.0721,-1.0721,-1.0721,-1.0721,-1.0721,-1.0721,-1.0721,-1.0721,-1.0721,-1.0721,-1.0721,-1.0721,-1.0721,-1.0721,-1.0721,-1.0731,-1.0727,-1.0721,-1.0721,-1.0721,-1.0721,-1.0721,-1.0721,-1.0721,-1.0721,-1.0721,-1.0721,-1.0721,-1.0721,-1.0721,-1.0721,-1.0721,-1.0721,-1.0721,-1.0643,-1.0692,-1.0637,-1.0337,-1.0066,-0.9883,-0.9797,-0.9741,-0.9741,-0.9741,-0.9844,-0.9787,-0.9774,-0.9789,-0.9856,-0.9399,-0.9202,-0.9262,-0.9262,-0.9218,-0.9239,-0.9003,-0.8843,-0.8874,-0.8874,-0.8874,-0.8874,-0.8874,-0.8845,0.0,-0.817,-0.8336,-0.8564,-0.8476,-0.8302,-0.85,-0.8,0.0,-0.7259,-0.7138,-0.6881,-0.6244,-0.6448,-0.6955,-0.7414,-0.7911,-0.8413,-0.913,-0.9442,-0.9618,-0.9696,-1.0401,-1.0706,-1.045,-1.0596,-1.0721,-1.0721,-1.0721,-1.0721,-1.0721,-1.0721,-1.0721,-1.0721,-1.0721,-1.0721,-1.0721,-1.0721,-1.0721,-1.0721,-1.0721,-1.0721,-1.0721,-1.0721,-1.0721,-1.0721,-1.0721,-1.0721,-1.0721,-1.0721,-1.0721,-1.0721,-1.0721,-1.0721,-1.0721,-1.0721,-1.0721,-1.0721,-1.0721,-1.0721,-1.0721,-1.0721,-1.0721,-1.0727,-1.0748,-1.0738,-1.0721,-1.0721,-1.0721,-1.0721,-1.0721,-1.0721,-1.0721,-1.0721,-1.0721,-1.0721,-1.0721,-1.0721,-1.0721,-1.0721,-1.0721,-1.0721,-1.0721,-1.0721,-1.0673,-1.0664,-1.0763,-1.0446,-0.9918,-0.9891,-0.9885,-0.9885,-0.9885,-0.9833,-0.9824,-0.9801,-0.9778,-0.9758,-0.9751,-0.9804,-0.9778,-0.9775,-0.9768,-0.9757,-0.9265,-0.902,-0.902,-0.902,-0.902,-0.902,-0.902,-0.8951,-0.7317,0.0,-0.7839,-0.7923,-0.7971,-0.8088,0.0,-0.7895,-0.7653,-0.7663,-0.7274,-0.6746,-0.6205,-0.6318,-0.6518,-0.6666,-0.7354,-0.8031,-0.8576,-0.9334,-1.0019,-1.017,-1.056,-1.0644,-1.0527,-1.0588,-1.0721,-1.0721,-1.0721,-1.0721,-1.0721,-1.0721,-1.0721,-1.0721,-1.0721,-1.0721,-1.0721,-1.0721,-1.0721,-1.0721,-1.0721,-1.0721,-1.0721,-1.0721,-1.0721,-1.0721,-1.0721,-1.0721,-1.0721,-1.0721,-1.0721,-1.0721,-1.0721,-1.0721,-1.0721,-1.0721,-1.0721,-1.0721,-1.0721,-1.0721,-1.0721,-1.0721,-1.0731,-1.0748,-1.0751,-1.0738,-1.0724,-1.0741,-1.0734,-1.0721,-1.0721,-1.0721,-1.0721,-1.0721,-1.0721,-1.0721,-1.0721,-1.0721,-1.0721,-1.0721,-1.0721,-1.0721,-1.0721,-1.0721,-1.0707,-1.0673,-1.0702,-1.0613,-1.0446,-1.0479,-1.0541,-1.0541,-1.0541,-1.0527,-1.0489,-1.0086,-0.9804,-0.9781,-0.9774,-0.9758,-0.984,-0.984,-0.9789,-0.9804,-0.9683,-0.962,-0.962,-0.962,-0.962,-0.962,-0.962,-0.9599,-0.7134,-0.7428,-0.774,-0.7821,-0.7982,-0.8112,-0.8112,-0.7987,-0.7932,-0.7882,-0.7218,-0.6478,-0.5862,-0.5877,-0.6033,-0.6344,-0.704,-0.7874,-0.8811,-0.947,-1.0005,-1.0362,-1.0577,-1.0612,-1.0599,-1.067,-1.0721,-1.0721,-1.0721,-1.0721,-1.0721,-1.0721,-1.0721,-1.0721,-1.0721,-1.0721,-1.0721,-1.0721,-1.0721,-1.0721,-1.0721,-1.0721,-1.0721,-1.0721,-1.0721,-1.0721,-1.0721,-1.0721,-1.0721,-1.0721,-1.0721,-1.0721,-1.0721,-1.0721,-1.0721,-1.0721,-1.0721,-1.0721,-1.0721,-1.0721,-1.0721,-1.0721,-1.0727,-1.0744,-1.0635,-0.8435,-0.6527,-0.9791,-1.0738,-1.0721,-1.0721,-1.0721,-1.0721,-1.0721,-1.0721,-1.0721,-1.0721,-1.0721,-1.0721,-1.0721,-1.0721,-1.0721,-1.0721,-1.0721,-1.0721,-1.0721,-1.0653,-1.0733,-1.0733,-1.0664,-1.075,-1.075,-1.075,-1.0694,-1.0686,-1.0461,-1.012,-0.9781,-0.9774,-0.9852,-0.9798,-0.9856,-0.9788,-0.983,-0.9751,-0.9829,-0.9829,-0.9829,-0.9829,-0.9829,-0.9829,-0.9794,-0.7096,-0.7462,-0.7831,-0.7992,-0.8112,-0.8236,-0.8236,-0.8182,-0.8132,-0.7962,-0.7157,-0.6288,-0.5564,-0.5487,-0.5716,-0.629,-0.6972,-0.7938,-0.9393,-0.9671,-0.9887,-1.0417,-1.0542,-1.0568,-1.0673,-1.0707,-1.0721,-1.0721,-1.0721,-1.0721,-1.0721,-1.0721,-1.0721,-1.0721,-1.0721,-1.0721,-1.0721,-1.0721,-1.0721,-1.0721,-1.0721,-1.0721,-1.0721,-1.0721,-1.0721,-1.0721,-1.0721,-1.0721,-1.0721,-1.0721,-1.0721,-1.0721,-1.0721,-1.0721,-1.0721,-1.0721,-1.0721,-1.0721,-1.0721,-1.0721,-1.0721,-1.0721,-1.0721,-1.0734,-1.0655,-0.5747,-0.1461,-0.8709,-1.0741,-1.0721,-1.0721,-1.0721,-1.0721,-1.0721,-1.0721,-1.0721,-1.0721,-1.0721,-1.0721,-1.0721,-1.0721,-1.0721,-1.0721,-1.0721,-1.0721,-1.0721,-1.0721,-1.0721,-1.0721,-1.0721,-1.0721,-1.0721,-1.0721,-1.0754,-1.0763,-1.059,-1.0324,-0.9819,-0.9764,-0.9754,-0.9757,-0.9787,-0.9846,-0.9822,-0.9822,-0.9822,-0.9822,-0.9822,-0.9822,-0.9822,-0.9822,-0.9758,-0.7158,-0.7692,-0.8209,-0.8153,-0.8312,-0.8376,-0.8236,-0.8172,-0.8047,-0.7676,-0.7283,-0.6734,-0.5927,-0.5962,-0.6264,-0.6424,-0.7632,-0.8914,-0.9819,-1.0211,-1.0434,-1.051,-1.0576,-1.0643,-1.0538,-1.0643,-1.0721,-1.0721,-1.0721,-1.0721,-1.0721,-1.0721,-1.0721,-1.0721,-1.0721,-1.0721,-1.0721,-1.0721,-1.0721,-1.0721,-1.0721,-1.0721,-1.0721,-1.0721,-1.0721,-1.0721,-1.0721,-1.0721,-1.0721,-1.0721,-1.0721,-1.0721,-1.0721,-1.0721,-1.0721,-1.0721,-1.0721,-1.0721,-1.0721,-1.0721,-1.0721,-1.0721,-1.0734,-1.0755,-1.0658,-0.5752,-0.1465,-0.8737,-1.0758,-1.0721,-1.0721,-1.0721,-1.0721,-1.0721,-1.0721,-1.0721,-1.0721,-1.0721,-1.0721,-1.0721,-1.0721,-1.0721,-1.0721,-1.0721,-1.0721,-1.0721,-1.0721,-1.0721,-1.0721,-1.0721,-1.0721,-1.0721,-1.0721,-1.0704,-1.066,-1.0263,-0.9847,-0.983,-0.9745,-0.9832,-0.9852,-0.9831,-0.9824,-0.9822,-0.9822,-0.9822,-0.9822,-0.9822,-0.9822,-0.9822,-0.9822,-0.9808,-0.7379,-0.7822,-0.823,-0.8233,-0.8456,-0.8602,-0.8268,-0.8306,-0.8252,-0.7872,-0.7349,-0.6768,-0.6209,-0.6309,-0.6731,-0.7389,-0.8241,-0.9048,-0.9781,-0.9954,-1.025,-1.0425,-1.051,-1.0602,-1.0616,-1.0677,-1.0721,-1.0721,-1.0721,-1.0721,-1.0721,-1.0721,-1.0721,-1.0721,-1.0721,-1.0721,-1.0721,-1.0721,-1.0721,-1.0721,-1.0721,-1.0721,-1.0721,-1.0721,-1.0721,-1.0721,-1.0721,-1.0721,-1.0721,-1.0721,-1.0721,-1.0721,-1.0721,-1.0721,-1.0721,-1.0721,-1.0721,-1.0721,-1.0721,-1.0721,-1.0721,-1.0721,-1.0734,-1.0761,-1.0662,-0.5754,-0.1465,-0.8742,-1.0765,-1.0721,-1.0721,-1.0721,-1.0721,-1.0721,-1.0721,-1.0721,-1.0721,-1.0721,-1.0721,-1.0721,-1.0721,-1.0721,-1.0721,-1.0721,-1.0721,-1.0721,-1.0721,-1.0721,-1.0721,-1.0721,-1.0721,-1.0721,-1.0721,-1.0687,-1.074,-1.04,-1.0354,-1.0347,-1.0293,-1.028,-1.0329,-1.0137,-1.0012,-1.007,-0.9861,-0.9818,-0.9818,-0.9947,-1.007,-1.007,-0.9944,-0.9818,-0.7551,-0.7983,-0.8327,-0.8353,-0.8502,-0.8534,-0.821,-0.8263,-0.8263,-0.8112,-0.7604,-0.6995,-0.6552,-0.6891,-0.7444,-0.8282,-0.8808,-0.9303,-0.9751,-0.9941,-1.012,-1.0354,-1.048,-1.0578,-1.066,-1.07,-1.0707,-1.067,-1.07,-1.0721,-1.0721,-1.0721,-1.0721,-1.0721,-1.0721,-1.0721,-1.0721,-1.0721,-1.0721,-1.0721,-1.0721,-1.0721,-1.0721,-1.0721,-1.0721,-1.0721,-1.0721,-1.0721,-1.0721,-1.0721,-1.0721,-1.0721,-1.0721,-1.0721,-1.0721,-1.0721,-1.0721,-1.0721,-1.0721,-1.0721,-1.0721,-1.0721,-1.0734,-1.0352,-0.8742,-0.441,-0.1465,-0.8742,-1.0765,-1.0721,-1.0721,-1.0721,-1.0721,-1.0721,-1.0721,-1.0721,-1.0721,-1.0721,-1.0721,-1.0721,-1.0721,-1.0721,-1.0721,-1.0721,-1.0721,-1.0721,-1.0721,-1.0721,-1.0721,-1.0721,-1.0721,-1.0721,-1.0721,-1.0673,-1.0689,-1.0678,-1.0763,-1.0656,-1.075,-1.0729,-1.0551,-1.0445,-1.0314,-1.028,-1.0161,-0.9975,-0.9972,-1.0232,-1.036,-1.0364,-1.0103,-0.9975,-0.7658,-0.8107,-0.8596,-0.8739,-0.8289,-0.7875,-0.808,-0.7983,-0.7961,-0.826,-0.8139,-0.7784,-0.7148,-0.767,-0.8314,-0.8885,-0.9398,-0.9914,-1.0365,-1.0561,-1.0663,-1.0687,-1.0697,-1.0653,-1.0521,-1.0636,-1.066,-1.0517,-1.0639,-1.0721,-1.0721,-1.0721,-1.0721,-1.0721,-1.0721,-1.0721,-1.0721,-1.0721,-1.0721,-1.0721,-1.0721,-1.0721,-1.0721,-1.0721,-1.0721,-1.0721,-1.0721,-1.0721,-1.0721,-1.0721,-1.0721,-1.0721,-1.0721,-1.0721,-1.0721,-1.0721,-1.0721,-1.0721,-1.0721,-1.0721,-1.0721,-1.0721,-1.0734,-0.9398,-0.2808,-0.04,-0.1465,-0.8742,-1.0765,-1.0721,-1.0721,-1.0721,-1.0721,-1.0721,-1.0721,-1.0721,-1.0721,-1.0721,-1.0721,-1.0721,-1.0721,-1.0721,-1.0721,-1.0721,-1.0721,-1.0721,-1.0721,-1.0721,-1.0721,-1.0721,-1.0721,-1.0721,-1.0721,-1.0714,-1.0704,-1.0704,-1.07,-1.069,-1.0697,-1.0575,-1.0293,-1.0541,-1.0548,-1.0414,-1.0531,-1.0527,-1.0263,-1.0266,-1.0397,-1.0658,-1.0658,-1.0524,-0.7947,-0.8285,-0.8497,-0.8127,-0.8065,-0.8189,-0.8498,-0.8793,-0.8926,-0.8655,-0.8344,-0.8046,-0.7545,-0.8024,-0.8751,-0.9154,-0.9598,-1.0086,-1.0443,-1.0466,-1.048,-1.0568,-1.0578,-1.0521,-1.0375,-1.0578,-1.0619,-1.0378,-1.0582,-1.0639,-1.0456,-1.0619,-1.0677,-1.0582,-1.067,-1.0721,-1.0721,-1.0721,-1.0673,-1.0713,-1.0578,-1.0629,-1.0717,-1.0757,-1.0764,-1.0721,-1.0721,-1.0721,-1.0721,-1.0721,-1.0721,-1.0721,-1.0721,-1.0721,-1.0721,-1.0721,-1.0721,-1.0721,-1.0721,-1.0721,-1.0721,-1.0738,-1.0761,-0.9422,-0.2144,0.0,-0.1469,-0.8748,-1.0765,-1.0721,-1.0721,-1.0721,-1.0721,-1.0721,-1.0721,-1.0721,-1.0721,-1.0721,-1.0721,-1.0721,-1.0721,-1.0721,-1.0721,-1.0721,-1.0721,-1.0721,-1.0721,-1.0721,-1.0721,-1.0721,-1.0721,-1.0721,-1.0721,-1.0721,-1.0721,-1.0721,-1.0721,-1.0721,-1.0721,-1.067,-1.0558,-1.0609,-1.0612,-1.0555,-1.0592,-1.0544,-1.0412,-1.0412,-1.0544,-1.0548,-1.0548,-1.0544,-0.7958,-0.8125,-0.8198,-0.7893,-0.8119,-0.8585,-0.9433,-0.9635,-0.948,-0.9063,-0.8571,-0.8243,-0.7919,-0.8367,-0.8937,-0.9295,-0.9696,-1.0137,-1.0388,-1.0341,-1.0317,-1.0415,-1.0426,-1.0368,-1.0222,-1.0436,-1.0477,-1.0226,-1.0439,-1.0493,-1.029,-1.0473,-1.0534,-1.0429,-1.0571,-1.0626,-1.0582,-1.0626,-1.0575,-1.0558,-1.0375,-1.0436,-1.0713,-1.0606,-1.0616,-1.0582,-1.0629,-1.0757,-1.0723,-1.0683,-1.0721,-1.0721,-1.0721,-1.0721,-1.0721,-1.0721,-1.0721,-1.0721,-1.0721,-1.0721,-1.0724,-1.0748,-0.9137,-0.6445,-0.1474,0.0,-0.1471,-0.8739,-1.0755,-1.0721,-1.0721,-1.0721,-1.0721,-1.0721,-1.0721,-1.0721,-1.0721,-1.0721,-1.0721,-1.0721,-1.0721,-1.0721,-1.0721,-1.0721,-1.0721,-1.0721,-1.0721,-1.0721,-1.0721,-1.0721,-1.0721,-1.0721,-1.0721,-1.0721,-1.0721,-1.0721,-1.0721,-1.0721,-1.0721,-1.0721,-1.0721,-1.0721,-1.0721,-1.0721,-1.0616,-1.0565,-1.0565,-1.0565,-1.0565,-1.0565,-1.0565,-1.0565,-0.7466,-0.7501,-0.7631,-0.8255,-0.847,-0.9082,-1.0789,-1.0126,-0.9288,-0.9462,-0.8895,-0.8334,-0.8494,-0.8832,-0.9208,-0.9244,-0.9679,-1.01,-1.0256,-1.0276,-1.0276,-1.028,-1.028,-1.0219,-1.0063,-1.0188,-1.0215,-1.0059,-1.0192,-1.028,-1.0276,-1.028,-1.028,-1.028,-1.0415,-1.0422,-1.0283,-1.0419,-1.0419,-1.0276,-1.0124,-1.0259,-1.0675,-1.0538,-1.0407,-1.0287,-1.0561,-1.0677,-1.0696,-1.0733,-1.0717,-1.0721,-1.0721,-1.0721,-1.0721,-1.0721,-1.0721,-1.0721,-1.0721,-1.0721,-1.0724,-1.0748,-0.5887,0.0,0.0,-0.0,-0.1604,-0.8717,-1.0738,-1.0721,-1.0721,-1.0721,-1.0721,-1.0721,-1.0721,-1.0721,-1.0721,-1.0721,-1.0721,-1.0721,-1.0721,-1.0721,-1.0721,-1.0721,-1.0721,-1.0721,-1.0721,-1.0721,-1.0721,-1.0721,-1.0721,-1.0721,-1.0721,-1.0721,-1.0721,-1.0721,-1.0721,-1.0721,-1.0721,-1.0721,-1.0721,-1.0721,-1.0721,-1.0721,-1.0721,-1.0721,-1.0721,-1.0721,-1.0721,-1.0721,-1.0721,-1.0721,-0.8329,-0.8332,-0.817,-0.8286,-0.8881,-0.9415,-0.9473,-0.9627,-0.9824,-0.9993,-0.9734,-0.9184,-0.8808,-0.897,-0.9188,-0.9336,-0.9523,-0.9829,-1.008,-1.0025,-0.9998,-1.0103,-1.0117,-1.0056,-0.9903,-1.0127,-1.0171,-0.991,-1.0131,-1.0185,-0.9968,-1.0161,-1.0232,-1.012,-1.0263,-1.0324,-1.028,-1.0324,-1.027,-1.012,-1.0073,-1.0131,-1.0276,-1.0039,-0.9919,-0.9891,-1.0058,-1.0317,-1.0689,-1.075,-1.0757,-1.0721,-1.0721,-1.0721,-1.0721,-1.0721,-1.0721,-1.0721,-1.0721,-1.0721,-1.0724,-1.0748,-0.5887,0.0,0.0,-0.3481,-0.793,-1.0082,-1.0738,-1.0721,-1.0721,-1.0721,-1.0721,-1.0721,-1.0721,-1.0721,-1.0721,-1.0721,-1.0721,-1.0721,-1.0721,-1.0721,-1.0721,-1.0721,-1.0721,-1.0721,-1.0721,-1.0721,-1.0721,-1.0721,-1.0721,-1.0721,-1.0721,-1.0721,-1.0721,-1.0721,-1.0721,-1.0721,-1.0721,-1.0721,-1.0721,-1.0721,-1.0721,-1.0721,-1.0721,-1.0721,-1.0721,-1.0721,-1.0721,-1.0721,-1.0721,-1.0721,-0.812,-0.8393,-0.8417,-0.816,-0.8861,-0.9492,-0.902,-0.9612,-1.0281,-1.0551,-1.017,-0.9606,-0.9325,-0.9219,-0.9273,-0.9364,-0.9557,-0.9737,-0.9856,-0.9842,-0.9852,-0.9947,-0.9958,-0.9924,-0.9829,-0.9988,-1.0022,-0.9836,-0.9992,-1.0015,-0.9832,-0.9998,-1.0056,-0.9961,-1.0107,-1.0161,-1.0097,-1.0158,-1.0114,-0.9961,-0.9961,-1.0008,-0.9965,-0.9875,-0.9757,-0.984,-0.984,-1.0035,-1.041,-1.0569,-1.0708,-1.0764,-1.0764,-1.067,-1.0721,-1.0721,-1.0721,-1.0721,-1.0721,-1.0721,-1.0724,-1.0748,-0.7772,-0.3742,-0.0801,-0.495,-1.0645,-1.0748,-1.0731,-1.0721,-1.0721,-1.0721,-1.0721,-1.0721,-1.0721,-1.0721,-1.0721,-1.0721,-1.0721,-1.0721,-1.0721,-1.0721,-1.0721,-1.0721,-1.0721,-1.0721,-1.0721,-1.0721,-1.0721,-1.0721,-1.0721,-1.0721,-1.0721,-1.0721,-1.0721,-1.0721,-1.0721,-1.0721,-1.0721,-1.0721,-1.0721,-1.0721,-1.0721,-1.0721,-1.0721,-1.0721,-1.0721,-1.0721,-1.0721,-1.0721,-1.0721,-1.0721,-0.7495,-0.8058,-0.8369,-0.8058,-0.8681,-0.944,-0.9263,-0.9757,-1.0408,-1.0791,-1.0203,-0.9629,-0.9804,-0.9586,-0.9398,-0.9384,-0.9605,-0.9741,-0.9625,-0.9707,-0.9785,-0.9798,-0.9788,-0.9781,-0.9781,-0.9791,-0.9795,-0.9781,-0.9805,-0.9808,-0.9781,-0.9805,-0.9815,-0.9802,-0.9947,-0.9961,-0.9822,-0.9961,-0.9958,-0.9822,-0.9822,-0.9815,-0.9802,-0.9815,-0.9822,-0.9822,-0.9822,-0.9858,-0.9856,-1.0367,-1.0608,-1.0606,-1.0739,-1.0692,-1.0683,-1.0694,-1.0694,-1.0683,-1.0711,-1.0711,-1.0704,-1.0741,-1.0751,-0.9525,-0.2929,-0.547,-1.0748,-1.0727,-1.0721,-1.0721,-1.0721,-1.0721,-1.0721,-1.0721,-1.0721,-1.0721,-1.0721,-1.0721,-1.0721,-1.0721,-1.0721,-1.0721,-1.0721,-1.0731,-1.0741,-1.0741,-1.0731,-1.0724,-1.0724,-1.0724,-1.0721,-1.0721,-1.0721,-1.0721,-1.0721,-1.0721,-1.0721,-1.0721,-1.0721,-1.0721,-1.0721,-1.0721,-1.0721,-1.0721,-1.0721,-1.0721,-1.0721,-1.0721,-1.0721,-1.0721,-1.0721,-1.0721,-0.9177,-0.8873,-0.8348,-0.9556,-0.9421,-0.9019,-0.9133,-0.9474,-0.9767,-1.0099,-0.9942,-0.9771,-0.9532,-0.9459,-0.952,-0.9401,-0.9435,-0.9507,-0.9598,-0.9534,-0.952,-0.9642,-0.9547,-0.9476,-0.9476,-0.9585,-0.9605,-0.9486,-0.969,-0.972,-0.949,-0.9696,-0.9771,-0.9659,-0.9795,-0.9852,-0.9822,-0.9852,-0.9852,-0.9822,-0.9822,-0.9761,-0.9536,-0.9768,-0.9822,-0.9822,-0.9822,-0.9801,-0.984,-0.9935,-1.0029,-1.0062,-1.0458,-1.0739,-1.0656,-1.0637,-1.0736,-1.0677,-1.0643,-1.0643,-1.0695,-1.0687,-1.0738,-1.0475,-0.8825,-0.9513,-1.0748,-1.0727,-1.0721,-1.0721,-1.0721,-1.0721,-1.0721,-1.0721,-1.0721,-1.0721,-1.0721,-1.0721,-1.0721,-1.0721,-1.0721,-1.0721,-1.0721,-1.0685,-1.0766,-1.0647,-1.0689,-1.0748,-1.0748,-1.0748,-1.0741,-1.0721,-1.0721,-1.0721,-1.0721,-1.0721,-1.0721,-1.0721,-1.0721,-1.0721,-1.0721,-1.0721,-1.0721,-1.0721,-1.0721,-1.0721,-1.0721,-1.0721,-1.0721,-1.0721,-1.0721,-1.0721,-0.8657,-0.8781,-0.8811,-1.0324,-0.9764,-0.8974,-0.9004,-0.9268,-0.9569,-0.9801,-0.9873,-0.9677,-0.9456,-0.9445,-0.9294,-0.931,-0.9334,-0.9384,-0.9391,-0.9384,-0.9412,-0.949,-0.9432,-0.9381,-0.9381,-0.9452,-0.9466,-0.9388,-0.9523,-0.9544,-0.9391,-0.9527,-0.9578,-0.9503,-0.9571,-0.9608,-0.9608,-0.9608,-0.9608,-0.9608,-0.9608,-0.9608,-0.9608,-0.9686,-0.9844,-0.9847,-0.9791,-0.9744,-0.9814,-0.9814,-0.9777,-0.9784,-1.0171,-1.0215,-1.0287,-1.0233,-1.0476,-1.0707,-1.0397,-1.0424,-1.0651,-1.0673,-1.0727,-1.0734,-1.0724,-1.0727,-1.0734,-1.0724,-1.0721,-1.0721,-1.0721,-1.0721,-1.0721,-1.0721,-1.0721,-1.0721,-1.0721,-1.0721,-1.0721,-1.0721,-1.0721,-1.0721,-1.0721,-1.0936,-1.1001,-1.0735,-0.7806,-0.5615,-0.5606,-0.8573,-1.0744,-1.0721,-1.0721,-1.0721,-1.0721,-1.0721,-1.0721,-1.0721,-1.0721,-1.0721,-1.0721,-1.0721,-1.0721,-1.0721,-1.0721,-1.0721,-1.0721,-1.0721,-1.0721,-1.0721,-1.0721,-1.0721,-0.7957,-0.868,-0.948,-1.0345,-0.9694,-0.8819,-0.8933,-0.9076,-0.9375,-0.9726,-0.9822,-0.9734,-0.9442,-0.9288,-0.9195,-0.9161,-0.9222,-0.9269,-0.9167,-0.9242,-0.9313,-0.934,-0.932,-0.9306,-0.9306,-0.9327,-0.933,-0.9306,-0.9354,-0.9357,-0.9306,-0.9354,-0.9367,-0.9344,-0.9367,-0.9381,-0.9381,-0.9381,-0.9381,-0.9381,-0.9354,-0.9405,-0.953,-0.9652,-0.9696,-0.9775,-0.9771,-0.9822,-0.9822,-0.9822,-0.9771,-0.9757,-0.9757,-0.983,-0.9813,-0.9839,-1.0092,-1.0485,-0.9999,-1.0187,-1.0746,-1.0636,-1.07,-1.0721,-1.0721,-1.0721,-1.0721,-1.0721,-1.0721,-1.0721,-1.0721,-1.0721,-1.0721,-1.0721,-1.0721,-1.0721,-1.0721,-1.0721,-1.0721,-1.0721,-1.0721,-1.0727,-1.0755,-1.1168,-1.0901,-0.9151,-0.375,0.0,0.0,-0.6281,-1.0751,-1.0724,-1.0721,-1.0721,-1.0721,-1.0744,-1.0758,-1.0758,-1.0758,-1.0758,-1.0758,-1.0734,-1.0721,-1.0721,-1.0721,-1.0721,-1.0721,-1.0721,-1.0721,-1.0721,-1.0721,-1.0721,-0.9321,-0.9742,-0.9818,-0.9556,-0.9134,-0.8747,-0.8876,-0.8886,-0.9091,-0.9656,-0.9785,-0.9794,-0.9502,-0.9211,-0.8924,-0.8994,-0.8984,-0.9035,-0.9137,-0.9062,-0.9042,-0.9167,-0.9072,-0.8998,-0.8998,-0.911,-0.913,-0.9008,-0.9235,-0.9269,-0.9011,-0.9242,-0.932,-0.9188,-0.9313,-0.9381,-0.9381,-0.9381,-0.9381,-0.9258,-0.901,-0.8957,-0.898,-0.9211,-0.9425,-0.9795,-0.9812,-0.9822,-0.9822,-0.9822,-0.9832,-0.9849,-0.9849,-0.9741,-0.9774,-0.9777,-0.9871,-0.9924,-0.982,-1.0176,-1.0724,-1.0743,-1.0747,-1.0721,-1.0721,-1.0721,-1.0721,-1.0721,-1.0721,-1.0721,-1.0721,-1.0721,-1.0721,-1.0721,-1.0721,-1.0721,-1.0721,-1.0721,-1.0721,-1.0721,-1.0721,-1.0761,-1.0756,-1.0826,-0.8617,-0.2442,-0.0675,0.0,0.0,-0.6303,-1.0645,-1.0724,-1.0721,-1.0721,-1.0721,-1.0843,-1.0917,-1.0917,-1.0917,-1.0917,-1.0917,-1.0792,-1.0721,-1.0721,-1.0721,-1.0721,-1.0721,-1.0721,-1.0721,-1.0721,-1.0721,-1.0721,-0.8647,-0.918,-0.9752,-1.0575,-0.9533,-0.8463,-0.8803,-0.8855,-0.892,-0.9262,-0.926,-0.9218,-0.9164,-0.9034,-0.8874,-0.885,-0.894,-0.896,-0.9025,-0.8977,-0.896,-0.9025,-0.8977,-0.894,-0.894,-0.8994,-0.8971,-0.8821,-0.9011,-0.9001,-0.8699,-0.8971,-0.9062,-0.891,-0.9052,-0.9133,-0.9133,-0.9133,-0.9133,-0.9017,-0.895,-0.8957,-0.9037,-0.915,-0.9425,-0.9825,-0.9789,-0.9747,-0.9822,-0.9822,-0.9822,-0.9822,-0.9822,-0.9822,-0.9829,-0.9771,-0.9754,-0.9852,-0.9817,-0.9949,-1.03,-1.0579,-1.073,-1.0721,-1.0721,-1.0721,-1.0721,-1.0721,-1.0721,-1.0721,-1.0721,-1.0721,-1.0721,-1.0721,-1.0721,-1.0721,-1.0721,-1.0721,-1.0721,-1.0721,-1.0721,-1.0772,-1.1201,-1.086,-0.8231,-0.1089,-0.3382,-0.4567,-0.0535,-0.6297,-1.0761,-1.0724,-1.0721,-1.0721,-1.0721,-1.0782,-1.0819,-1.0819,-1.0819,-1.0819,-1.0819,-1.0836,-1.0809,-1.0721,-1.0721,-1.0721,-1.0721,-1.0721,-1.0721,-1.0721,-1.0721,-1.0721,-0.8358,-0.8704,-0.9551,-1.1505,-1.0184,-0.8553,-0.8915,-0.891,-0.8872,-0.8815,-0.8825,-0.8855,-0.8732,-0.8752,-0.8846,-0.8779,-0.8849,-0.8825,-0.8821,-0.8855,-0.8866,-0.8828,-0.8855,-0.8866,-0.8825,-0.8821,-0.8774,-0.8662,-0.8757,-0.8723,-0.8496,-0.8699,-0.8771,-0.8655,-0.8801,-0.8879,-0.8879,-0.892,-0.892,-0.8879,-0.892,-0.8994,-0.91,-0.91,-0.9298,-0.969,-0.9769,-0.9792,-0.9771,-0.9808,-0.9822,-0.9822,-0.9822,-0.9822,-0.9822,-0.9822,-0.9822,-0.9836,-0.9824,-0.986,-0.9905,-1.0534,-1.0699,-1.0721,-1.0721,-1.0721,-1.0721,-1.0721,-1.0721,-1.0721,-1.0721,-1.0721,-1.0721,-1.0721,-1.0721,-1.0721,-1.0721,-1.0721,-1.0721,-1.0721,-1.0755,-1.109,-1.1489,-1.1215,-0.8447,-0.109,-0.6118,-0.8808,-0.335,-0.7369,-1.0744,-1.0721,-1.0721,-1.0721,-1.0721,-1.0789,-1.0819,-1.0778,-1.0812,-1.0833,-1.0833,-1.0907,-1.0894,-1.0778,-1.0778,-1.0778,-1.0778,-1.0778,-1.0778,-1.0778,-1.0778,-1.0758,-0.9421,-0.902,-0.8964,-1.1652,-1.1027,-0.9753,-0.9395,-0.8935,-0.8593,-0.8573,-0.8723,-0.8723,-0.8187,-0.8516,-0.8888,-0.8699,-0.8601,-0.8615,-0.8506,-0.8632,-0.8669,-0.8523,-0.8632,-0.8665,-0.852,-0.8506,-0.8503,-0.8496,-0.8503,-0.8499,-0.8482,-0.8499,-0.8503,-0.8496,-0.8642,-0.8723,-0.8723,-0.8866,-0.8866,-0.8723,-0.8869,-0.8944,-0.895,-0.895,-0.9028,-0.9295,-0.96,-0.9856,-0.9755,-0.9768,-0.9822,-0.9822,-0.9822,-0.9822,-0.9822,-0.9822,-0.9822,-0.9822,-0.9829,-0.9774,-0.9888,-1.0551,-1.0753,-1.0721,-1.0721,-1.0721,-1.0721,-1.0721,-1.0721,-1.0721,-1.0721,-1.0721,-1.0721,-1.0721,-1.0721,-1.0721,-1.0721,-1.0721,-1.0721,-1.0721,-1.1118,-1.1504,-1.1646,-1.153,-0.891,-0.123,-0.6168,-1.0581,-1.0143,-1.0502,-1.0744,-1.0721,-1.0721,-1.0721,-1.0721,-1.0978,-1.108,-1.0945,-1.1063,-1.1138,-1.1138,-1.1016,-1.0945,-1.0938,-1.0938,-1.0938,-1.0938,-1.0938,-1.0938,-1.0938,-1.0938,-1.086,-0.9007,-0.9438,-1.0182,-1.1734,-1.145,-1.0889,-1.1315,-0.9784,-0.8289,-0.8361,-0.8319,-0.8267,-0.8033,-0.8482,-0.8716,-0.8335,-0.8299,-0.8374,-0.8374,-0.8526,-0.8543,-0.8489,-0.853,-0.854,-0.8486,-0.8482,-0.8445,-0.8353,-0.8431,-0.8397,-0.8208,-0.8381,-0.8438,-0.835,-0.8486,-0.8564,-0.8564,-0.8618,-0.8618,-0.8567,-0.872,-0.8794,-0.8794,-0.8893,-0.8967,-0.9025,-0.9346,-0.9549,-0.9622,-0.9764,-0.9822,-0.9822,-0.9822,-0.9822,-0.9822,-0.9822,-0.9822,-0.9822,-0.9822,-0.9831,-0.989,-1.0249,-1.0548,-1.0726,-1.069,-1.0721,-1.0721,-1.0721,-1.0721,-1.0721,-1.0721,-1.0721,-1.0721,-1.0721,-1.0721,-1.0721,-1.0721,-1.0721,-1.0748,-1.0712,-1.0911,-1.1149,-1.1486,-1.1586,-0.9844,-0.4565,-0.5742,-0.8125,-1.0404,-1.0761,-1.0727,-1.0721,-1.0721,-1.0721,-1.0721,-1.0907,-1.1002,-1.0951,-1.1084,-1.1162,-1.1162,-1.1206,-1.1185,-1.1087,-1.128,-1.1236,-1.0948,-1.0948,-1.0995,-1.1087,-1.1087,-1.1056,-0.8453,-0.9178,-1.0133,-1.12,-1.132,-1.1333,-1.202,-1.0481,-0.88,-0.8709,-0.8308,-0.7985,-0.8021,-0.8299,-0.8457,-0.8079,-0.8153,-0.8227,-0.8227,-0.827,-0.8287,-0.834,-0.8381,-0.8391,-0.834,-0.8333,-0.8296,-0.8201,-0.8279,-0.8245,-0.8052,-0.8228,-0.8313,-0.8272,-0.8364,-0.8411,-0.8411,-0.8459,-0.8459,-0.8414,-0.8564,-0.8662,-0.8713,-0.8815,-0.8889,-0.8947,-0.9089,-0.9269,-0.9469,-0.9669,-0.9751,-0.9754,-0.9802,-0.9822,-0.9822,-0.9822,-0.9822,-0.9822,-0.9822,-0.9794,-0.982,-1.0099,-1.0375,-1.0654,-1.0677,-1.0721,-1.0721,-1.0721,-1.0721,-1.0721,-1.0721,-1.0721,-1.0721,-1.0721,-1.0721,-1.0721,-1.0721,-1.0721,-1.0748,-1.0715,-1.0776,-1.1026,-1.1416,-1.1472,-1.0698,-0.8104,-0.5341,-0.5257,-1.0127,-1.0761,-1.0727,-1.0721,-1.0721,-1.0741,-1.0792,-1.0934,-1.1019,-1.1019,-1.1158,-1.124,-1.124,-1.1338,-1.1345,-1.1243,-1.144,-1.1396,-1.1097,-1.1097,-1.1145,-1.124,-1.124,-1.124,0.0,0.0,0.0,-1.0089,-1.0767,-1.1138,-1.1364,-1.0934,-1.0288,-0.9574,-0.8695,-0.8015,-0.7962,-0.8017,-0.7965,-0.8008,-0.8022,-0.8038,-0.8038,-0.7961,-0.7998,-0.7955,-0.8174,-0.8204,-0.8055,-0.8038,-0.8038,-0.8038,-0.8038,-0.8038,-0.8038,-0.8038,-0.8109,-0.8258,-0.8262,-0.8262,-0.8262,-0.8401,-0.8397,-0.8265,-0.8408,-0.8554,-0.8699,-0.8706,-0.8791,-0.894,-0.9083,-0.9147,-0.9171,-0.9476,-0.9605,-0.9625,-0.9761,-0.9819,-0.9822,-0.9822,-0.9822,-0.9822,-0.9822,-0.9791,-0.9814,-0.9836,-1.024,-1.0651,-1.0673,-1.0721,-1.0721,-1.0721,-1.0721,-1.0721,-1.0721,-1.0721,-1.0721,-1.0721,-1.0721,-1.0721,-1.0721,-1.0721,-1.0721,-1.0724,-1.0987,-1.1142,-1.1141,-1.1476,-1.165,-1.1671,-0.4965,-0.2582,-0.9454,-1.0505,-1.0744,-1.0724,-1.0721,-1.0782,-1.0938,-1.108,-1.1165,-1.1168,-1.1314,-1.1399,-1.1399,-1.1399,-1.1399,-1.1399,-1.1399,-1.1399,-1.1399,-1.1392,-1.1392,-1.1399,-1.1399,-1.1399,-0.7886,0.0,0.0,0.0,0.0,0.0,-1.1681,-1.1654,-1.1511,-1.1118,-0.9873,-0.8653,-0.8099,-0.7971,-0.7819,-0.7412,-0.7754,-0.8038,-0.8038,-0.7975,-0.7985,-0.8045,-0.8075,-0.8085,-0.8041,-0.8038,-0.8038,-0.8038,-0.8038,-0.8038,-0.8038,-0.8038,-0.8058,-0.8102,-0.8102,-0.8102,-0.8102,-0.8143,-0.8143,-0.8106,-0.8255,-0.835,-0.8397,-0.8615,-0.8733,-0.8781,-0.8933,-0.8998,-0.9022,-0.932,-0.951,-0.9612,-0.9775,-0.9854,-0.9822,-0.9822,-0.9822,-0.9822,-0.9822,-0.9849,-0.9801,-0.9803,-1.0176,-1.0652,-1.0646,-1.0721,-1.0721,-1.0721,-1.0721,-1.0721,-1.0721,-1.0721,-1.0721,-1.0721,-1.0721,-1.0721,-1.0721,-1.0721,-1.0751,-1.0725,-1.0723,-1.0832,-1.0869,-1.1192,-1.1611,-1.166,-0.5029,-0.0672,-0.2684,-0.7512,-1.0751,-1.0744,-1.0731,-1.0782,-1.0938,-1.108,-1.1209,-1.1321,-1.147,-1.1555,-1.1555,-1.1555,-1.1555,-1.1555,-1.1555,-1.1555,-1.1555,-1.1447,-1.1447,-1.1555,-1.1555,-1.1555,-0.7728,-0.8346,-0.9003,-0.9309,0.0,0.0,-1.1677,-1.1733,-1.1573,-1.1364,-1.0465,-0.9588,-0.8837,-0.8089,-0.7535,-0.7148,-0.7412,-0.765,-0.7831,-0.7898,-0.8038,-0.8038,-0.8038,-0.8038,-0.8038,-0.8038,-0.8038,-0.8038,-0.8038,-0.8038,-0.8038,-0.8038,-0.8038,-0.8038,-0.8038,-0.8038,-0.8038,-0.8038,-0.8038,-0.8041,-0.813,-0.8208,-0.8275,-0.8448,-0.856,-0.8625,-0.8777,-0.8845,-0.8862,-0.91,-0.9323,-0.952,-0.9707,-0.9696,-0.9822,-0.9822,-0.9822,-0.9822,-0.9822,-0.9822,-0.9859,-0.9847,-1.0226,-1.0717,-1.0689,-1.067,-1.0721,-1.0721,-1.0721,-1.0721,-1.0721,-1.0721,-1.0721,-1.0721,-1.0721,-1.0721,-1.0721,-1.0721,-1.0744,-1.0699,-1.0644,-1.0717,-1.0643,-1.1036,-1.1288,-1.1285,-0.4862,0.0,0.0,-0.4955,-0.8995,-1.0485,-1.0792,-1.0877,-1.1026,-1.1172,-1.1321,-1.1477,-1.1569,-1.1619,-1.1619,-1.1619,-1.1619,-1.1619,-1.1619,-1.1619,-1.1619,-1.1531,-1.1531,-1.1619,-1.1619,-1.1619,-0.7526,-0.8149,-0.8772,-0.9205,-1.0002,0.0,-1.1467,-1.1359,-1.1156,-1.0923,-1.0827,-1.0605,-1.0148,-0.8827,-0.7706,-0.7457,-0.7225,-0.7127,-0.7535,-0.7794,-0.7991,-0.7991,-0.7991,-0.7991,-0.7991,-0.8004,-0.8014,-0.8014,-0.8031,-0.8038,-0.8038,-0.8038,-0.8038,-0.8038,-0.8038,-0.8038,-0.8038,-0.8038,-0.8038,-0.8038,-0.8038,-0.8113,-0.8245,-0.8262,-0.834,-0.8465,-0.8618,-0.8696,-0.872,-0.8859,-0.9086,-0.9371,-0.9523,-0.9673,-0.9798,-0.9815,-0.9822,-0.9822,-0.9822,-0.9822,-0.9849,-0.9767,-1.0168,-1.0576,-1.0736,-1.0747,-1.0721,-1.0721,-1.0721,-1.0721,-1.0721,-1.0721,-1.0721,-1.0721,-1.0721,-1.0721,-1.0721,-1.0721,-1.0721,-1.0721,-1.0734,-1.0648,-1.0762,-1.0689,-1.0658,-1.066,-0.526,-0.0937,-0.0134,-0.3216,-0.6715,-1.0398,-1.089,-1.1012,-1.1175,-1.1311,-1.1457,-1.1609,-1.1619,-1.1619,-1.1619,-1.1619,-1.1619,-1.1619,-1.1619,-1.1619,-1.1619,-1.1619,-1.1619,-1.1619,-1.1619,-1.1619,-0.7318,-0.7751,-0.8402,-0.8818,-0.9457,0.0,-1.0747,-1.1217,-1.1744,-1.2204,-1.1999,-1.1926,-1.2473,-1.2291,-1.1474,-0.9892,-0.7859,-0.6614,-0.7126,-0.7493,-0.7685,-0.7685,-0.7882,-0.7981,-0.7981,-0.7987,-0.7955,-0.7955,-0.797,-0.8038,-0.8038,-0.8038,-0.8038,-0.8038,-0.8038,-0.8038,-0.8038,-0.8038,-0.8038,-0.8038,-0.8038,-0.8055,-0.8089,-0.8214,-0.8286,-0.8319,-0.8465,-0.8598,-0.8713,-0.8743,-0.893,-0.9211,-0.9364,-0.9517,-0.9663,-0.9778,-0.9822,-0.9822,-0.9822,-0.9822,-0.9744,-0.9758,-0.9862,-1.0065,-1.0595,-1.0697,-1.0721,-1.0721,-1.0721,-1.0721,-1.0721,-1.0721,-1.0721,-1.0721,-1.0721,-1.0721,-1.0721,-1.0721,-1.0721,-1.0721,-1.0685,-1.0735,-1.0645,-1.0705,-1.0742,-1.0675,-0.9567,-0.6474,-0.0681,-0.3103,-0.6905,-1.0701,-1.1029,-1.1056,-1.1324,-1.1372,-1.1457,-1.1609,-1.1619,-1.1619,-1.1619,-1.1619,-1.1619,-1.1619,-1.1619,-1.1619,-1.1619,-1.1619,-1.1619,-1.1619,-1.1619,-1.1619,-0.713,-0.7604,-0.823,-0.8709,-0.9217,0.0,0.0,-1.0953,-1.1516,-1.1598,-1.1942,-1.2107,-1.2124,-1.2886,-1.3278,-1.2596,-1.1309,-0.9529,-0.7084,-0.7241,-0.7654,-0.7749,-0.7654,-0.7587,-0.7574,-0.755,-0.7655,-0.8,-0.7918,-0.7885,-0.8031,-0.7967,-0.796,-0.8038,-0.8038,-0.8038,-0.8038,-0.8038,-0.8038,-0.8038,-0.8038,-0.8038,-0.8041,-0.8119,-0.8153,-0.8167,-0.8387,-0.8526,-0.8608,-0.876,-0.891,-0.9069,-0.9293,-0.9473,-0.9629,-0.9768,-0.9822,-0.9822,-0.9822,-0.9822,-0.9846,-0.9747,-1.0025,-1.0307,-1.0589,-1.074,-1.0721,-1.0721,-1.0721,-1.0721,-1.0721,-1.0721,-1.0721,-1.0721,-1.0721,-1.0721,-1.0721,-1.0721,-1.0721,-1.0721,-1.0645,-1.0675,-1.0734,-1.0648,-1.0678,-1.0748,-1.0642,-0.9457,-0.582,-0.5552,-0.6948,-1.0679,-1.1148,-1.1229,-1.1379,-1.146,-1.1538,-1.1613,-1.1619,-1.1619,-1.1619,-1.1619,-1.1619,-1.1619,-1.1619,-1.1619,-1.1619,-1.1619,-1.1619,-1.1619,-1.1619,-1.1619,-0.7118,-0.748,-0.808,-0.8586,-0.8999,-0.9432,0.0,0.0,0.0,-1.0792,-1.1365,-1.1794,-1.1255,-1.2324,-1.3453,-1.4035,-1.3954,-1.2279,-0.7766,-0.7589,-0.7881,-0.782,-0.7285,-0.6989,-0.6946,-0.7075,-0.7312,-0.7801,-0.7813,-0.777,-0.794,-0.7865,-0.7868,-0.7994,-0.8024,-0.8038,-0.8038,-0.8038,-0.8038,-0.8038,-0.8038,-0.8038,-0.8038,-0.8038,-0.8038,-0.8055,-0.8292,-0.8428,-0.8503,-0.875,-0.8886,-0.8964,-0.9232,-0.9432,-0.9585,-0.9727,-0.9798,-0.9822,-0.9822,-0.9822,-0.9825,-0.9856,-1.0201,-1.0721,-1.0749,-1.0668,-1.0721,-1.0721,-1.0721,-1.0721,-1.0721,-1.0721,-1.0721,-1.0721,-1.0721,-1.0721,-1.0721,-1.0721,-1.0721,-1.0721,-1.0721,-1.0721,-1.0721,-1.0721,-1.0721,-1.0721,-1.0761,-1.0248,-0.8879,-0.7588,-0.7932,-1.0783,-1.1236,-1.1372,-1.143,-1.1548,-1.1619,-1.1619,-1.1619,-1.1619,-1.1619,-1.1619,-1.1619,-1.1619,-1.1619,-1.1619,-1.1619,-1.1619,-1.1619,-1.1619,-1.1619,-1.1619,-0.7154,-0.737,-0.7782,-0.8255,-0.8638,-0.9027,-0.9389,0.0,-1.0347,-1.1064,0.0,-1.0982,-1.173,0.0,0.0,-1.2301,-1.1763,-1.1051,-1.0247,-0.9554,-0.8726,-0.7388,-0.6694,-0.6352,-0.6389,-0.6783,-0.7102,-0.7211,-0.7689,-0.7852,-0.7641,-0.7852,-0.8018,-0.8035,-0.797,-0.8038,-0.8038,-0.8038,-0.8038,-0.8038,-0.8038,-0.8038,-0.8038,-0.8038,-0.8038,-0.8041,-0.8075,-0.8238,-0.8486,-0.852,-0.8696,-0.8954,-0.9117,-0.9273,-0.9425,-0.9578,-0.9713,-0.9822,-0.9822,-0.9822,-0.9842,-0.9851,-1.0226,-1.076,-1.0764,-1.0694,-1.0721,-1.0721,-1.0721,-1.0721,-1.0721,-1.0721,-1.0721,-1.0721,-1.0721,-1.0721,-1.0721,-1.0721,-1.0721,-1.0721,-1.0721,-1.0721,-1.0721,-1.0721,-1.0721,-1.0721,-1.0741,-0.8344,-0.2032,-0.6472,-1.0518,-1.1478,-1.1406,-1.144,-1.1569,-1.1609,-1.1619,-1.1619,-1.1619,-1.1619,-1.1619,-1.1619,-1.1619,-1.1619,-1.1619,-1.1619,-1.1619,-1.1619,-1.1619,-1.1619,-1.1619,-1.1619,-0.6914,-0.7035,-0.7333,-0.7871,-0.8215,-0.8587,-0.9081,-0.9446,-0.9848,-1.0358,0.0,0.0,0.0,0.0,0.0,0.0,-1.0975,-1.0524,-1.0057,-0.965,-0.989,-1.1029,-1.0743,-0.9385,-0.66,-0.681,-0.8533,-1.1887,-0.9285,-0.8265,-1.0022,-0.8474,-0.7636,-0.8,-0.7973,-0.795,-0.8038,-0.8038,-0.8038,-0.8038,-0.8038,-0.8038,-0.8038,-0.8038,-0.8038,-0.8045,-0.8133,-0.8292,-0.8489,-0.8577,-0.8743,-0.8944,-0.9005,-0.9174,-0.9401,-0.9554,-0.97,-0.9822,-0.9822,-0.9822,-0.9859,-0.9847,-1.0266,-1.068,-1.0649,-1.0721,-1.0721,-1.0721,-1.0721,-1.0721,-1.0721,-1.0721,-1.0721,-1.0721,-1.0721,-1.0721,-1.0721,-1.0721,-1.0721,-1.0721,-1.0721,-1.0721,-1.0721,-1.0721,-1.0721,-1.0721,-1.0738,-0.9676,-0.6587,-0.8797,-1.0846,-1.1101,-1.1287,-1.153,-1.1599,-1.1619,-1.1619,-1.1619,-1.1619,-1.1619,-1.1619,-1.1619,-1.1619,-1.1619,-1.1619,-1.1619,-1.1619,-1.1619,-1.1619,-1.1619,-1.1619,-1.1619,-0.6896,-0.6936,-0.7068,-0.7605,-0.781,-0.7999,-0.8553,-0.8863,-0.9204,-0.9542,-0.9519,0.0,0.0,0.0,-0.9838,-1.0279,0.0,-1.0103,-0.9706,-0.9554,-1.0299,-1.2563,-1.3542,-1.2434,-0.8462,-0.7355,-0.8677,-1.2839,-1.0927,-0.9771,-1.0338,-0.8288,-0.7377,-0.7875,-0.7866,-0.7885,-0.8038,-0.8038,-0.8038,-0.8038,-0.8038,-0.8038,-0.8038,-0.8038,-0.8038,-0.8045,-0.816,-0.8313,-0.8489,-0.8601,-0.8764,-0.894,-0.894,-0.912,-0.9395,-0.9507,-0.9663,-0.9822,-0.9822,-0.9822,-0.9747,-0.979,-1.0149,-1.0728,-1.0764,-1.0721,-1.0721,-1.0721,-1.0721,-1.0721,-1.0721,-1.0721,-1.0721,-1.0721,-1.0721,-1.0721,-1.0721,-1.0721,-1.0721,-1.0721,-1.0721,-1.0721,-1.0721,-1.0721,-1.0721,-1.0721,-1.0734,-1.0738,-1.0721,-1.0732,-1.0743,-1.0721,-1.1297,-1.1598,-1.1606,-1.1619,-1.1619,-1.1619,-1.1619,-1.1619,-1.1619,-1.1619,-1.1619,-1.1619,-1.1619,-1.1619,-1.1619,-1.1619,-1.1619,-1.1619,-1.1619,-1.1619,-0.7218,-0.7122,-0.6976,-0.7375,-0.7368,-0.7325,-0.7774,-0.793,-0.8242,-0.8888,-0.8943,-0.9015,-0.934,-0.9088,-0.902,-0.9577,-0.9388,0.0,0.0,-0.9678,-0.9533,-0.965,-1.3001,-1.4609,-1.2652,-0.8755,-0.64,-0.6552,-1.2128,-1.2892,-0.6799,-0.6866,-0.7263,-0.7576,-0.776,-0.7885,-0.8038,-0.8038,-0.8038,-0.8038,-0.8038,-0.8038,-0.8038,-0.8038,-0.8038,-0.8038,-0.8045,-0.8214,-0.8482,-0.8486,-0.8665,-0.894,-0.894,-0.912,-0.9381,-0.9388,-0.9571,-0.9822,-0.9822,-0.9822,-0.9747,-0.979,-1.0149,-1.0728,-1.0764,-1.0721,-1.0721,-1.0721,-1.0721,-1.0721,-1.0721,-1.0721,-1.0721,-1.0721,-1.0721,-1.0721,-1.0721,-1.0721,-1.0721,-1.0721,-1.0721,-1.0721,-1.0721,-1.0721,-1.0721,-1.0721,-1.0721,-1.0721,-1.0721,-1.0715,-1.0723,-1.0718,-1.1297,-1.1598,-1.1606,-1.1619,-1.1619,-1.1619,-1.1619,-1.1619,-1.1619,-1.1619,-1.1619,-1.1619,-1.1619,-1.1619,-1.1619,-1.1619,-1.1619,-1.1619,-1.1619,-1.1619,-0.702,-0.7027,-0.7036,-0.7255,-0.7122,-0.7066,-0.7728,-0.7769,-0.7832,-0.8348,-0.8594,-0.8612,-0.833,-0.8339,-0.8393,-0.8486,-0.8103,-0.7846,0.0,-0.8913,-0.9478,-0.9494,-1.1526,-1.2469,-1.1439,-1.1177,-1.1146,-1.145,-1.4175,-1.3941,-0.962,-0.7764,-0.7068,-0.7461,-0.7567,-0.779,-0.8038,-0.8038,-0.8038,-0.8038,-0.8038,-0.8038,-0.8038,-0.8038,-0.8038,-0.8038,-0.8038,-0.8153,-0.835,-0.8442,-0.8604,-0.8798,-0.8899,-0.912,-0.9381,-0.9381,-0.9568,-0.9822,-0.9822,-0.9764,-0.9754,-0.9823,-1.0213,-1.0725,-1.066,-1.0721,-1.0721,-1.0721,-1.0721,-1.0721,-1.0721,-1.0721,-1.0721,-1.0721,-1.0721,-1.0721,-1.0721,-1.0721,-1.0721,-1.0721,-1.0721,-1.0721,-1.0721,-1.0721,-1.0721,-1.0721,-1.0721,-1.0721,-1.0721,-1.0715,-1.0863,-1.1286,-1.1444,-1.1598,-1.1606,-1.1619,-1.1619,-1.1619,-1.1619,-1.1619,-1.1619,-1.1619,-1.1619,-1.1619,-1.1619,-1.1619,-1.1619,-1.1619,-1.1619,-1.1619,-1.1619,-1.1619,-0.6947,-0.6986,-0.7051,-0.7165,-0.6954,-0.682,-0.741,-0.7375,-0.7306,-0.7902,-0.809,-0.8156,-0.8005,-0.8063,-0.8105,-0.7942,-0.7616,-0.7282,0.0,-0.7963,-0.8568,-0.8358,-1.0068,-1.1153,-1.0956,-1.1896,-1.2518,-1.2656,-1.4198,-1.3992,-1.1139,-0.8931,-0.7616,-0.7379,-0.7492,-0.774,-0.8035,-0.8038,-0.8038,-0.8038,-0.8038,-0.8038,-0.8038,-0.8038,-0.8038,-0.8041,-0.8099,-0.8208,-0.8357,-0.8503,-0.8655,-0.8801,-0.8899,-0.912,-0.9381,-0.9381,-0.9568,-0.9822,-0.9822,-0.9794,-0.982,-1.0099,-1.0375,-1.0654,-1.0677,-1.0721,-1.0721,-1.0721,-1.0721,-1.0721,-1.0721,-1.0721,-1.0721,-1.0721,-1.0721,-1.0721,-1.0721,-1.0721,-1.0721,-1.0721,-1.0721,-1.0721,-1.0721,-1.0721,-1.0721,-1.0721,-1.0721,-1.0721,-1.0721,-1.0762,-1.106,-1.1576,-1.1636,-1.1657,-1.1609,-1.1619,-1.1619,-1.1619,-1.1619,-1.1619,-1.1619,-1.1619,-1.1643,-1.1694,-1.1647,-1.1643,-1.1694,-1.1643,-1.1619,-1.1619,-1.1619,-1.1619]}]]